     2              OBSERVATION DATA    GPS                 RINEX VERSION / TYPE
ASRINEXO V2.4.4 UX USGS 18-DEC-96 11:07                     PGM / RUN BY / DATE
                                                            COMMENT
Original Marker Name: mulh mulholland_13.f.21_1940_LA_PublicCOMMENT
Campaign Name: usgs.northridge                              COMMENT
4-Character Station Name: MULH                              COMMENT
6-Character Antenna Code: ASHL12                            COMMENT
Vertical Measurement Point: BBE                             COMMENT
Vertical Offset to Rinex Ref. Point: 0.0595                 COMMENT
Radial Measurement Point: EGP                               COMMENT
Radial Offset to Rinex Ref. Point: 0.1424                   COMMENT
Antenna Height from Field Measurement: 1.4060 m             COMMENT
Additional Antenna Identification Info.:                    COMMENT
Original Ashtech L1/L2                                      COMMENT
Original XYZ: -2526976.4666 -4642491.9904 3558699.0653      COMMENT
New XYZ position is based on association with SCEC monument COMMENT
E1C7Y9T2+0011. Position of that monument is believed to be  COMMENT
valid to within 1 m horizontally; vertical accuracy         COMMENT
should be no worse than 3-times this value.                 COMMENT
                                                            COMMENT
Revised Rinex header created by UCSD GPS archive for        COMMENT
GSAC on 11-Nov-1999 (1999:315) 02:11:17 GMT                 COMMENT
For assistance contact dagnew@ucsd.edu or hjohnson@ucsd.edu COMMENT
                                                            COMMENT
MULH MULHOLLAND_13.F.21_1940_LA_PUBLIC_WORKS                MARKER NAME
CHS US GEOLOGICAL SURVEY                                    OBSERVER / AGENCY
579 ASHTECH Z-XII3 1E95                                     REC # / TYPE / VERS
26 ASHTECH GEODETIC L                                       ANT # / TYPE
 -2526906.0000 -4642409.0000  3558672.0000                  APPROX POSITION XYZ
        1.3393        0.0000        0.0000                  ANTENNA: DELTA H/E/N
     1     1     0                                          WAVELENGTH FACT L1/2
     5    C1    L1    L2    P1    P2                        # / TYPES OF OBSERV
    30                                                      INTERVAL
  1996    12    10    16    43   30.000000                  TIME OF FIRST OBS
  1996    12    10    23    30   30.000000                  TIME OF LAST OBS
                                                            END OF HEADER
 96 12 10 16 43 30.0000000  0  6  1 31 29 25 21 15
  21443124.782      219142.80549    154677.92949  21443124.0444   21443130.0864
  24093050.222      203411.94849    149743.83649  24093050.0194   24093059.5724
  23789396.215     -339286.96949   -250414.49149  23789395.9644   23789402.5024
  21401528.623      -33727.28349                  21401529.879    21401535.7844
  21977584.642      158757.63049    116606.49649  21977586.0644   21977592.7974
  21700189.579     -329123.21049   -239850.06049  21700189.1224   21700195.4614
 96 12 10 16 44  0.0000000  0  6  1 31 29 25 21 15
  21452307.481      267400.56249    192281.37549  21452306.8074   21452313.4834
  24104428.535      263206.78249    196337.18249  24104428.9714   24104437.6094
  23772197.449     -429665.46149   -320839.25049  23772196.3014   23772205.1854
  21387857.750     -339738.10159    -89710.03149  21387858.0844   21387863.7824
  21984773.238      196528.08449    146037.97049  21984773.1384   21984780.4004
  21683793.083     -415288.45949   -306991.80049  21683791.9434   21683798.9714
 96 12 10 16 44 30.0000000  0  6  1 31 29 25 21 15
  21461266.365      314479.67149    228966.38649  21461265.7454   21461272.4554
  24115576.025      321783.72249    241981.53549  24115575.7344   24115583.4984
  23754775.308     -521218.10449   -392178.93149  23754774.4624   23754781.9244
  21374007.758     -412521.44349   -146424.32949  21374008.0624   21374014.2704
  21991745.081      233163.31049    174584.86149  21991745.4414   21991752.7134
  21667214.459     -502409.10749   -374878.01549  21667213.9004   21667220.3434
 96 12 10 16 45  0.0000000  0  6  1 31 29 25 21 15
  21470017.878      360469.36749    264802.50749  21470017.1064   21470023.9334
  24126505.601      379218.34649    286735.73349  24126504.6084   24126514.0564
  23737144.821     -613865.06449   -464371.33349  23737145.2264   23737151.6514
  21359996.868     -486149.70649   -203796.98449  21359997.0824   21360002.8524
  21998516.507      268746.56449    202312.04949  21998516.2544   21998523.9044
  21650469.508     -590404.10549   -443445.56149  21650468.8724   21650475.7624
 96 12 10 16 45 30.0000000  0  6  1 31 29 25 21 15
  21478559.156      405354.12149    299777.61849  21478558.7034   21478565.2644
  24137212.867      435485.87349    330580.44949  24137212.1464   24137222.7804
  23719302.250     -707628.98649   -537434.09849  23719302.0594   23719309.2754
  21345821.063     -560644.68649   -261845.01349  21345821.3054   21345828.2704
  22005086.432      303271.83449    229214.80449  22005085.7564   22005094.3304
  21633554.723     -679292.16149   -512708.97649  21633553.7424   21633561.3044
 96 12 10 16 46  0.0000000  0  6  1 31 29 25 21 15
  21486906.631      449220.23949    333958.99549  21486905.8854   21486913.0214
  24147716.885      490684.02249    373591.92349  24147717.9834   24147727.1984
  23701262.602     -802427.95349   -611303.37349  23701262.7974   23701269.7314
  21331498.871     -635908.49349   -320492.11849  21331499.1104   21331505.7514
  22011476.141      336849.95349    255379.51149  22011475.7724   22011483.9894
  21616488.487     -768975.90049   -582592.40149  21616487.4874   21616494.8074
 96 12 10 16 46 30.0000000  0  6  1 31 29 25 21 15
  21495083.414      492189.77349    367441.72549  21495082.8444   21495089.6204
  24158041.521      544938.56249    415868.13249  24158041.4264   24158050.7404
  23683048.433     -898143.80949   -685887.13349  23683047.7374   23683056.3164
  21317053.955     -711817.50249   -379641.99649  21317054.1504   21317061.0454
  22017707.282      369594.48849    280894.69649  22017706.2694   22017714.1194
  21599294.721     -859329.13949   -652997.53549  21599294.5104   21599301.2524
 96 12 10 16 47  0.0000000  0  6  1 31 29 25 21 15
  21503105.121      534344.10949    400289.23849  21503104.6604   21503111.4924
  24168200.756      598326.48649    457469.05949  24168200.4334   24168210.4954
  23664677.307     -994684.84749   -761113.87749  23664676.3054   23664685.0434
  21302502.738     -788285.59349   -439227.51449  21302502.3154   21302509.0114
  22023794.354      401582.53049    305820.40749  22023794.6644   22023801.6884
  21581991.527     -950259.10149   -723852.04449  21581991.4484   21581998.3054
 96 12 10 16 47 30.0000000  0  6  1 31 29 25 21 15
  21510981.490      575734.52649    432541.49449  21510981.2584   21510987.5964
  24178207.772      650913.16949    498445.62349  24178207.9254   24178216.9834
  23646162.105    -1091981.66549   -836929.53949  23646162.3824   23646170.5504
  21287854.048     -865264.51049   -499211.08149  21287853.8254   21287860.5244
  22029750.685      432882.31149    330209.79449  22029750.9714   22029758.2244
  21564591.599    -1041697.46349   -795102.71149  21564590.7444   21564598.0094
 96 12 10 16 48  0.0000000  0  6  1 31 29 25 21 15
  21518723.857      616420.66649    464244.96549  21518723.4584   21518729.9824
  24188070.684      702742.93449    538832.38549  24188069.7484   24188079.5364
  23627515.357    -1189970.15349   -913284.18149  23627516.1914   23627523.6784
  21273120.842     -942687.73549   -559540.86249  21273120.7054   21273127.3274
  22035584.747      463539.66649    354098.59949  22035584.1834   22035592.0984
  21547105.603    -1133586.88649   -866704.86049  21547104.3604   21547111.4444
 96 12 10 16 48 30.0000000  0  6  1 31 29 25 21 15
  21526343.900      656464.22049    495447.72249  21526343.3734   21526350.1594
  24197796.248      753851.55849    578657.21849  24197797.4434   24197805.3074
  23608747.885    -1288595.53849   -990135.10649  23608748.1044   23608755.4634
  21258312.844    -1020503.97149   -620176.88549  21258313.1464   21258319.4264
  22041304.799      493598.06649    377520.70049  22041304.2234   22041311.6494
  21529543.370    -1225876.01949   -938618.45949  21529542.3384   21529550.0904
 96 12 10 16 49  0.0000000  0  6  1 31 29 25 21 15
  21533846.733      695891.08349    526169.92949  21533846.6384   21533852.7834
  24207392.634      804278.44349    617950.84549  24207393.0514   24207400.9274
  23589868.172    -1387809.48849  -1067444.64049  23589867.6544   23589875.7814
  21243437.989    -1098672.51949   -681087.41749  21243437.4444   21243444.7404
  22046920.824      523110.79149    400517.60149  22046920.8344   22046927.9304
  21511913.495    -1318521.13049  -1010809.45649  21511912.7434   21511920.0984
 96 12 10 16 49 30.0000000  0  6  1 31 29 25 21 15
  21541238.025      734732.43649    556435.90249  21541237.4524   21541244.6934
  24216866.967      854065.61149    656745.97249  24216867.0624   24216874.8584
  23570883.417    -1487575.08049  -1145184.04049  23570883.9874   23570890.6314
  21228501.470    -1177163.87749   -742249.50349  21228501.4244   21228508.2324
  22052440.162      552114.27049    423117.69349  22052439.8044   22052447.3214
  21494223.132    -1411484.38749  -1083248.35949  21494222.2304   21494229.4054
 96 12 10 16 50  0.0000000  0  6  1 31 29 25 21 15
  21548523.675      773019.08549    586269.62749  21548523.8774   21548530.5464
  24226222.806      903229.67649    695055.54949  24226222.8054   24226230.8124
  23551797.870    -1587870.60049  -1223336.36749  23551798.1494   23551805.3474
  21213509.760    -1255945.72549   -803637.94749  21213509.4034   21213516.5934
  22057865.591      580624.71349    445333.59049  22057865.4184   22057872.6014
  21476477.516    -1504737.88049  -1155913.41049  21476476.7944   21476483.7414
 96 12 10 16 50 30.0000000  0  6  1 31 29 25 21 15
  21555703.420      810747.94249    615668.71749  21555702.9774   21555710.0404
  24235465.310      951798.28449    732901.17849  24235464.9874   24235473.4144
  23532615.116    -1688676.92949  -1301886.71949  23532615.0604   23532622.2194
  21198464.031    -1335011.74449   -865247.82449  21198463.9294   21198470.5684
  22063201.040      608662.19349    467180.96649  22063200.9144   22063207.5484
  21458681.755    -1598255.26849  -1228784.10049  21458681.4144   21458688.4654
 96 12 10 16 51  0.0000000  0  6  1 31 29 25 21 15
  21562776.837      847918.91849    644633.10549  21562776.1914   21562783.2994
  24244598.093      999790.73449    770297.82849  24244597.5344   24244606.3194
  23513339.587    -1789971.20649  -1380817.25849  23513339.7844   23513345.9764
  21183369.860    -1414331.96849   -927055.77949  21183369.3794   21183376.7614
  22068449.800      636244.03649    488673.29449  22068449.2904   22068456.7504
  21440840.686    -1692011.90949  -1301841.21849  21440840.2254   21440847.2524
 96 12 10 16 51 30.0000000  0  6  1 31 29 25 21 15
  21569748.810      884557.32949    673182.50749  21569748.6144   21569755.3024
  24253621.365     1047206.98949    807245.46649  24253621.7674   24253628.9444
  23493971.814    -1891750.22749  -1460125.52049  23493971.5124   23493980.2714
  21168231.889    -1493882.07049   -989042.86049  21168231.4184   21168238.5944
  22073611.073      663366.44949    509807.60249  22073611.3574   22073618.4664
  21422957.307    -1785989.40049  -1375070.43749  21422956.0164   21422963.4814
 96 12 10 16 52  0.0000000  0  6  1 31 29 25 21 15
  21576622.606      920679.09849    701329.32149  21576622.2554   21576629.1954
  24262538.136     1094063.62749    843757.06149  24262538.7044   24262545.8554
  23474514.819    -1993998.19849  -1539799.20449  23474513.9924   23474522.0294
  21153057.563    -1573623.10849  -1051178.72949  21153057.7234   21153064.8504
  22078689.786      690054.14349    530603.18649  22078689.8414   22078696.6354
  21405035.529    -1880167.66949  -1448456.10249  21405034.7234   21405042.5234
 96 12 10 16 52 29.9990000  0  7  1 31 29 25 21 14 15
  21583402.516      956307.70649    729091.86349  21583402.0324   21583409.2444
  24271349.983     1140370.28949    879840.13649  24271349.6044   24271358.0844
  23454974.561    -2096682.53649  -1619812.92349  23454974.1494   23454981.3944
  21137852.794    -1653525.18449  -1113440.08149  21137853.0294   21137859.8984
  22083691.653      716338.08149    551084.13449  22083691.8784   22083698.4714
  24717828.945    -2205035.63549  -1697892.11049  24717828.5334   24717837.1424
  21387080.828    -1974520.10649  -1521977.47249  21387079.9134   21387087.4444
 96 12 10 16 52 59.9990000  0  7  1 31 29 25 21 14 15
  21590100.408      991505.46849    756518.67649  21590100.0254   21590107.0764
  24280061.341     1186148.22949    915511.20649  24280061.6034   24280068.0544
  23435354.810    -2199784.38849  -1700151.94449  23435353.5124   23435360.6424
  21122624.551    -1733550.10149  -1175797.15549  21122624.3214   21122631.5944
  22088623.447      742254.26449    571278.53549  22088623.4644   22088630.0684
  24696623.977    -2316466.49249  -1784721.31549  24696621.9344   24696631.8024
  21369097.202    -2069025.03149  -1595617.67349  21369096.6824   21369103.9564
 96 12 10 16 53 29.9990000  0  7  1 31 29 25 21 14 15
  21596723.023     1026307.34049    783637.00049  21596722.8304   21596729.5274
  24288676.918     1231421.63349    950789.13849  24288677.3394   24288683.4284
  23415661.285    -2303273.58449  -1780792.82249  23415660.5954   23415668.0274
  21107375.994    -1813681.48849  -1238237.18849  21107375.2884   21107383.2784
  22093491.723      767836.85349    591212.99849  22093491.2844   22093498.5584
  24675295.197    -2428549.32349  -1872058.56749  24675294.1294   24675304.2934
  21351089.198    -2163657.42749  -1669357.20449  21351088.6594   21351095.6214
 96 12 10 16 53 59.9990000  0  7  1 31 29 25 21 14 15
  21603274.127     1060733.92149    810462.89449  21603273.8354   21603280.8514
  24297202.827     1276224.83149    985700.65249  24297202.8964   24297209.4554
  23395899.258    -2407123.28349  -1861714.59749  23395899.2664   23395905.9404
  21092109.467    -1893907.18849  -1300750.71349  21092109.4364   21092116.9184
  22098303.766      793125.25449    610918.18649  22098302.8334   22098310.4864
  24653847.052    -2541260.13649  -1959885.13749  24653848.2064   24653854.8224
  21333061.270    -2258395.30549  -1743178.93049  21333060.9994   21333068.0424
 96 12 10 16 54 29.9990000  0  7  1 31 29 25 21 14 15
  21609757.672     1094804.51149    837011.38749  21609757.0564   21609764.2734
  24305641.772     1320570.98949   1020256.01549  24305641.4254   24305646.1274
  23376072.135    -2511315.67249  -1942903.40049  23376072.6124   23376079.0784
  21076826.221    -1974221.66749  -1363333.43449  21076826.0774   21076833.9654
  22103061.690      818128.65949    630401.34149  22103060.8394   22103069.2104
  24632285.961    -2654565.26849  -2048174.84049  24632285.2444   24632293.8644
  21315016.969    -2353219.53649  -1817067.93549  21315016.3114   21315023.9834
 96 12 10 16 54 59.9990000  0  7  1 31 29 25 21 14 15
  21616173.688     1128520.89949    863283.87849  21616173.6044   21616180.2544
  24313997.528     1364479.81649   1054470.66149  24313997.5704   24314001.5774
  23356181.242    -2615843.93049  -2024353.93149  23356182.1024   23356187.9784
  21061528.827    -2054610.26149  -1425973.89549  21061529.4074   21061535.6034
  22107766.772      842854.03449    649667.84149  22107766.6224   22107774.3364
  24610614.961    -2768446.82549  -2136913.68949  24610614.6264   24610623.0594
  21296959.256    -2448113.35149  -1891011.16549  21296958.7624   21296965.6604
 96 12 10 16 55 29.9990000  0  7  1 31 29 25 21 14 15
  21622520.323     1161872.34649    889272.00649  21622520.0614   21622526.7064
  24322273.063     1407968.35649   1088357.80449  24322271.0924   24322278.9174
  23336230.403    -2720686.14749  -2106049.10749  23336230.7644   23336237.0974
  21046219.252    -2135063.50249  -1488664.72549  21046219.5454   21046226.1694
  22112421.477      867313.79749    668727.37749  22112421.1394   22112428.9764
  24588837.226    -2882891.35549  -2226091.20749  24588837.8824   24588845.1464
  21278891.555    -2543060.02449  -1964995.59049  21278891.0804   21278897.7294
 96 12 10 16 55 59.9990000  0  7  1 31 29 25 21 14 15
  21628799.242     1194868.06749    914982.93949  21628799.0344   21628805.9524
  24330469.870     1451043.15949   1121922.53149  24330469.8164   24330477.2684
  23316222.582    -2825826.46249  -2187976.58049  23316221.9854   23316229.9114
  21030900.999    -2215562.06449  -1551390.87149  21030900.7804   21030907.4064
  22117027.719      891519.20549    687588.72149  22117027.0914   22117034.6614
  24566953.678    -2997891.95149  -2315702.02249  24566954.8614   24566960.9084
  21260817.930    -2638038.18349  -2039004.54549  21260817.1334   21260823.9564
 96 12 10 16 56 29.9990000  0  7  1 31 29 25 21 14 15
  21635011.238     1227512.21949    940419.92649  21635010.8244   21635017.7964
  24338586.552     1493696.30549   1155158.71749  24338585.4084   24338593.6724
  23296162.609    -2931240.90749  -2270117.63849  23296161.9434   23296169.9094
  21015578.369    -2296082.71049  -1614134.21549  21015578.2984   21015584.9584
  22121588.202      915485.31449    706263.57649  22121587.3844   22121595.5264
  24544966.546    -3113437.04149  -2405737.13049  24544967.5134   24544973.6864
  21242741.607    -2733029.77449  -2113023.96449  21242740.7874   21242748.4384
 96 12 10 16 56 59.9990000  0  7  1 31 29 25 21 14 15
  21641156.028     1259803.33049    965581.81149  21641155.6404   21641162.5674
  24346624.059     1535934.30849   1188071.39449  24346622.0044   24346629.8834
  23276052.459    -3036919.84649  -2352464.84849  23276052.3144   23276059.7064
  21000253.765    -2376613.98249  -1676885.84349  21000254.0174   21000260.2244
  22126107.202      939233.66749    724768.75049  22126106.0664   22126114.6644
  24522875.225    -3229529.81549  -2496199.00549  24522875.6564   24522882.1364
  21224665.521    -2828019.92449  -2187042.25549  21224664.8604   21224672.2504
 96 12 10 16 57 29.9990000  0  7  1 31 29 25 21 14 15
  21647237.073     1291759.46949    990482.68449  21647236.5704   21647243.5414
  24354587.440     1577782.46149   1220680.26849  24354588.8994   24354595.0834
  23255894.320    -3142850.27849  -2435007.99849  23255894.2094   23255902.3614
  20984932.387    -2457129.16649  -1739624.93149  20984932.6434   20984938.7534
  22130588.009      962780.71649    743117.05649  22130587.6934   22130594.6344
  24500683.209    -3346149.64849  -2587071.59549  24500682.4704   24500690.0844
  21206593.814    -2922987.31549  -2261042.81049  21206593.3114   21206600.4894
 96 12 10 16 57 59.9990000  0  7  1 31 29 25 21 14 15
  21653257.837     1323398.72149   1015136.63149  21653257.3924   21653264.4514
  24362478.091     1619247.77949   1252990.79649  24362476.4394   24362484.0824
  23235689.152    -3249028.16349  -2517743.97549  23235689.3674   23235697.2814
  20969617.080    -2537612.25649  -1802339.00249  20969617.2964   20969623.1804
  22135031.193      986130.11349    761311.36249  22135031.3674   22135038.8174
  24478394.284    -3463278.23549  -2678340.57849  24478393.9504   24478400.9974
  21188529.330    -3017916.57549  -2335013.65449  21188528.5974   21188535.5664
 96 12 10 16 58 29.9990000  0  7  1 31 29 25 21 14 15
  21659219.752     1354728.71549   1039549.59849  21659219.2154   21659226.2784
  24370299.371     1660353.48849   1285021.14549  24370298.2644   24370308.6214
  23215437.951    -3355448.85449  -2600669.14049  23215437.6074   23215445.5394
  20954312.268    -2618039.80249  -1865009.80249  20954312.1424   20954318.2974
  22139438.364     1009289.51149    779357.60449  22139437.9264   22139445.7154
  24456013.559    -3580889.15649  -2769985.44249  24456013.0644   24456020.2524
  21170475.601    -3112789.42449  -2408940.53649  21170474.7654   21170482.6294
 96 12 10 16 58 59.9990000  0  7  1 31 29 25 21 14 15
  21665124.756     1385759.90449   1063729.73249  21665124.2574   21665131.2814
  24378058.268     1701128.80349   1316794.02649  24378057.2824   24378065.7964
  23195138.492    -3462123.57849  -2683792.29249  23195139.2294   23195145.7824
  20939019.293    -2698404.96649  -1927631.98049  20939019.3994   20939024.7024
  22143808.460     1032254.12249    797252.05249  22143807.4014   22143816.5064
  24433543.180    -3698970.81149  -2861997.10149  24433542.5404   24433551.3554
  21152434.468    -3207595.97549  -2482815.76149  21152434.0354   21152440.8324
 96 12 10 16 59 29.9990000  0  7  1 31 29 25 21 14 15
  21670975.636     1416506.35949   1087687.98949  21670975.6964   21670982.4234
  24385753.601     1741567.32649   1348304.51649  24385753.1044   24385762.8624
  23174792.955    -3569040.95349  -2767104.48849  23174793.2444   23174800.5134
  20923738.719    -2778704.93949  -1990203.35649  20923738.7974   20923744.1784
  22148141.082     1055022.68449    814993.75349  22148141.6814   22148149.2854
  24410985.918    -3817509.22349  -2954364.71149  24410985.1674   24410992.5614
  21134406.701    -3302332.83949  -2556636.69449  21134406.4354   21134413.3214
 96 12 10 16 59 59.9990000  0  7  1 31 29 25 21 14 15
  21676775.753     1446985.44049   1111437.90749  21676775.2114   21676782.4204
  24393385.948     1781675.80149   1379557.79049  24393385.7004   24393393.8184
  23154408.019    -3676164.63249  -2850577.47049  23154407.7774   23154414.7504
  20908474.478    -2858919.29649  -2052708.02149  20908474.3844   20908480.0364
  22152442.118     1077623.59449    832604.81449  22152441.6944   22152451.1704
  24388345.876    -3936482.89149  -3047071.46449  24388345.2004   24388354.1514
  21116396.780    -3396976.48049  -2630384.98849  21116396.6734   21116403.1624
 96 12 10 17  0 29.9990000  0  7  1 31 29 25 21 14 15
  21682527.064     1477208.81949   1134988.57849  21682526.5494   21682533.4444
  24400957.192     1821462.38149   1410560.23249  24400958.5484   24400966.3144
  23133987.327    -3783477.29049  -2934197.71249  23133987.6244   23133993.7594
  20893231.200    -2939023.01949  -2115126.48849  20893231.1674   20893236.5054
  22156716.514     1100085.77749    850107.73549  22156716.2844   22156724.7544
  24365624.389    -4055883.42749  -3140110.81249  24365623.6004   24365632.0874
  21098408.417    -3491506.64249  -2704044.85149  21098408.1364   21098414.6074
 96 12 10 17  0 59.9990000  0  7  1 31 29 25 21 14 15
  21688233.812     1507198.15349   1158356.88149  21688233.0094   21688240.4794
  24408466.065     1860920.16449   1441306.49549  24408465.5914   24408474.6724
  23113536.950    -3890945.80549  -3017939.36349  23113537.3114   23113543.8014
  20878011.833    -3019001.60049  -2177447.41649  20878011.5734   20878016.8724
  22160968.280     1122428.24049    867517.39449  22160968.1214   22160975.7774
  24342826.575    -4175687.04949  -3233464.29749  24342825.9424   24342834.5244
  21080444.670    -3585907.16249  -2777603.69249  21080444.0324   21080451.0384
 96 12 10 17  1 29.9990000  0  7  1 31 29 25 21 14 15
  21693886.455     1536903.52749   1181503.91049  21693885.8354   21693893.0464
  24415897.672     1899973.44149   1471737.57249  24415896.7264   24415905.9604
  23093051.390    -3998598.72749  -3101824.73049  23093050.9634   23093058.4734
  20862808.677    -3098894.50749  -2239701.60749  20862808.2884   20862813.9504
  22165189.887     1144612.72249    884803.98049  22165189.0494   22165198.3194
  24319942.324    -4295944.33949  -3327171.24449  24319942.0944   24319950.4934
  21062497.506    -3680220.22649  -2851094.38849  21062496.9574   21062504.2504
 96 12 10 17  1 59.9990000  0  7  1 31 29 25 21 14 15
  21699477.268     1566283.59049   1204397.45749  21699476.6354   21699484.1484
  24423244.853     1938584.38349   1501823.95649  24423244.1604   24423253.8114
  23072521.329    -4106484.84249  -3185891.79849  23072522.1054   23072527.6314
  20847614.152    -3178742.09549  -2301920.49649  20847614.2074   20847619.7504
  22169373.159     1166596.15649    901933.87049  22169372.9824   22169380.8654
  24296963.596    -4416698.40649  -3421265.31149  24296963.5424   24296971.7054
  21044560.578    -3774480.04149  -2924543.58849  21044559.9244   21044567.0704
 96 12 10 17  2 29.9990000  0  7  1 31 29 25 21 14 15
  21705017.950     1595399.99149   1227085.55749  21705017.4594   21705025.0624
  24430518.014     1976803.89049   1531605.30149  24430518.8044   24430526.5114
  23051953.160    -4214572.08849  -3270115.59849  23051953.4354   23051959.3794
  20832433.978    -3258514.69749  -2364080.93649  20832433.5564   20832439.4494
  22173526.889     1188424.49549    918942.91749  22173526.8774   22173533.7724
  24273896.945    -4537914.27449  -3515719.20649  24273896.4014   24273904.2454
  21026642.809    -3868638.49849  -2997913.80949  21026641.6594   21026649.0174
 96 12 10 17  2 59.9990000  0  7  1 31 29 25 21 14 15
  21710511.000     1624266.33249   1249578.80149  21710510.7064   21710518.3694
  24437720.624     2014651.76949   1561097.09349  24437720.9884   24437727.5544
  23031349.503    -4322845.59049  -3354484.52149  23031349.6884   23031355.9704
  20817267.567    -3338214.25349  -2426184.46949  20817267.3264   20817273.3874
  22177652.432     1210103.14749    935835.34349  22177651.6614   22177659.3014
  24250744.619    -4659580.59549  -3610524.12749  24250743.8494   24250752.3094
  21008745.449    -3962689.09849  -3071199.98849  21008744.9494   21008751.6464
 96 12 10 17  3 29.9990000  0  7  1 31 29 25 21 14 15
  21715966.236     1652933.67649   1271916.98449  21715965.7004   21715973.3624
  24444865.172     2052196.65049   1590352.76549  24444864.7424   24444872.8924
  23010717.205    -4431267.96349  -3438969.45049  23010715.9634   23010722.0434
  20802125.001    -3417788.22649  -2488190.15349  20802124.6894   20802130.9574
  22181759.720     1231687.38749    952654.19949  22181759.2984   22181766.8364
  24227511.818    -4781667.78249  -3705656.93949  24227511.1634   24227520.4664
  20990879.142    -4056578.02649  -3144360.18049  20990878.7874   20990885.1614
 96 12 10 17  3 59.9990000  0  7  1 31 29 25 21 14 15
  21721388.285     1681426.57949   1294119.24349  21721388.1964   21721395.6884
  24451960.685     2089482.73949   1619406.76849  24451961.8494   24451968.8654
  22990058.994    -4539826.88249  -3523560.79449  22990059.6334   22990064.7194
  20787009.261    -3497221.91049  -2550086.52949  20787009.3034   20787014.9094
  22185850.798     1253185.51849    969405.93649  22185850.8654   22185858.2084
  24204202.084    -4904161.87249  -3801106.83649  24204203.1094   24204209.0714
  20973046.906    -4150287.12949  -3217380.25449  20973046.2324   20973053.2614
 96 12 10 17  4 29.9990000  0  7  1 31 29 25 21 14 15
  21726777.895     1709748.05949   1316187.92049  21726777.6254   21726784.7524
  24459008.883     2126520.92749   1648267.61949  24459008.4114   24459017.1084
  22969380.344    -4648494.00249  -3608236.44249  22969380.1294   22969386.1254
  20771926.057    -3576484.30549  -2611849.41749  20771925.2454   20771932.5294
  22189930.172     1274623.06949    986110.46749  22189930.2614   22189938.0984
  24180818.877    -5027043.06949  -3896858.37949  24180817.4084   24180826.2434
  20955252.836    -4243795.24549  -3290243.71849  20955252.4114   20955259.5574
 96 12 10 17  4 59.9990000  0  7  1 31 29 25 21 14 15
  21732135.963     1737905.24449   1338128.58249  21732135.8154   21732143.1464
  24466011.180     2163319.86249   1676942.04049  24466010.2444   24466018.6774
  22948688.670    -4757228.65249  -3692964.70049  22948687.4344   22948694.7204
  20756886.582    -3655515.97049  -2673432.52449  20756885.8574   20756893.7324
  22194004.222     1296032.19849   1002792.84749  22194004.2014   22194013.0964
  24157370.675    -5150264.40449  -3992874.97949  24157370.2514   24157377.8244
  20937503.640    -4337068.39549  -3362924.09049  20937502.3594   20937510.0524
 96 12 10 17  5 29.9990000  0  7  1 31 29 25 21 14 15
  21737458.659     1765875.12649   1359923.27549  21737458.5114   21737465.5204
  24472963.190     2199852.49549   1705408.96249  24472963.9904   24472971.6904
  22927979.422    -4866055.19749  -3777764.58349  22927979.3304   22927985.6944
  20741889.173    -3734326.66549  -2734843.45549  20741888.4394   20741896.6344
  22198069.297     1317393.10049   1019437.65049  22198068.7874   22198076.9584
  24133857.652    -5273826.74349  -4089157.28249  24133857.8584   24133864.8124
  20919797.289    -4430114.82349  -3435427.79549  20919796.4964   20919804.0594
 96 12 10 17  5 59.9990000  0  7  1 31 29 25 21 14 15
  21742742.427     1793641.52849   1381559.42649  21742741.9934   21742749.3914
  24479860.683     2236098.02749   1733652.19849  24479858.8564   24479870.3354
  22907252.725    -4974973.91649  -3862636.26749  22907252.6694   22907260.3124
  20726934.216    -3812914.70349  -2796080.89649  20726933.8924   20726941.4844
  22202125.047     1338705.59749   1036044.73349  22202125.1594   22202133.7604
  24110282.165    -5397716.98149  -4185695.08949  24110281.2204   24110288.6144
  20902134.396    -4522933.70249  -3507754.19449  20902133.5644   20902140.7504
 96 12 10 17  6 29.9990000  0  7  1 31 29 25 21 14 15
  21747986.258     1821197.46949   1403031.57349  21747985.8734   21747993.0204
  24486700.881     2272046.01049   1761663.50149  24486700.3304   24486710.6164
  22886509.267    -5083981.28849  -3947577.03449  22886508.9504   22886516.8124
  20712024.425    -3891265.98249  -2857133.83649  20712024.5544   20712032.2034
  22206176.103     1359994.06549   1052633.10249  22206175.5054   22206183.8074
  24086648.936    -5521909.20749  -4282468.19149  24086648.2504   24086655.5974
  20884517.157    -4615512.40349  -3579893.44149  20884516.2004   20884524.0314
 96 12 10 17  6 59.9990000  0  7  1 31 29 25 21 14 15
  21753193.204     1848559.58049   1424352.68349  21753192.8184   21753199.8884
  24493487.213     2307707.37649   1789451.51549  24493488.2914   24493495.2874
  22865746.960    -5193087.77449  -4032595.02949  22865746.9734   22865753.9034
  20697157.856    -3969390.68449  -2918010.23549  20697157.8764   20697165.4934
  22210220.795     1381248.79849   1069195.14849  22210220.7844   22210230.0184
  24062957.994    -5646403.58649  -4379476.75949  24062956.5824   24062965.6424
  20866944.947    -4707854.28649  -3651848.16449  20866944.1954   20866952.0964
 96 12 10 17  7 29.9990000  0  7  1 31 29 25 21 14 15
  21758370.901     1875769.12449   1445554.92349  21758370.3244   21758377.8584
  24500227.551     2343125.19449   1817049.76349  24500227.1164   24500235.8494
  22844971.520    -5302264.05549  -4117667.43049  22844971.7454   22844977.3264
  20682338.530    -4047267.15749  -2978693.20649  20682339.2844   20682345.8334
  22214264.241     1402497.47849   1085752.52249  22214263.6054   22214272.3804
  24039213.016    -5771182.56549  -4476707.10149  24039214.5484   24039220.5274
  20849424.294    -4799925.37749  -3723591.87949  20849423.9644   20849430.7154
 96 12 10 17  7 59.9990000  0  7  1 31 29 25 21 14 15
  21763519.725     1902825.97449   1466638.18549  21763519.7694   21763526.4034
  24506918.360     2378283.81349   1844445.99749  24506918.8434   24506926.4294
  22824183.978    -5411504.18849  -4202789.57549  22824184.7664   22824190.3884
  20667566.666    -4124894.41449  -3039181.96749  20667567.1614   20667573.8314
  22218305.740     1423736.73849   1102302.55249  22218305.3174   22218313.2524
  24015409.977    -5896270.60249  -4574178.30249  24015409.8884   24015416.9154
  20831954.530    -4891730.27949  -3795128.16149  20831954.5784   20831961.0644
 96 12 10 17  8 29.9990000  0  7  1 31 29 25 21 14 15
  21768648.622     1929778.78249   1487640.37349  21768648.1384   21768655.5414
  24513565.205     2413211.42949   1871662.24149  24513565.8714   24513573.2724
  22803390.319    -5520775.56249  -4287936.07149  22803390.0524   22803397.3784
  20652847.294    -4202246.43249  -3099456.25949  20652847.7414   20652854.4304
  22222350.687     1444992.86549   1118865.70149  22222350.2374   22222358.4204
  23991552.947    -6021640.24349  -4671868.90449  23991553.0634   23991561.2174
  20814540.992    -4983239.63849  -3866434.16249  20814540.4144   20814547.2944
 96 12 10 17  8 59.9990000  0  7  1 31 29 25 21 14 15
  21773767.445     1956677.81749   1508600.64049  21773767.0654   21773774.3764
  24520173.573     2447937.42849   1898721.45049  24520172.4884   24520181.8234
  22782598.701    -5630036.56949  -4373074.49649  22782598.0364   22782605.5894
  20638187.656    -4279284.02149  -3159485.53649  20638188.2504   20638194.5934
  22226403.130     1466288.46749   1135459.61949  22226403.0114   22226411.2274
  23967647.075    -6147266.86049  -4769759.74949  23967646.9234   23967654.9014
  20797190.946    -5074414.60349  -3937479.58749  20797190.4954   20797197.9974
 96 12 10 17  9 29.9990000  0  7  1 31 29 25 21 14 15
  21778860.078     1983440.12449   1529454.36349  21778859.5194   21778867.3264
  24526728.933     2482387.93949   1925565.94049  24526727.7804   24526737.0774
  22761797.745    -5739345.76249  -4458250.46149  22761797.3264   22761804.1824
  20623577.112    -4356063.93349  -3219314.02249  20623577.1454   20623584.1174
  22230451.029     1487559.71149   1152034.53749  22230450.6294   22230458.9954
  23943681.600    -6273206.38549  -4867894.41349  23943681.5144   23943688.1664
  20779893.580    -5165313.29649  -4008309.73249  20779892.7404   20779899.7944
 96 12 10 17  9 59.9990000  0  7  1 31 29 25 21 14 15
  21783923.055     2010046.85649   1550186.86249  21783922.7444   21783930.2284
  24533230.566     2516554.16349   1952188.88049  24533231.2374   24533240.8724
  22740984.623    -5848718.71149  -4543476.11149  22740984.3844   22740990.6034
  20609011.476    -4432607.34249  -3278958.22149  20609011.4284   20609018.1674
  22234492.019     1508795.30949   1168581.69749  22234491.7124   22234499.8894
  23919657.764    -6399452.55449  -4966268.03049  23919657.7364   23919666.3274
  20762645.935    -5255949.74049  -4078935.53349  20762645.0804   20762652.0034
 96 12 10 17 10 29.9990000  0  7  1 31 29 25 21 14 15
  21788972.325     2036581.86049   1570863.45849  21788971.5494   21788979.4904
  24539696.649     2550531.43449   1978664.61649  24539696.7714   24539705.3114
  22720174.840    -5958074.63949  -4628688.52849  22720174.9804   22720181.0204
  20594504.435    -4508842.40249  -3338362.15749  20594504.5914   20594510.9174
  22238542.873     1530081.91349   1185168.59949  22238542.5974   22238551.5364
  23895592.591    -6525916.05249  -5064810.99849  23895592.8554   23895600.5114
  20745464.092    -5346240.92349  -4149292.30949  20745463.3154   20745470.7704
 96 12 10 17 10 59.9990000  0  7  1 31 29 25 21 14 15
  21794001.426     2063009.04649   1591456.03149  21794001.4974   21794008.1074
  24546124.111     2584305.87149   2004982.28649  24546124.3824   24546132.0134
  22699365.212    -6067429.50249  -4713900.09149  22699365.4564   22699372.0114
  20580051.826    -4584791.63949  -3397543.36249  20580051.9274   20580058.3814
  22242599.976     1551401.58449   1201781.31149  22242599.8094   22242608.6064
  23871483.378    -6652610.94649  -5163534.25649  23871482.9764   23871490.9374
  20728345.318    -5436200.89449  -4219390.98049  20728344.7464   20728352.4884
 96 12 10 17 11 29.9990000  0  7  1 31 29 25 21 14 15
  21798996.122     2089256.91149   1611908.90449  21798995.2604   21799002.8874
  24552501.208     2617819.21249   2031096.49649  24552500.2484   24552510.4044
  22678543.863    -6176846.32349  -4799159.94949  22678544.1514   22678551.3184
  20565639.063    -4660531.28849  -3456561.25549  20565639.0144   20565645.5564
  22246651.383     1572691.98549   1218371.21049  22246650.9344   22246659.1884
  23847317.403    -6779604.78849  -5262490.47349  23847317.6954   23847326.2344
  20711276.434    -5525898.62249  -4289285.32249  20711275.9124   20711283.3394
 96 12 10 17 11 59.9990000  0  6  1 29 25 21 14 15
  21803969.288     2115391.64449   1632273.60449  21803968.4874   21803976.2994
  22657720.233    -6286274.51349  -4884428.65549  22657720.1174   22657729.2724
  20551276.696    -4736005.92449  -3515372.63849  20551276.8874   20551282.9494
  22250709.531     1594017.98549   1234988.80549  22250709.2254   22250717.8024
  23823101.665    -6906859.80849  -5361650.19049  23823101.3904   23823109.1154
  20694267.461    -5615280.98549  -4358933.91949  20694267.0374   20694274.0324
 96 12 10 17 12 29.9990000  0  6  1 29 25 21 14 15
  21808922.273     2141419.81149   1652555.26949  21808921.6584   21808929.4194
  22636897.051    -6395701.08649  -4969696.08849  22636897.5824   22636905.5674
  20536968.447    -4811196.50649  -3573962.68649  20536968.6024   20536974.4994
  22254778.054     1615398.68849   1251649.02849  22254777.6484   22254786.1124
  23798836.338    -7034374.53349  -5461012.33249  23798836.3984   23798843.7564
  20677321.677    -5704331.82149  -4428324.17949  20677321.2984   20677328.6034
 96 12 10 17 12 59.9990000  0  6  1 29 25 21 14 15
  21813852.762     2167329.65849   1672744.73749  21813852.5544   21813859.9344
  22616074.848    -6505124.70849  -5054961.26549  22616076.3964   22616082.3164
  20522718.817    -4886079.47149  -3632313.04049  20522718.7174   20522724.3294
  22258857.343     1636834.99649   1268352.62349  22258857.7934   22258865.8114
  23774524.344    -7162134.49649  -5560565.51349  23774525.0294   23774531.0724
  20660440.972    -5793040.92349  -4497448.15249  20660440.4054   20660447.8454
 96 12 10 17 13 29.9980000  0  6  1 29 25 21 14 15
  21818751.396     2193071.66849   1692803.40949  21818751.5834   21818758.5034
  22595242.647    -6614599.73449  -5140266.44749  22595242.2894   22595250.0464
  20508522.830    -4960680.17349  -3690443.45049  20508522.6754   20508528.3584
  22262939.496     1658285.54249   1285067.29949  22262939.5284   22262947.5634
  23750156.956    -7290186.48149  -5660346.26849  23750156.7894   23750163.7884
  20643616.971    -5881451.68549  -4566339.66849  20643616.7714   20643624.1914
 96 12 10 17 13 59.9980000  0  6  1 29 25 21 14 15
  21823614.894     2218627.87549   1712717.29849  21823615.2664   21823621.6244
  22574398.620    -6724135.73949  -5225619.16749  22574398.7994   22574405.0944
  20494379.772    -5035002.18049  -3748356.68749  20494379.3664   20494385.1514
  22267026.051     1679759.76949   1301800.41049  22267026.0894   22267034.3254
  23725732.939    -7418536.59549  -5760359.32449  23725732.7874   23725741.0314
  20626849.782    -5969564.12649  -4634998.71649  20626849.3794   20626856.4434
 96 12 10 17 14 29.9980000  0  6  1 29 25 21 14 15
  21828456.509     2244069.88849   1732542.22149  21828456.4044   21828462.6364
  22553561.104    -6833637.48549  -5310945.18949  22553560.9154   22553568.6024
  20480306.952    -5108954.80649  -3805982.10149  20480306.5394   20480312.4094
  22271130.466     1701329.09349   1318607.62449  22271130.0384   22271138.2554
  23701271.764    -7547081.31949  -5860524.03849  23701271.2214   23701277.1814
  20610157.012    -6057285.78349  -4703353.25749  20610156.6054   20610163.6694
 96 12 10 17 14 59.9980000  0  6  1 29 25 21 14 15
  21833272.615     2269378.52449   1752263.22249  21833271.9704   21833278.7694
  22532725.801    -6943126.65549  -5396261.38949  22532726.0284   22532732.6524
  20466300.612    -5182558.40649  -3863335.54449  20466300.4454   20466306.0914
  22275245.309     1722952.66749   1335457.10149  22275244.4194   22275253.5844
  23676767.874    -7675850.02449  -5960863.29149  23676768.1644   23676774.8204
  20593534.406    -6144638.37749  -4771420.21349  20593533.6234   20593541.2934
 96 12 10 17 15 29.9980000  0  6  1 29 25 21 14 15
  21838068.938     2294583.23649   1771903.22549  21838068.3504   21838075.2064
  22511896.091    -7052586.75949  -5481554.97449  22511895.8794   22511903.0174
  20452359.366    -5255820.38449  -3920422.80749  20452359.3764   20452364.9064
  22279371.869     1744637.38749   1352354.22749  22279371.3024   22279380.2544
  23652221.959    -7804840.12349  -6061375.02349  23652222.3274   23652228.6334
  20576984.320    -6231609.35049  -4839189.81849  20576984.0304   20576990.9204
 96 12 10 17 15 59.9980000  0  6  1 29 25 21 14 15
  21842840.539     2319657.76249   1791441.78249  21842840.1464   21842847.2344
  22491065.369    -7162052.90149  -5566853.22249  22491065.7294   22491073.1844
  20438473.276    -5328792.43949  -3977284.14449  20438473.0804   20438478.6754
  22283500.361     1766332.66449   1369259.58249  22283499.7144   22283508.3754
  23627627.748    -7934083.66149  -6162084.26449  23627627.1444   23627633.3354
  20560499.906    -6318235.94049  -4906691.05849  20560498.8634   20560506.5114
 96 12 10 17 16 29.9980000  0  6  1 29 25 21 14 15
  21847599.558     2344665.78349   1810928.51249  21847599.2024   21847605.6964
  22470240.713    -7271487.63649  -5652127.01649  22470241.1264   22470248.0724
  20424651.349    -5401426.46549  -4033882.07249  20424650.6994   20424656.2564
  22287637.351     1788071.17649   1386198.62149  22287637.5704   22287645.8394
  23602993.768    -8063536.80849  -6262956.83849  23602991.9994   23602999.2974
  20544089.170    -6404474.36049  -4973889.84349  20544088.3144   20544096.5744
 96 12 10 17 16 59.9980000  0  6  1 29 25 21 14 15
  21852350.618     2369631.49949   1830382.28649  21852350.2534   21852357.2014
  22449423.025    -7380885.08649  -5737371.76849  22449423.1484   22449430.6314
  20410895.918    -5473710.64549  -4090207.40349  20410895.2914   20410901.0734
  22291788.348     1809883.48149   1403195.15849  22291787.9864   22291796.1894
  23578322.114    -8193187.04349  -6363982.97249  23578321.8074   23578327.8594
  20527755.625    -6490306.98649  -5040772.42349  20527755.3814   20527762.4564
 96 12 10 17 17 29.9980000  0  6  1 29 25 21 14 15
  21857084.255     2394507.09649   1849765.83549  21857083.6464   21857090.3334
  22428601.094    -7490305.19249  -5822634.17849  22428601.2124   22428608.8724
  20397197.337    -5545696.71349  -4146300.43349  20397197.3844   20397203.0574
  22295947.738     1831739.95149   1420226.12949  22295947.0374   22295955.1284
  23553605.082    -8323076.75749  -6465195.72549  23553605.0884   23553610.7094
  20511490.464    -6575782.21949  -5107376.50149  20511490.2914   20511496.9194
 96 12 10 17 17 59.9980000  0  6  1 29 25 21 14 15
  21861797.862     2419278.14549   1869067.91549  21861797.2534   21861804.2404
  22407774.925    -7599748.62949  -5907914.75949  22407775.5004   22407781.9174
  20383557.459    -5617374.39349  -4202153.16849  20383557.3674   20383562.7914
  22300117.355     1853651.71549   1437300.18349  22300116.9404   22300124.3864
  23528841.600    -8453210.22149  -6566598.41349  23528841.9024   23528847.4924
  20495293.220    -6660899.97149  -5173702.03649  20495292.7444   20495299.6714
 96 12 10 17 18 29.9980000  0  6  1 29 25 21 14 15
  21866495.078     2443962.66949   1888302.56249  21866494.7914   21866502.2194
  22386952.022    -7709174.53549  -5993181.66849  22386951.4064   22386960.1154
  20369983.687    -5688705.27549  -4257735.66449  20369983.5444   20369989.2584
  22304305.133     1875658.58449   1454448.35249  22304304.5914   22304312.6094
  23504036.956    -8583558.89349  -6668168.76049  23504036.8044   23504042.4464
  20479170.619    -6745624.90849  -5239721.48349  20479169.9964   20479176.7154
 96 12 10 17 18 59.9980000  0  6  1 29 25 21 14 15
  21871161.949     2468487.12349   1907412.49149  21871161.4804   21871169.0474
  22366120.288    -7818645.69249  -6078483.85549  22366120.9274   22366126.8844
  20356463.342    -5759755.05649  -4313099.11849  20356463.0244   20356469.0074
  22308497.993     1897693.10449   1471618.05249  22308497.1294   22308506.0474
  23479179.735    -8714183.30949  -6769953.99849  23479179.9024   23479186.0044
  20463110.016    -6830023.80249  -5305486.87449  20463109.1544   20463116.7444
 96 12 10 17 19 29.9980000  0  6  1 29 25 21 14 15
  21875805.133     2492886.35749   1926424.83249  21875805.0254   21875812.6814
  22345288.941    -7928114.96449  -6163784.57749  22345288.4094   22345295.3044
  20343004.057    -5830483.74449  -4368212.38549  20343003.8124   20343010.5014
  22312700.612     1919777.90249   1488826.95049  22312700.1294   22312709.3014
  23454278.611    -8845038.97149  -6871919.43049  23454278.3014   23454286.4004
  20447117.993    -6914061.87149  -5370971.10149  20447117.5654   20447125.0754
 96 12 10 17 19 59.9980000  0  6  1 29 25 21 14 15
  21880417.852     2517126.04749   1945312.86249  21880417.9324   21880424.9844
  22324455.211    -8037597.25649  -6249095.44449  22324455.6214   22324461.9214
  20329602.214    -5900910.70449  -4423090.52549  20329602.0694   20329608.7724
  22316907.487     1941884.65549   1506052.96049  22316907.1174   22316915.5964
  23429329.300    -8976147.46749  -6974081.88249  23429328.1644   23429336.1404
  20431190.288    -6997762.76049  -5436192.57849  20431189.9224   20431197.1194
 96 12 10 17 20 29.9980000  0  6  1 29 25 21 14 15
  21885014.283     2541280.42249   1964134.42749  21885013.9904   21885021.5614
  22303630.371    -8147032.43549  -6334369.59549  22303629.9984   22303637.1134
  20316270.748    -5970968.12049  -4477680.70649  20316271.0484   20316277.6394
  22321128.954     1964067.73549   1523338.42749  22321129.2444   22321137.3034
  23404346.746    -9107431.38749  -7076381.03149  23404346.5184   23404353.9284
  20415339.985    -7081056.87549  -5501097.09949  20415339.7444   20415346.5694
 96 12 10 17 20 59.9980000  0  6  1 29 25 21 14 15
  21889596.524     2565360.14349   1982897.80049  21889596.1984   21889603.8104
  22282815.021    -8256417.73049  -6419604.88449  22282815.3184   22282822.3144
  20303010.493    -6040651.87049  -4531979.71349  20303010.6584   20303017.3354
  22325365.723     1986331.55649   1540686.77349  22325365.2514   22325374.7074
  23379334.679    -9238870.12949  -7178800.83849  23379335.0734   23379342.0734
  20399569.371    -7163932.38249  -5565675.43049  20399568.3834   20399575.6584
 96 12 10 17 21 29.9980000  0  6  1 29 25 21 14 15
  21894159.219     2589336.40849   2001580.55649  21894158.5594   21894166.3244
  22262005.977    -8365770.19649  -6504814.60549  22262006.7234   22262013.1704
  20289817.929    -6109979.99749  -4586001.62249  20289818.0514   20289824.7664
  22329615.025     2008661.78649   1558086.85249  22329614.6594   22329623.8824
  23354287.498    -9370493.57649  -7281364.57149  23354285.9144   23354294.2374
  20383874.456    -7246409.49249  -5629943.32649  20383873.4984   20383881.0134
 96 12 10 17 21 59.9980000  0  6  1 29 25 21 14 15
  21898704.224     2613220.52449   2020191.51549  21898704.0434   21898711.2594
  22241206.090    -8475074.97749  -6589987.16149  22241205.7744   22241212.8604
  20276698.635    -6178922.75949  -4639723.24549  20276698.5944   20276705.0814
  22333879.944     2031074.23449   1575551.04149  22333878.3384   22333888.6734
  23329207.711    -9502288.15549  -7384061.63549  23329207.8554   23329214.8434
  20368260.317    -7328461.50449  -5693879.97449  20368259.6474   20368267.2014
 96 12 10 17 22 29.9980000  0  6  1 29 25 21 14 15
  21903228.889     2636997.33449   2038718.86349  21903228.4504   21903235.4614
  22220413.879    -8584338.52149  -6675127.58249  22220413.8784   22220420.1934
  20263650.012    -6247493.70349  -4693155.14549  20263650.0074   20263656.5004
  22338155.397     2053542.81349   1593058.94149  22338154.8474   22338163.7604
  23304094.781    -9634256.93849  -7486894.44549  23304094.4214   23304101.7874
  20352725.699    -7410096.30349  -5757491.52549  20352725.4214   20352732.8074
 96 12 10 17 22 59.9980000  0  6  1 29 25 21 14 15
  21907730.559     2660652.92049   2057151.74949  21907730.2544   21907736.5184
  22199629.836    -8693558.55149  -6760234.09049  22199629.9264   22199636.6004
  20250672.145    -6315692.40549  -4746296.98349  20250672.2614   20250679.0694
  22342442.447     2076070.97849   1610613.29949  22342442.3894   22342451.1564
  23278946.772    -9766410.69349  -7589871.37349  23278947.3504   23278953.7274
  20337270.009    -7491317.68149  -5820780.92849  20337269.7114   20337276.4134
 96 12 10 17 23 29.9980000  0  6  1 29 25 21 14 15
  21912209.161     2684187.70049   2075490.49549  21912208.6144   21912215.7744
  22178854.784    -8802732.26449  -6845304.49149  22178854.2794   22178862.2594
  20237767.972    -6383504.52749  -4799137.58249  20237767.8154   20237774.4694
  22346743.245     2098671.55249   1628224.05349  22346742.6124   22346750.5114
  23253761.391    -9898761.85249  -7693002.14549  23253761.2464   23253768.8684
  20321894.703    -7572115.68249  -5883740.40549  20321893.9264   20321901.1984
 96 12 10 17 23 59.9980000  0  6  1 29 25 21 14 15
  21916665.166     2707604.67549   2093737.46049  21916664.8194   21916671.9784
  22158087.752    -8911862.91949  -6930341.33849  22158087.8954   22158095.1264
  20224935.719    -6450938.56949  -4851683.58749  20224936.0684   20224942.4724
  22351057.519     2121342.15049   1645889.38649  22351057.2554   22351064.8784
  23228540.957   -10031296.34349  -7796275.75749  23228541.3254   23228547.6484
  20306601.849    -7652479.90049  -5946361.87249  20306601.2424   20306608.6384
 96 12 10 17 24 29.9980000  0  6  1 29 25 21 14 15
  21921099.383     2730906.19549   2111894.44749  21921098.6594   21921106.3244
  22137329.922    -9020946.23649  -7015341.30449  22137328.8864   22137337.2594
  20212173.406    -6518005.26949  -4903943.35549  20212173.5434   20212179.6254
  22355388.917     2144102.67349   1663624.76549  22355387.8774   22355396.3034
  23203284.708   -10164020.03949  -7899696.80549  23203285.2804   23203292.2344
  20291391.367    -7732411.61549  -6008646.33749  20291391.0624   20291398.1794
 96 12 10 17 24 59.9980000  0  6  1 29 25 21 14 15
  21925514.919     2754110.29149   2129975.52149  21925514.9924   21925521.9354
  22116578.990    -9129992.73349  -7100312.60049  22116578.7214   22116585.7734
  20199480.828    -6584705.67249  -4955917.70249  20199480.9904   20199487.4474
  22359741.976     2166979.05649   1681450.43749  22359741.0734   22359751.6194
  23177989.818   -10296946.33749  -8003275.73849  23177990.8614   23177994.9574
  20276263.842    -7811907.49949  -6070591.18349  20276262.7854   20276270.5524
 96 12 10 17 25 29.9980000  0  6  1 29 25 21 14 15
  21929905.769     2777183.96249   2147954.97349  21929905.5724   21929913.5174
  22095826.648    -9239046.04749  -7185289.18249  22095826.7574   22095833.2684
  20186845.993    -6651102.53249  -5007655.52049  20186845.9974   20186852.3714
  22364106.605     2189916.14349   1699323.42749  22364105.9924   22364114.7914
  23152647.511   -10430120.60249  -8107047.88249  23152648.2354   23152654.1484
  20261210.388    -7891013.13049  -6132231.94249  20261210.2364   20261216.7964
 96 12 10 17 25 59.9980000  0  6  1 29 25 21 14 15
  21934266.359     2800098.85249   2165810.69749  21934266.0244   21934273.0244
  22075067.533    -9348136.47449  -7270294.68549  22075067.6294   22075074.5304
  20174261.084    -6717236.73449  -5059188.66849  20174261.0104   20174267.7364
  22368475.828     2212877.35349   1717215.21549  22368475.4674   22368483.0984
  23127254.727   -10563560.71849  -8211027.16849  23127254.6154   23127260.5804
  20246223.786    -7969769.28949  -6193600.36949  20246223.1914   20246231.0324
 96 12 10 17 26 29.9980000  0  6  1 29 25 21 14 15
  21938601.084     2822877.79949   2183560.49649  21938600.3034   21938607.9584
  22054304.324    -9457247.63149  -7355316.35549  22054304.5734   22054310.6984
  20161729.801    -6783089.11649  -5110502.22449  20161729.7754   20161736.4014
  22372852.560     2235877.82049   1735137.57749  22372852.2274   22372861.7004
  23101813.777   -10697254.95149  -8315204.45749  23101812.6984   23101820.8624
  20231305.943    -8048162.98549  -6254686.37449  20231305.7584   20231312.9854
 96 12 10 17 26 59.9980000  0  6  1 29 25 21 14 15
  21942918.360     2845566.56249   2201240.01049  21942917.5844   21942925.9664
  22033543.041    -9566348.69249  -7440330.15349  22033542.3564   22033549.9284
  20149260.130    -6848617.71149  -5161563.47249  20149260.1474   20149266.6714
  22377241.496     2258941.12949   1753108.90949  22377241.4284   22377250.4034
  23076336.098   -10831140.54849  -8419530.87549  23076335.8854   23076344.0154
  20216466.348    -8126146.64749  -6315452.87449  20216466.0624   20216472.3624
 96 12 10 17 27 29.9980000  0  6  1 29 25 21 14 15
  21947226.237     2868204.84049   2218880.19149  21947225.6024   21947233.3324
  22012796.540    -9675371.69549  -7525283.13949  22012796.3884   22012803.0674
  20136864.162    -6913759.01449  -5212322.93849  20136863.4304   20136870.3294
  22381650.618     2282109.66649   1771162.23549  22381650.4164   22381660.2844
  23050836.114   -10965142.82449  -8523948.22449  23050835.2394   23050842.8704
  20201715.308    -8203664.42849  -6375856.34349  20201714.5344   20201721.4654
 96 12 10 17 27 59.9980000  0  6  1 29 25 21 14 15
  21951522.502     2890781.36249   2236472.23749  21951521.9584   21951529.7404
  21992063.848    -9784322.23749  -7610179.62949  21992063.3714   21992070.5654
  20124544.405    -6978499.05849  -5262769.73149  20124544.1784   20124551.1424
  22386081.230     2305392.07649   1789304.32649  22386080.8694   22386088.8114
  23025315.925   -11099252.15949  -8628449.00049  23025315.8564   23025322.3004
  20187053.661    -8280711.44049  -6435892.97749  20187052.5544   20187060.0244
 96 12 10 17 28 29.9980000  0  6  1 29 25 21 14 15
  21955808.561     2913303.39949   2254021.84149  21955807.9704   21955815.3974
  21971345.923    -9893195.48549  -7695015.92549  21971345.9744   21971353.1934
  20112303.275    -7042826.50749  -5312895.02549  20112303.2024   20112309.3554
  22390533.810     2328789.67149   1807536.15649  22390533.1164   22390540.4294
  22999773.110   -11233479.98949  -8733042.12249  22999771.3504   22999779.8914
  20172483.858    -8357275.85449  -6495553.56549  20172483.1804   20172490.9434
 96 12 10 17 28 59.9980000  0  6  1 29 25 21 14 15
  21960089.112     2935798.42349   2271550.40149  21960088.5274   21960096.6104
  21950648.376   -10001962.06149  -7779769.10149  21950649.0524   21950655.7754
  20100148.245    -7106701.94849  -5362668.10649  20100147.9074   20100154.8374
  22395015.484     2352341.27949   1825887.97649  22395015.2244   22395024.2754
  22974214.307   -11367792.51749  -8837701.21549  22974214.0734   22974221.8964
  20158011.286    -8433329.84849  -6554816.42449  20158010.5504   20158018.6104
 96 12 10 17 29 29.9980000  0  6  1 29 25 21 14 15
  21964353.617     2958209.60249   2289013.62149  21964352.9554   21964360.8254
  21929961.709   -10110671.83049  -7864478.00349  21929962.0834   21929968.3824
  20088068.863    -7170179.21749  -5412130.92849  20088068.5804   20088075.3124
  22399516.936     2375996.12049   1844320.24149  22399515.6784   22399526.4674
  22948626.316   -11502259.03549  -8942480.30749  22948626.9364   22948634.2604
  20143624.238    -8508933.59849  -6613728.44149  20143623.8694   20143631.4014
 96 12 10 17 29 59.9970000  0  6  1 29 25 21 14 15
  21968597.020     2980509.78849   2306390.34549  21968596.3674   21968604.7204
  21909278.315   -10219364.48849  -7949173.56149  21909278.0524   21909284.3984
  20076060.319    -7233283.81449  -5461303.34549  20076059.7034   20076067.2624
  22404030.390     2399714.62449   1862802.09749  22404030.1034   22404038.5424
  22923001.470   -11636918.54149  -9047409.79949  22923000.8874   22923008.3654
  20129317.964    -8584113.87449  -6672310.47449  20129317.3544   20129324.7694
 96 12 10 17 30 29.9970000  0  6  1 29 25 21 14 15
  21972820.556     3002704.78849   2323685.11549  21972820.9834   21972827.9884
  21888597.274   -10328044.29349  -8033859.12849  21888597.1694   21888604.0054
  20064121.988    -7296019.29049  -5510188.14349  20064121.5184   20064128.4054
  22408556.689     2423500.75749   1881336.66249  22408555.9804   22408565.3764
  22897339.321   -11771773.64249  -9152491.69749  22897338.6224   22897345.5864
  20115091.739    -8658872.95949  -6730564.32549  20115091.1824   20115098.6274
 96 12 10 17 30 59.9970000  0  6  1 29 25 21 14 15
  21977025.458     3024800.46849   2340902.49949  21977025.6324   21977032.0674
  21867922.016   -10436693.23549  -8118520.63349  21867921.2034   21867928.8914
  20052257.273    -7358367.66849  -5558771.30449  20052256.8114   20052264.0664
  22413097.167     2447361.84549   1899929.65849  22413097.4464   22413107.3414
  22871647.796   -11906783.55049  -9257694.22349  22871647.9084   22871654.6674
  20100949.553    -8733190.86349  -6788474.38049  20100948.9534   20100956.2204
 96 12 10 17 31 29.9970000  0  6  1 29 25 21 14 15
  21981208.992     3046784.77549   2358033.10649  21981208.5464   21981216.1714
  21847255.437   -10545295.69349  -8203145.92549  21847255.5504   21847262.4964
  20040466.648    -7420327.29749  -5607051.53549  20040466.6944   20040473.2864
  22417651.303     2471293.42549   1918577.55249  22417650.3944   22417661.8824
  22845925.883   -12041952.66449  -9363020.78649  22845925.0854   22845932.4334
  20086893.502    -8807056.05649  -6846031.68149  20086893.1534   20086899.9664
 96 12 10 17 31 59.9970000  0  6  1 29 25 21 14 15
  21985369.874     3068650.21749   2375071.08749  21985369.3954   21985376.9254
  21826600.899   -10653835.23149  -8287722.17149  21826601.2884   21826607.6994
  20028749.975    -7481899.00949  -5655029.50849  20028750.1454   20028756.5384
  22422219.507     2495298.89349   1937283.01949  22422218.6314   22422228.7834
  22820175.432   -12177271.73149  -9468464.20049  22820175.0124   22820182.0474
  20072924.892    -8880462.01449  -6903231.13149  20072924.2344   20072931.4274
 96 12 10 17 32 29.9970000  0  6  1 29 25 21 14 15
  21989506.776     3090389.77749   2392010.99549  21989506.3824   21989513.5084
  21805959.529   -10762307.66349  -8372246.15249  21805959.8284   21805966.0184
  20017106.304    -7543087.76449  -5702709.05249  20017106.4764   20017112.5974
  22426804.330     2519391.62749   1956056.50549  22426804.4664   22426812.9734
  22794398.660   -12312729.68549  -9574015.86649  22794399.0364   22794406.3574
  20059044.309    -8953404.72949  -6960069.61649  20059043.4534   20059050.8634
 96 12 10 17 32 59.9970000  0  6  1 29 25 21 14 15
  21993618.432     3111995.89449   2408846.91149  21993618.1554   21993624.9564
  21785332.371   -10870704.17149  -8456710.95249  21785332.7284   21785339.2204
  20005534.792    -7603897.00749  -5750092.86549  20005535.0264   20005541.3154
  22431407.788     2543581.99649   1974906.06549  22431407.6304   22431416.8814
  22768594.520   -12448331.69349  -9679679.75949  22768594.8504   22768602.5244
  20045252.217    -9025882.07649  -7016545.48649  20045251.4114   20045259.3994
 96 12 10 17 33 29.9970000  0  6  1 29 25 21 14 15
  21997703.598     3133462.85149   2425574.39049  21997703.3374   21997710.6204
  21764718.086   -10979033.48849  -8541123.39849  21764717.9794   21764723.8224
  19994033.382    -7664337.53749  -5797189.36349  19994032.6194   19994039.2384
  22436032.610     2567885.71749   1993843.94749  22436031.4494   22436041.4804
  22742760.425   -12584090.88649  -9785466.12549  22742759.9954   22742768.2254
  20031547.061    -9097902.99249  -7072665.68149  20031545.9794   20031554.2864
 96 12 10 17 33 59.9970000  0  6  1 29 25 21 14 15
  22001766.406     3154812.73449   2442210.64049  22001766.0344   22001773.3074
  21744112.668   -11087314.76949  -8625498.39749  21744112.4644   21744119.7664
  19982603.148    -7724402.65649  -5843993.34149  19982602.6124   19982609.6084
  22440680.517     2592311.24249   2012876.74449  22440681.1104   22440690.0324
  22716899.225   -12719993.16349  -9891363.99149  22716899.8374   22716907.6434
  20017928.867    -9169466.66749  -7128429.58349  20017928.3274   20017936.0384
 96 12 10 17 34 29.9970000  0  6  1 29 25 21 14 15
  22005808.551     3176054.24249   2458762.44249  22005807.7464   22005815.4244
  21723513.995   -11195561.58049  -8709846.54749  21723514.4444   21723520.4304
  19971246.855    -7784079.32449  -5890494.65149  19971247.0734   19971253.1624
  22445353.160     2616864.90349   2032009.37449  22445354.1254   22445362.1784
  22691009.106   -12856047.76149  -9997380.57549  22691009.1014   22691015.7564
  20004398.345    -9240570.07849  -7183834.84549  20004397.7944   20004405.7084
 96 12 10 17 34 59.9970000  0  6  1 29 25 21 14 15
  22009832.284     3197199.69449   2475239.40049  22009832.1604   22009839.4034
  21702924.396   -11303760.99049  -8794157.77149  21702924.5784   21702931.3694
  19959965.799    -7843362.30849  -5936689.17749  19959965.9434   19959972.3904
  22450050.050     2641546.80649   2051241.94749  22450050.1044   22450059.6674
  22665089.063   -12992258.56549 -10103518.84549  22665088.8364   22665096.6384
  19990955.652    -9311211.67949  -7238880.23749  19990954.7404   19990962.6064
 96 12 10 17 35 29.9970000  0  6  1 29 25 21 14 15
  22013839.750     3218259.34649   2491649.50449  22013839.3364   22013847.0934
  21682341.758   -11411923.60549  -8878440.32949  21682341.3374   21682349.0484
  19948761.444    -7902242.06549  -5982569.49249  19948761.3804   19948768.0274
  22454765.376     2666324.67149   2070549.30249  22454765.8694   22454775.8754
  22639138.498   -13128629.76649 -10209782.10649  22639139.0404   22639144.0374
  19977600.798    -9381391.69049  -7293565.96949  19977599.9154   19977607.9734
 96 12 10 17 35 59.9970000  0  6  1 29 25 21 14 15
  22017832.737     3239242.02849   2507999.62149  22017832.5424   22017840.2014
  21661767.578   -11520041.33349  -8962687.90449  21661767.3904   21661773.9544
  19937635.307    -7960710.59949  -6028129.39349  19937635.7224   19937641.5514
  22459495.032     2691179.44549   2089916.53849  22459494.9754   22459503.0734
  22613157.947   -13265157.91649 -10316167.66049  22613156.7174   22613165.3044
  19964335.947    -9451098.87549  -7347883.26949  19964335.5984   19964343.3534
 96 12 10 17 36 29.9970000  0  6  1 29 25 21 14 15
  22021810.300     3260144.44549   2524287.19749  22021809.3194   22021817.6214
  21641205.843   -11628093.46949  -9046884.37949  21641205.6454   21641212.3814
  19926585.322    -8018779.48049  -6073377.85549  19926585.5224   19926591.0934
  22464239.589     2716112.92149   2109345.15849  22464239.7904   22464248.9684
  22587146.663   -13401846.47149 -10422678.19549  22587146.0044   22587153.8354
  19951162.643    -9520325.24949  -7401825.91749  19951162.3284   19951169.5644
 96 12 10 17 36 59.9970000  0  6  1 29 25 21 14 15
  22025773.374     3280970.70649   2540515.41949  22025772.4554   22025781.0134
  21620656.987   -11736078.27249  -9131028.37349  21620657.0614   21620663.9084
  19915610.656    -8076452.21749  -6118317.64349  19915611.0494   19915616.9194
  22468999.436     2741125.27149   2128835.22149  22468999.5054   22469008.3924
  22561107.592   -13538682.05849 -10529303.30049  22561107.7104   22561114.5414
  19938081.388    -9589067.78549  -7455391.52949  19938081.2444   19938088.4304
 96 12 10 17 37 29.9970000  0  6  1 29 25 21 14 15
  22029721.631     3301718.87349   2556682.79249  22029720.4224   22029728.6754
  21600120.333   -11843999.70349  -9215122.98949  21600120.0184   21600126.4084
  19904712.195    -8133724.84049  -6162945.64149  19904711.8554   19904718.3654
  22473776.179     2766227.36749   2148395.21649  22473775.4394   22473783.8844
  22535042.425   -13675655.60149 -10636035.92149  22535042.5254   22535049.5384
  19925093.769    -9657318.94749  -7508574.26349  19925093.2754   19925100.9984
 96 12 10 17 37 59.9970000  0  6  1 29 25 21 14 15
  22033652.718     3322377.61549   2572780.46249  22033652.1404   22033660.5344
  21579597.553   -11951847.46149  -9299160.20249  21579597.2764   21579605.0214
  19893888.979    -8190600.98649  -6207264.70749  19893889.1074   19893895.2794
  22478575.658     2791448.60249   2168048.06749  22478575.2664   22478583.7644
  22508954.036   -13812749.67649 -10742862.44349  22508954.1654   22508962.8584
  19912200.061    -9725075.73949  -7561371.76449  19912199.6514   19912207.4734
 96 12 10 17 38 29.9970000  0  6  1 29 25 21 14 15
  22037565.618     3342940.86249   2588803.73249  22037565.8714   22037573.6374
  21559089.715   -12059616.80749  -9383136.30449  21559089.6134   21559095.3864
  19883141.823    -8247078.25849  -6251272.97349  19883141.8174   19883147.8284
  22483402.010     2816809.85149   2187810.01649  22483401.4754   22483409.9114
  22482845.170   -13949953.10949 -10849774.21449  22482844.8504   22482853.5064
  19899399.925    -9792341.03049  -7613786.28649  19899399.5324   19899407.5674
 96 12 10 17 38 59.9970000  0  6  1 29 25 21 14 15
  22041459.882     3363405.19349   2604749.91949  22041459.6654   22041468.6134
  21538595.908   -12167312.97749  -9467055.39049  21538595.9504   21538601.7134
  19872473.236    -8303142.25949  -6294959.20449  19872473.1334   19872479.5734
  22488255.125     2842313.20449   2207682.70149  22488254.5754   22488262.6594
  22456718.740   -14087248.67549 -10956757.74249  22456719.5274   22456726.7594
  19886692.712    -9859118.18649  -7665820.43349  19886692.4694   19886699.9944
 96 12 10 17 39 29.9970000  0  6  1 29 25 21 14 15
  22045333.708     3383762.14649   2620612.42449  22045333.8534   22045342.6194
  21518115.924   -12274936.10749  -9550917.55349  21518116.1384   21518122.9534
  19861881.224    -8358804.02249  -6338332.00949  19861880.9264   19861887.7654
  22493133.046     2867948.18449   2227657.94149  22493131.7194   22493143.1234
  22430575.528   -14224633.07649 -11063810.51249  22430575.1964   22430583.8864
  19874077.948    -9925409.81649  -7717476.25149  19874077.2634   19874085.1364
 96 12 10 17 39 59.9970000  0  6  1 29 25 21 14 15
  22049189.982     3404027.00849   2636403.18749  22049190.2334   22049198.2634
  21497651.472   -12382478.30249  -9634716.66549  21497651.6454   21497658.3134
  19851366.162    -8414060.80749  -6381389.23249  19851366.1554   19851372.4634
  22498033.980     2893702.64049   2247726.31149  22498032.7564   22498044.3604
  22404417.693   -14362094.21149 -11170923.11049  22404416.8354   22404426.3154
  19861557.402    -9991205.82149  -7768745.88049  19861556.4314   19861564.4454
 96 12 10 17 40 29.9970000  0  6  1 29 25 21 14 15
  22053030.559     3424209.14149   2652129.47649  22053030.7254   22053038.9434
  21477202.125   -12489940.57149  -9718453.47149  21477202.8324   21477209.4064
  19840929.020    -8468908.33449  -6424127.56649  19840929.2414   19840935.3594
  22502956.208     2919570.10949   2267882.68349  22502955.2284   22502966.6554
  22378242.763   -14499643.85349 -11278104.63849  22378242.7654   22378250.5014
  19849131.944   -10056501.78349  -7819625.85249  19849131.4124   19849139.0534
 96 12 10 17 40 59.9970000  0  6  1 29 25 21 14 15
  22056854.141     3444301.49049   2667785.81249  22056854.4274   22056862.6884
  21456764.829   -12597340.35249  -9802141.62149  21456764.7814   21456771.1674
  19830569.103    -8523350.36449  -6466549.93049  19830568.8034   19830575.4284
  22507895.687     2945527.29449   2288108.99949  22507896.9174   22507906.1694
  22352049.271   -14637291.14049 -11385362.30749  22352049.6584   22352057.0584
  19836800.960   -10121301.59749  -7870119.23749  19836800.5294   19836808.5894
 96 12 10 17 41 29.9970000  0  6  1 29 25 21 14 15
  22060659.567     3464298.13249   2683367.55849  22060659.2134   22060667.1334
  21436340.246   -12704672.21349  -9885776.80049  21436339.8614   21436346.6374
  19820287.431    -8577380.45649  -6508651.31149  19820287.2114   19820294.0864
  22512850.527     2971564.19449   2308397.40249  22512850.0584   22512860.0194
  22325836.149   -14775041.73449 -11492700.42249  22325836.1654   22325844.9254
  19824565.197   -10185601.58249  -7920223.12149  19824564.4404   19824571.7114
 96 12 10 17 41 59.9970000  0  6  1 29 25 21 14 15
  22064447.696     3484204.43449   2698878.91649  22064447.2414   22064456.1104
  21415930.740   -12811924.04349  -9969349.66949  21415930.4104   21415937.3234
  19810086.126    -8630988.13549  -6550423.51349  19810085.9634   19810092.9964
  22517821.788     2997689.80449   2328754.95949  22517821.4574   22517831.1694
  22299603.177   -14912896.68249 -11600119.88249  22299603.2764   22299609.2864
  19812425.058   -10249398.52249  -7969935.02649  19812424.1344   19812431.8244
 96 12 10 17 42 29.9970000  0  6  1 29 25 21 14 15
  22068219.333     3504025.30749   2714323.69549  22068219.2304   22068228.5374
  21395538.707   -12919084.14049 -10052851.02349  21395538.2874   21395545.6464
  19799967.996    -8684158.86549  -6591855.24649  19799967.3384   19799975.3094
  22522816.104     3023934.68249   2349205.42149  22522816.3594   22522826.2804
  22273353.678   -15050838.59149 -11707607.06949  22273353.8984   22273361.5884
  19800383.059   -10312679.31649  -8019244.75249  19800382.6404   19800389.8944
 96 12 10 17 42 59.9970000  0  6  1 29 25 21 14 15
  22071975.102     3523761.27949   2729702.33349  22071974.6104   22071984.0394
  21375167.336   -13026136.06449 -10136268.11449  21375167.1804   21375173.3614
  19789934.501    -8736884.80449  -6632940.39149  19789934.4834   19789941.2714
  22527834.660     3050305.73749   2369754.22949  22527835.5744   22527844.6104
  22247092.023   -15188843.36549 -11815143.23949  22247092.1094   22247099.8994
  19788440.972   -10375435.64949  -8068145.80349  19788440.1084   19788448.3754
 96 12 10 17 43 29.9970000  0  6  1 29 25 21 14 15
  22075717.441     3543427.02749   2745026.24849  22075716.5594   22075726.1074
  21354820.201   -13133061.11249 -10219586.33449  21354819.9664   21354826.6404
  19779983.967    -8789175.54249  -6673686.42149  19779983.6824   19779990.8864
  22532878.758     3076812.79449   2390408.97949  22532877.5134   22532888.2374
  22220820.424   -15326900.89149 -11922720.52449  22220820.2164   22220827.9444
  19776600.410   -10437657.81949  -8116630.62149  19776599.4754   19776607.8314
 96 12 10 17 43 59.9970000  0  6  1 29 25 21 14 15
  22079448.121     3563032.45549   2760303.16449  22079447.8364   22079457.1644
  21334496.224   -13239863.91149 -10302809.28349  21334496.0464   21334502.8474
  19770113.571    -8841045.07049  -6714104.24249  19770113.6154   19770120.2944
  22537950.613     3103466.09349   2411177.70049  22537950.6914   22537960.8434
  22194537.001   -15465021.01049 -12030346.57549  22194537.3814   22194545.1944
  19764861.789   -10499344.31849  -8164698.02549  19764861.7914   19764869.3084
 96 12 10 17 44 29.9960000  0  6  1 29 25 21 14 15
  22083166.773     3582573.72149   2775530.08349  22083167.0624   22083175.3364
  21314196.015   -13346541.36249 -10385934.57949  21314195.5994   21314202.3204
  19760325.518    -8892481.49749  -6754184.56749  19760325.3614   19760332.4944
  22543050.504     3130264.59249   2432059.60849  22543050.9114   22543060.7904
  22168243.125   -15603197.75749 -12138016.77149  22168243.6944   22168250.4644
  19753226.558   -10560488.45349  -8212342.82249  19753225.7364   19753234.1914
 96 12 10 17 44 59.9960000  0  6  1 29 25 21 14 15
  22086875.486     3602062.17549   2790715.86849  22086875.9744   22086884.1034
  21293919.049   -13453097.10249 -10468965.00549  21293919.0774   21293925.2964
  19750622.218    -8943472.17949  -6793917.58249  19750621.1694   19750629.0134
  22548178.230     3157209.76249   2453055.70449  22548179.0404   22548189.1934
  22141934.429   -15741451.79049 -12245747.13349  22141934.6284   22141942.4594
  19741693.673   -10621093.48849  -8259567.53249  19741692.9904   19741700.7784
 96 12 10 17 45 29.9960000  0  6  1 29 25 21 14 15
  22090575.512     3621503.97849   2805865.27249  22090576.0124   22090583.4904
  21273663.541   -13559540.47549 -10551907.89349  21273663.2694   21273670.7704
  19741004.724    -8994011.74049  -6833299.05649  19741004.3674   19741011.6984
  22553334.517     3184303.58949   2474167.73749  22553334.9014   22553344.6804
  22115609.737   -15879789.24149 -12353542.58049  22115609.5224   22115617.4294
  19730264.112   -10681156.43349  -8306369.83849  19730263.6134   19730270.9724
 96 12 10 17 45 59.9960000  0  6  1 29 25 21 14 15
  22094267.219     3640902.68949   2820981.09049  22094267.2974   22094275.4304
  21253427.602   -13665880.87249 -10634770.53249  21253428.0584   21253434.4964
  19731477.963    -9044074.32049  -6872308.86049  19731478.1024   19731484.8524
  22558521.990     3211561.98849   2495407.93049  22558522.7204   22558531.2044
  22089270.245   -16018204.54849 -12461398.64649  22089269.1274   22089278.4234
  19718938.404   -10740673.46449  -8352746.75849  19718937.7534   19718945.9014
 96 12 10 17 46 29.9960000  0  6  1 29 25 21 14 15
  22097949.481     3660253.37749   2836059.48949  22097949.4084   22097957.3604
  21233209.677   -13772126.86249 -10717559.60249  21233209.8754   21233216.1944
  19722045.431    -9093643.07049  -6910933.84749  19722044.8924   19722052.7084
  22563740.911     3238986.28549   2516777.42149  22563740.9374   22563750.4594
  22062920.580   -16156672.30049 -12569295.56549  22062920.4584   22062929.1444
  19707717.459   -10799640.25949  -8398694.90949  19707717.0914   19707724.8174
 96 12 10 17 46 59.9960000  0  6  1 29 25 21 14 15
  22101624.423     3679564.72549   2851107.24349  22101625.1934   22101632.6084
  21213007.695   -13878289.10549 -10800283.42649  21213008.1204   21213014.0844
  19712703.526    -9142734.54949  -6949186.94949  19712703.1504   19712710.4664
  22568991.516     3266578.34149   2538277.60349  22568990.7834   22569000.9624
  22036564.587   -16295173.37249 -12677218.45749  22036564.8944   22036573.0014
  19696602.352   -10858050.64249  -8444209.50049  19696601.8364   19696609.8674
 96 12 10 17 47 29.9960000  0  6  1 29 25 21 14 15
  22105292.548     3698839.80549   2866126.74049  22105291.5054   22105300.5574
  21192823.513   -13984358.75549 -10882935.10049  21192823.3344   21192828.8994
  19703449.838    -9191362.22049  -6987078.62449  19703450.1154   19703457.0814
  22574275.101     3294343.37149   2559912.63049  22574275.1054   22574283.4304
  22010208.923   -16433673.20749 -12785140.38649  22010208.9394   22010216.6924
  19685595.116   -10915894.07749  -8489282.32849  19685595.0164   19685603.0074
 96 12 10 17 47 59.9960000  0  6  1 29 25 21 14 15
  22108951.112     3718066.43349   2881108.47049  22108950.7724   22108959.0334
  21172657.242   -14090333.31049 -10965512.66749  21172657.8244   21172663.7964
  19694281.030    -9239545.36649  -7024623.94449  19694281.0834   19694287.7994
  22579589.452     3322271.30049   2581674.55849  22579588.9864   22579598.6644
  21983853.077   -16572174.90849 -12893063.76549  21983852.3264   21983860.5424
  19674693.988   -10973180.37249  -8533921.00549  19674693.2134   19674701.8254
 96 12 10 17 48 29.9960000  0  6  1 29 25 21 14 15
  22112598.162     3737232.38849   2896042.93949  22112597.2374   22112605.8834
  21152511.459   -14196200.13449 -11048006.27649  21152511.7714   21152517.8634
  19685192.057    -9287309.32549  -7061842.61649  19685192.3054   19685199.2634
  22584932.666     3350349.65449   2603553.72549  22584932.9364   22584942.8804
  21957494.564   -16710689.96149 -13000997.57149  21957494.6034   21957501.7734
  19663897.812   -11029914.30149  -8578129.28149  19663897.5074   19663904.9704
 96 12 10 17 48 59.9960000  0  6  1 29 25 21 14 15
  22116239.220     3756367.41949   2910953.28949  22116238.3374   22116247.5994
  21132394.932   -14301913.36249 -11130380.20949  21132394.8874   21132401.6244
  19676184.639    -9334643.73849  -7098726.57349  19676184.5014   19676191.1874
  22590310.221     3378608.71449   2625573.67849  22590309.0244   22590319.8934
  21931135.663   -16849206.61149 -13108932.60449  21931135.6514   21931142.3474
  19653210.765   -11086075.25449  -8621891.06849  19653210.3264   19653217.6094
 96 12 10 17 49 29.9960000  0  6  1 29 25 21 14 15
  22119874.760     3775471.74349   2925839.73849  22119874.4004   22119882.3444
  21112311.679   -14407451.29849 -11212617.54149  21112311.5514   21112318.7724
  19667263.477    -9381524.00849  -7135256.66249  19667262.7974   19667270.8474
  22595722.538     3407051.89649   2647737.10649  22595722.1974   22595732.9014
  21904772.813   -16987743.25349 -13216883.22949  21904772.1724   21904780.2564
  19642633.316   -11141659.94049  -8665203.82349  19642633.1084   19642640.4644
 96 12 10 17 49 59.9960000  0  6  1 29 25 21 14 15
  22123502.203     3794533.65949   2940693.13149  22123501.7384   22123510.8394
  21092259.624   -14512825.07649 -11294726.96449  21092259.3634   21092267.0774
  19658429.362    -9427947.55249  -7171430.86049  19658429.8024   19658436.2444
  22601167.663     3435665.01649   2670032.97349  22601167.5074   22601177.1994
  21878400.566   -17126329.53349 -13324872.54249  21878398.7104   21878407.3444
  19632163.156   -11196681.24949  -8708077.57949  19632162.3474   19632170.7814
 96 12 10 17 50 29.9960000  0  6  1 29 25 21 14 15
  22127117.699     3813532.19849   2955497.12349  22127117.5954   22127126.2664
  21072234.701   -14618056.42349 -11376725.39449  21072234.6954   21072242.1794
  19649681.528    -9473918.14349  -7207252.11049  19649681.7984   19649688.4284
  22606642.227     3464433.64649   2692450.00749  22606642.4674   22606652.1164
  21852017.234   -17264974.36349 -13432907.46649  21852017.3334   21852024.2074
  19621797.315   -11251153.56749  -8750523.55349  19621796.8134   19621804.8134
 96 12 10 17 50 59.9960000  0  6  1 29 25 21 14 15
  22130722.647     3832475.18249   2970257.84849  22130722.4204   22130730.4254
  21052235.370   -14723153.23549 -11458619.00449  21052235.0014   21052242.5494
  19641023.632    -9519416.77149  -7242705.60749  19641024.3024   19641029.9524
  22612145.281     3493351.11749   2714983.04049  22612144.9184   22612154.6664
  21825626.344   -17403660.53449 -13540974.61049  21825626.3334   21825633.3274
  19611536.989   -11305071.59849  -8792537.61649  19611536.5964   19611544.8064
 96 12 10 17 51 29.9960000  0  6  1 29 25 21 14 15
  22134318.291     3851370.06149   2984981.08649  22134318.4304   22134325.9744
  21032259.535   -14828127.32249 -11540416.98749  21032259.1704   21032266.9204
  19632457.438    -9564432.42649  -7277782.75349  19632457.3434   19632464.0024
  22617674.992     3522408.17949   2737624.84549  22617675.2194   22617683.8684
  21799228.219   -17542383.10749 -13649070.09349  21799228.1384   21799234.5984
  19601383.708   -11358427.84649  -8834113.93149  19601383.1954   19601391.4994
 96 12 10 17 51 59.9960000  0  6  1 29 25 21 14 15
  22137907.800     3870233.43149   2999679.77449  22137906.8864   22137915.2974
  21012309.332   -14932966.44049 -11622109.78549  21012309.3014   21012316.4664
  19623985.284    -9608953.25449  -7312474.33349  19623984.6984   19623992.0484
  22623237.851     3551641.17949   2760403.72349  22623236.7294   22623248.0094
  21772830.810   -17681102.64549 -13757163.23949  21772830.9934   21772837.9444
  19591341.354   -11411201.13449  -8875235.98149  19591340.8974   19591348.9694
 96 12 10 17 52 29.9960000  0  6  1 29 25 21 14 15
  22141491.400     3889065.89349   3014354.36749  22141491.2954   22141499.4794
  20992385.188   -15037668.33449 -11703695.68249  20992384.6744   20992392.1514
  19615607.283    -9652979.66949  -7346780.63749  19615607.1484   19615614.3444
  22628836.258     3581060.56249   2783327.81749  22628836.7924   22628846.4204
  21746437.745   -17819800.24549 -13865239.29249  21746437.8944   21746444.2054
  19581412.002   -11463380.51549  -8915895.25449  19581411.9214   19581418.9094
 96 12 10 17 52 59.9960000  0  6  1 29 25 21 14 15
  22145071.541     3907879.44749   3029014.24649  22145072.1964   22145079.1874
  20972487.937   -15142228.96549 -11785171.49649  20972488.2584   20972494.7644
  19607321.866    -9696520.01249  -7380708.18149  19607321.6344   19607328.5894
  22634470.188     3610666.27349   2806397.13049  22634469.6234   22634479.3574
  21720047.829   -17958479.65649 -13973301.17849  21720047.4344   21720055.8514
  19571597.160   -11514958.18949  -8956085.65549  19571596.7754   19571604.4344
 96 12 10 17 53 29.9960000  0  6  1 29 25 21 14 15
  22148643.419     3926649.33149   3043640.09049  22148643.0534   22148651.1654
  20952614.686   -15246663.68949 -11866549.18649  20952614.1474   20952621.9574
  19599124.706    -9739595.75649  -7414273.70249  19599124.5884   19599131.7204
  22640138.935     3640456.92349   2829610.55049  22640138.3084   22640147.0704
  21693658.274   -18097158.01549 -14081362.23849  21693659.3724   21693665.5984
  19561893.451   -11565951.74549  -8995820.90449  19561892.9434   19561900.7224
 96 12 10 17 53 59.9960000  0  6  1 29 25 21 14 15
  22152199.186     3945334.19349   3058199.69449  22152198.7724   22152206.5464
  20932762.500   -15350987.13749 -11947840.17949  20932762.1604   20932769.5514
  19591008.793    -9782244.96649  -7447506.84849  19591008.9674   19591015.8004
  22645838.490     3670407.52549   2852948.59949  22645838.5324   22645847.8944
  21667266.130   -18235849.90449 -14189433.83549  21667266.1844   21667272.3814
  19552295.956   -11616387.24949  -9035121.30249  19552295.2384   19552303.3224
 96 12 10 17 54 29.9960000  0  6  1 29 25 21 14 15
  22155737.128     3963925.86349   3072686.67249  22155736.1134   22155744.6064
  20912928.546   -15455214.78549 -12029056.52149  20912928.6714   20912936.2274
  19582970.544    -9824486.47849  -7480422.31249  19582970.5724   19582977.2534
  22651560.871     3700479.05249   2876380.87449  22651560.0714   22651570.8454
  21640868.941   -18374568.10449 -14297525.92049  21640868.7984   21640876.2424
  19542801.420   -11666280.95149  -9073999.52949  19542800.3314   19542809.0214
 96 12 10 17 54 59.9960000  0  6  1 29 25 21 14 15
  22159260.341     3982440.51449   3087113.63549  22159260.1734   22159268.3134
  20893114.782   -15559337.25349 -12110190.92549  20893114.5484   20893121.0014
  19575011.047    -9866314.15949  -7513015.30549  19575011.3224   19575017.9724
  22657306.699     3730673.84849   2899909.20649  22657306.1334   22657317.7264
  21614466.108   -18513316.55949 -14405641.59049  21614466.0174   21614473.2804
  19533409.264   -11715636.51149  -9112458.41849  19533408.9124   19533416.3784
 96 12 10 17 55 29.9960000  0  6  1 29 25 21 14 15
  22162770.120     4000884.26449   3101485.39549  22162769.6044   22162777.0414
  20873324.580   -15663335.43549 -12191228.46849  20873324.4684   20873331.3244
  19567133.036    -9907713.81949  -7545274.78549  19567133.3754   19567139.4854
  22663079.360     3761009.77749   2923547.49949  22663080.2864   22663090.3174
  21588060.037   -18652082.52749 -14513770.90849  21588059.8474   21588067.5314
  19524120.831   -11764447.61649  -9150493.07649  19524120.4434   19524128.1094
 96 12 10 17 55 59.9960000  0  6  1 29 25 21 14 15
  22166269.718     4019274.25749   3115815.21449  22166269.2314   22166277.5804
  20853559.904   -15767199.34949 -12272161.38049  20853560.1414   20853566.3744
  19559337.142    -9948681.90649  -7577197.97949  19559337.2134   19559343.9004
  22668879.020     3791485.66349   2947294.87349  22668877.9724   22668887.6254
  21561650.534   -18790865.13349 -14621913.18249  21561649.9904   21561657.7254
  19514937.310   -11812707.78049  -9188098.40149  19514937.2604   19514944.5514
 96 12 10 17 56 29.9960000  0  6  1 29 25 21 14 15
  22169761.423     4037622.34849   3130112.37949  22169761.8434   22169768.6814
  20833818.294   -15870942.44549 -12353000.15949  20833817.8784   20833824.4644
  19551625.404    -9989207.38149  -7608776.26449  19551625.1424   19551632.1944
  22674705.354     3822102.50449   2971152.10949  22674704.6794   22674715.1314
  21535235.250   -18929677.19549 -14730078.43149  21535234.2584   21535242.7784
  19505857.082   -11860425.37949  -9225280.96149  19505856.6364   19505864.1024
 96 12 10 17 56 59.9960000  0  6  1 29 25 21 14 15
  22173241.523     4055909.72049   3144362.25149  22173241.2354   22173248.8604
  20814098.047   -15974572.61749 -12433750.94049  20814098.6394   20814104.6254
  19543996.843   -10029295.51249  -7640013.77449  19543996.9524   19544003.6684
  22680556.982     3852853.30149   2995113.65549  22680557.9764   22680566.4024
  21508811.742   -19068532.37749 -14838277.27049  21508810.7604   21508819.5064
  19496878.378   -11907609.29949  -9262047.65749  19496878.1224   19496885.9004
 96 12 10 17 57 29.9960000  0  6  1 29 25 21 14 15
  22176705.773     4074114.09049   3158547.43249  22176705.2164   22176713.1444
  20794397.051   -16078102.26949 -12514423.40149  20794397.3584   20794403.8644
  19536449.841   -10068955.67349  -7670917.79849  19536450.1274   19536456.6814
  22686432.317     3883726.80249   3019170.87749  22686432.4404   22686443.1254
  21482380.173   -19207430.03149 -14946509.18249  21482378.9884   21482388.5734
  19487999.864   -11954266.19849  -9298403.69749  19487999.4394   19488007.3384
 96 12 10 17 57 59.9960000  0  6  1 29 25 21 14 15
  22180155.600     4092243.73049   3172674.38549  22180154.8384   22180163.1194
  20774714.230   -16181536.82549 -12595021.75949  20774714.2154   20774721.3674
  19528984.066   -10108189.22849  -7701489.41049  19528983.9164   19528990.4544
  22692331.110     3914726.07849   3043326.08149  22692330.3474   22692340.3264
  21455943.799   -19346353.42249 -15054761.15449  21455943.3504   21455952.0514
  19479221.859   -12000395.23249  -9334348.41149  19479221.3964   19479229.2964
 96 12 10 17 58 29.9960000  0  6  1 29 25 21 14 15
  22183593.416     4110310.60949   3186752.43749  22183593.0984   22183601.4004
  20755051.815   -16284862.84849 -12675535.54849  20755052.3264   20755058.4624
  19521603.745   -10146972.63649  -7731710.25349  19521604.1054   19521610.4444
  22698257.441     3945869.77949   3067593.82049  22698257.0944   22698267.5184
  21429506.974   -19485281.16249 -15163016.52849  21429507.1114   21429514.2614
  19470547.365   -12045979.71349  -9369868.79049  19470546.8114   19470554.6204
 96 12 10 17 58 59.9950000  0  6  1 29 25 21 14 15
  22187017.905     4128307.67549   3200776.08149  22187017.7174   22187026.1004
  20735413.237   -16388065.09649 -12755952.88449  20735413.7024   20735419.9484
  19514311.017   -10185296.65249  -7761573.12849  19514310.4244   19514317.2964
  22704213.150     3977166.99849   3091981.20949  22704212.6514   22704223.5124
  21403072.427   -19624196.58249 -15271262.30449  21403072.3114   21403079.5894
  19461979.272   -12091005.45449  -9404953.79549  19461978.5634   19461986.7114
 96 12 10 17 59 29.9950000  0  6  1 29 25 21 14 15
  22190429.953     4146238.11949   3214747.82549  22190430.0454   22190438.2724
  20715795.795   -16491156.05249 -12836283.51549  20715795.9434   20715801.9974
  19507104.617   -10223165.98949  -7791081.72449  19507104.7324   19507111.0834
  22710200.610     4008631.71549   3116499.14649  22710198.6974   22710209.0024
  21376640.032   -19763099.63349 -15379498.42949  21376640.1204   21376647.7924
  19453517.248   -12135473.53749  -9439604.26049  19453516.6514   19453524.1454
 96 12 10 17 59 59.9950000  0  6  1 29 25 21 14 15
  22193827.249     4164091.03649   3228659.14849  22193826.9934   22193835.2414
  20696196.627   -16594150.37449 -12916538.82549  20696196.8314   20696203.3094
  19499983.704   -10260586.22349  -7820240.35449  19499983.7324   19499990.2294
  22716217.205     4040250.40949   3141137.02649  22716216.7604   22716226.7494
  21350209.843   -19901991.48349 -15487725.84149  21350210.1774   21350217.1434
  19445161.279   -12179384.15749  -9473820.33149  19445160.5064   19445168.8684
 96 12 10 18  0 29.9950000  0  6  1 29 25 21 14 15
  22197207.320     4181852.90549   3242499.52949  22197207.3934   22197215.8794
  20676614.926   -16697052.85549 -12996722.58349  20676614.8974   20676621.1134
  19492950.084   -10297548.61549  -7849042.23449  19492950.2714   19492957.2734
  22722260.939     4072009.75449   3165884.53349  22722260.9064   22722272.2144
  21323780.028   -20040881.08249 -15595951.50249  21323779.8144   21323786.9074
  19436911.659   -12222735.67449  -9507600.76149  19436910.7274   19436919.0414
 96 12 10 18  0 59.9950000  0  7  1 29 25 21 14 15 22
  22200572.771     4199536.38349   3256278.81549  22200572.7434   22200580.7584
  20657053.377   -16799849.42649 -13076823.81149  20657053.4394   20657059.5964
  19486002.820   -10334056.44149  -7877489.89249  19486003.1214   19486010.4174
  22728333.859     4103920.49349   3190749.98549  22728333.2024   22728343.5784
  21297356.134   -20179740.48149 -15704153.65049  21297355.8074   21297363.2444
  19428771.283   -12265512.74649  -9540933.56849  19428770.7624   19428778.5444
  23126037.271                                    23126042.164    23126087.0644
 96 12 10 18  1 29.9950000  0  7  1 29 25 21 14 15 22
  22203928.280     4217169.32049   3270018.73749  22203927.4514   22203937.1304
  20637513.742   -16902530.33249 -13156834.90949  20637513.4774   20637520.1014
  19479139.497   -10370124.37749  -7905594.78949  19479139.2824   19479146.6164
  22734434.723     4135980.48549   3215731.70649  22734435.1184   22734445.4524
  21270939.539   -20318559.10749 -15812323.98349  21270939.1154   21270946.8374
  19420741.354   -12307710.05949  -9573814.59949  19420740.7914   19420749.0704
  23097752.324                                    23097758.515    23097796.0774
 96 12 10 18  1 59.9950000  0  7  1 29 25 21 14 15 22
  22207276.688     4234765.68949   3283730.16049  22207275.9234   22207285.3674
  20618000.824   -17005070.52449 -13236736.36149  20618000.7354   20618007.6574
  19472359.245   -10405754.32149  -7933358.38749  19472359.4464   19472366.3934
  22740563.188     4168184.85449   3240825.94149  22740563.5654   22740573.4794
  21244529.894   -20457342.49749 -15920466.89549  21244530.3984   21244537.3334
  19412821.963   -12349327.11549  -9606243.49549  19412821.9834   19412829.5494
  23069447.326                                    23069454.449    23069457.1964
 96 12 10 18  2 29.9950000  0  7  1 29 25 21 14 15 22
  22210620.514     4252338.49449   3297423.22749  22210619.3584   22210629.2504
  20598517.698   -17107455.33349 -13316516.72349  20598517.9734   20598524.1684
  19465662.270   -10440947.46649  -7960781.62549  19465662.0534   19465668.7834
  22746719.524     4200536.72549   3266035.09749  22746718.1854   22746727.8234
  21218128.958   -20596081.16649 -16028574.96649  21218129.0254   21218136.5314
  19405011.717   -12390370.87249  -9638225.65849  19405011.0104   19405019.4334
  23041123.735                                    23041129.818    23041130.7614
 96 12 10 18  2 59.9950000  0  7  1 29 25 21 14 15 22
  22213962.437     4269901.32749   3311108.49549  22213961.9844   22213970.9594
  20579064.784   -17209681.06449 -13396173.12549  20579064.7404   20579071.8274
  19459046.074   -10475715.99949  -7987874.01449  19459046.5324   19459052.5694
  22752903.936     4233035.63949   3291358.81749  22752904.4924   22752914.1144
  21191735.751   -20734778.36949 -16136650.70749  21191735.5374   21191744.1594
  19397309.658   -12430845.49049  -9669764.34449  19397309.7624   19397317.3014
  23012781.777                                    23012786.779    23012800.8214
 96 12 10 18  3 29.9950000  0  7  1 29 25 21 14 15 22
  22217301.124     4287446.54249   3324780.05049  22217300.6234   22217310.2144
  20559642.823   -17311744.51749 -13475703.09149  20559642.7754   20559650.1194
  19452513.237   -10510047.11149  -8014625.54849  19452513.4254   19452519.5694
  22759114.469     4265671.26449   3316789.08449  22759114.6934   22759124.7984
  21165346.830   -20873453.92049 -16244709.59049  21165346.6954   21165354.4924
  19389714.349   -12470760.16849  -9700866.70549  19389713.9204   19389722.1924
  22984415.017                                    22984419.188    22984452.8794
 96 12 10 18  3 59.9950000  0  7  1 29 25 21 14 15 22
  22220634.874     4304965.44049   3338431.09649  22220634.9154   22220643.4574
  20540252.204   -17413643.05449 -13555104.55449  20540252.1994   20540259.7304
  19446069.920   -10543907.60249  -8041010.36549  19446069.7764   19446076.7584
  22765354.812     4298463.46849   3342341.36349  22765354.4534   22765364.4994
  21138964.500   -21012094.02649 -16352740.83049  21138964.0604   21138972.0604
  19382227.333   -12510104.69549  -9731524.81249  19382226.7544   19382234.5134
  22956025.275                                    22956033.009    22956048.6064
 96 12 10 18  4 29.9950000  0  7  1 29 25 21 14 15 22
  22223973.463     4322508.89049   3352101.27749  22223973.2234   22223981.4364
  20520901.357   -17515332.66149 -13634343.20749  20520901.3164   20520908.7014
  19439729.145   -10577228.47649  -8066974.70049  19439729.0164   19439736.3584
  22771638.189     4331483.17149   3368070.92249  22771638.0134   22771648.3304
  21112602.284   -21150628.76649 -16460689.98049  21112601.9304   21112609.6254
  19374861.694   -12548811.01449  -9761685.59849  19374860.7634   19374869.0894
  22927625.142                                    22927632.950    22927646.8704
 96 12 10 18  4 59.9950000  0  7  1 29 25 21 14 15 22
  22227296.727     4339972.97349   3365709.61049  22227296.3334   22227304.5304
  20501573.396   -17616902.46649 -13713488.51149  20501574.1464   20501579.7154
  19433474.201   -10610098.25849  -8092587.53849  19433474.2064   19433481.1124
  22777948.291     4364641.89149   3393908.79749  22777948.3444   22777958.7544
  21086240.394   -21289161.22149 -16568637.33149  21086240.3704   21086247.7814
  19367600.968   -12586966.26349  -9791416.97949  19367600.8694   19367608.0904
  22899197.336                                    22899205.040    22899231.0514
 96 12 10 18  5 29.9950000  0  7  1 29 25 21 14 15 22
  22230600.908     4357337.70149   3379240.51149  22230601.2154   22230609.1524
  20482268.499   -17718350.94449 -13792539.25549  20482268.2614   20482275.2384
  19427303.487   -10642525.26149  -8117855.36149  19427303.4884   19427310.5594
  22784286.899     4397951.92149   3419864.56249  22784284.8184   22784296.8414
  21059881.906   -21427675.67849 -16676570.67749  21059881.8374   21059889.6254
  19360445.726   -12624567.37849  -9820716.57149  19360445.1834   19360453.2114
  22870743.553                                    22870745.982    22870888.7164
 96 12 10 18  5 59.9950000  0  7  1 29 25 21 14 15 22
  22233884.279     4374591.85749   3392685.25549  22233884.7824   22233891.8704
  20462982.025   -17819702.08949 -13871514.17649  20462981.4734   20462988.6584
  19421213.324   -10674529.27249  -8142793.58249  19421213.7434   19421220.2724
  22790654.206     4431412.27549   3445937.51449  22790653.6094   22790663.3154
  21033528.606   -21566163.43849 -16784483.20649  21033528.9414   21033536.0264
  19353395.021   -12661618.35849  -9849587.47849  19353394.3644   19353402.0954
  22842269.507                                    22842271.754    22842279.3614
 96 12 10 18  6 29.9950000  0  7  1 29 25 21 14 15 22
  22237148.075     4391742.42949   3406049.28649  22237147.6334   22237155.6544
  20443713.909   -17920956.49849 -13950413.72549  20443714.5914   20443720.8634
  19415200.644   -10706126.69449  -8167414.98649  19415200.8964   19415207.4014
  22797049.857     4465021.55949   3472126.47449  22797048.1524   22797059.4094
  21007180.684   -21704622.46249 -16892373.35449  21007180.3024   21007188.8184
  19346448.444   -12698122.59149  -9878032.35749  19346447.5434   19346456.8674
  22813772.583                                    22813774.712    22813775.6074
 96 12 10 18  6 59.9950000  0  7  1 29 25 21 14 15 22
  22240394.540     4408801.90449   3419342.34849  22240394.2954   22240403.0104
  20424465.996   -18022105.40149 -14029231.03249  20424465.9064   20424472.2584
  19409265.392   -10737317.09949  -8191719.22649  19409265.5154   19409272.0204
  22803473.792     4498779.33749   3498431.17149  22803471.8954   22803483.6684
  20980839.046   -21843047.71949 -17000237.18349  20980838.8574   20980847.3774
  19339605.673   -12734081.18849  -9906052.08049  19339606.0394   19339614.1174
  22785251.637                                    22785254.497    22785353.2604
 96 12 10 18  7 29.9950000  0  6  1 29 25 21 14 15
  22243627.761     4425792.32749   3432581.59549  22243626.8984   22243636.6434
  20405237.469   -18123152.58249 -14107969.10349  20405236.7394   20405243.8944
  19403406.816   -10768104.16149  -8215709.17749  19403406.9114   19403413.4984
  22809927.174     4532692.31949   3524856.79749  22809926.5164   22809935.3124
  20954505.786   -21981429.35649 -17108067.04249  20954505.1784   20954513.9064
  19332867.931   -12769489.46949  -9933642.96149  19332867.9644   19332876.0234
 96 12 10 18  7 59.9950000  0  6  1 29 25 21 14 15
  22246854.639     4442749.99149   3445795.30949  22246853.9834   22246864.1794
  20386030.123   -18224087.12749 -14186619.40649  20386030.0554   20386036.7004
  19397630.870   -10798457.06249  -8239360.81449  19397631.1094   19397637.7494
  22816411.574     4566767.93549   3551409.20149  22816411.6274   22816420.2884
  20928179.780   -22119772.09249 -17215866.56949  20928179.4434   20928188.6244
  19326237.041   -12804335.93149  -9960796.07749  19326236.9754   19326245.0704
 96 12 10 18  8 29.9950000  0  6  1 29 25 21 14 15
  22250082.345     4459711.69149   3459012.17449  22250082.2694   22250091.6804
  20366850.037   -18324878.16149 -14265157.88749  20366849.6934   20366856.7184
  19391941.847   -10828353.37349  -8262656.67349  19391941.5584   19391948.3804
  22822929.861     4601020.97049   3578099.83749  22822929.8344   22822939.8054
  20901864.165   -22258062.22849 -17323625.12749  20901864.7404   20901872.5374
  19319716.225   -12838603.93749  -9987498.45449  19319715.2894   19319724.2674
 96 12 10 18  8 59.9950000  0  6  1 29 25 21 14 15
  22253315.214     4476701.17849   3472250.66749  22253314.4814   22253324.7414
  20347705.179   -18425484.79749 -14343552.67649  20347705.0074   20347712.7244
  19386344.829   -10857765.87149  -8285575.54249  19386345.2424   19386351.7114
  22829484.049     4635464.08349   3604938.60049  22829482.7884   22829494.5424
  20875562.970   -22396276.93549 -17431324.90249  20875563.7384   20875571.8684
  19313310.202   -12872267.17749 -10013729.57849  19313309.6544   19313317.3594
 96 12 10 18  9 29.9950000  0  6  1 29 25 21 14 15
  22256560.935     4493757.48149   3485541.23549  22256560.3944   22256569.7014
  20328604.919   -18525857.07849 -14421764.85049  20328605.1694   20328611.7164
  19380847.744   -10886653.54049  -8308085.42449  19380847.4984   19380854.6444
  22836084.156     4670147.75049   3631964.79249  22836084.2184   22836094.9214
  20849287.142   -22534358.13949 -17538920.64949  20849287.4394   20849295.5404
  19307028.616   -12905277.39549 -10039451.85249  19307028.1934   19307036.3094
 96 12 10 18  9 59.9950000  0  6  1 29 25 21 14 15
  22259807.329     4510816.49749   3498833.91149  22259807.4464   22259814.6634
  20309541.247   -18626037.93549 -14499827.87749  20309540.8874   20309548.2684
  19375441.105   -10915065.72949  -8330224.80649  19375441.0414   19375447.4294
  22842717.430     4705005.61349   3659126.70349  22842718.4754   22842726.7804
  20823028.427   -22672348.55149 -17646445.65349  20823028.5874   20823036.1134
  19300860.665   -12937690.70349 -10064709.01149  19300860.6824   19300868.1134
 96 12 10 18 10 29.9950000  0  6  1 29 25 21 14 15
  22263056.559     4527890.18649   3512138.03049  22263056.8664   22263064.1124
  20290521.072   -18725988.96249 -14577711.80949  20290521.1554   20290527.6124
  19370128.934   -10942981.41949  -8351977.29749  19370128.9894   19370135.6174
  22849388.536     4740062.80049   3686443.97649  22849388.5574   22849399.1794
  20796794.532   -22810208.54349 -17753869.01649  20796793.9294   20796802.0504
  19294812.016   -12969476.97849 -10089477.56549  19294811.7104   19294819.4434
 96 12 10 18 10 59.9950000  0  5  1 29 25 14 15
  22266305.981     4544965.07749   3525443.10749  22266305.6874   22266314.6414
  20271546.512   -18825700.11249 -14655408.82049  20271546.4204   20271553.6474
  19364913.215   -10970390.75249  -8373335.23649  19364913.4094   19364919.8924
  20770585.674   -22947936.35449 -17861189.39649  20770584.5144   20770593.4644
  19288884.202   -13000628.09549 -10113751.19149  19288883.4644   19288891.1344
 96 12 10 18 11 29.9950000  0  5  1 29 25 14 15
  22269556.786     4562047.63249   3538754.12949  22269556.2174   22269565.5624
  20252615.619   -18925182.89649 -14732927.88949  20252615.9064   20252621.9874
  19359795.133   -10997286.71349  -8394293.14349  19359795.3234   19359801.4664
  20744403.912   -23085520.64649 -17968397.93549  20744403.6684   20744412.5594
  19283077.435   -13031142.38249 -10137528.57249  19283076.8444   19283084.8904
 96 12 10 18 11 59.9950000  0  5  1 29 25 14 15
  22272813.863     4579163.07649   3552090.79149  22272813.8224   22272822.1224
  20233730.794   -19024423.62049 -14810258.33449  20233730.9904   20233737.7494
  19354782.296   -11023629.72749  -8414820.18049  19354782.5234   19354788.7214
  20718253.772   -23222940.09749 -18075478.03449  20718253.7014   20718262.6314
  19277395.874   -13060998.78049 -10160793.32549  19277395.2374   19277403.4194
 96 12 10 18 12 29.9940000  0  5  1 29 25 14 15
  22276077.580     4596313.35549   3565454.57849  22276076.3434   22276085.3944
  20214892.253   -19123421.05249 -14887399.21749  20214892.3914   20214898.3234
  19349878.038   -11049402.03449  -8434902.50449  19349878.3084   19349884.1074
  20692137.744   -23360181.55049 -18182419.43549  20692137.3414   20692146.0194
  19271841.774   -13090185.63049 -10183536.34249  19271841.1624   19271848.9434
 96 12 10 18 12 59.9940000  0  5  1 29 25 14 15
  22279346.386     4613490.73249   3578839.49649  22279345.6104   22279354.7734
  20196092.323   -19222215.50049 -14964381.90949  20196092.6164   20196098.7324
  19345077.632   -11074628.33949  -8454559.35949  19345077.3424   19345084.0494
  20666053.176   -23497258.34949 -18289232.53649  20666053.4494   20666060.9464
  19266410.153   -13118728.82849 -10205777.82649  19266409.4624   19266417.7584
 96 12 10 18 13 29.9940000  0  5  1 29 25 14 15
  22282616.277     4630674.94449   3592229.73549  22282614.6674   22282624.4334
  20177323.591   -19320846.11949 -15041236.94349  20177323.6304   20177329.9424
  19340374.290   -11099344.35049  -8473818.59549  19340374.0784   19340380.8904
  20639999.832   -23634170.80849 -18395917.58949  20640000.1954   20640007.6594
  19261095.574   -13146657.51649 -10227540.46549  19261094.6824   19261103.0884
 96 12 10 18 13 59.9940000  0  6  1 29 25 14 15 22
  22285885.819     4647857.19049   3605618.45649  22285884.2034   22285893.3854
  20158584.963   -19419318.09149 -15117968.34149  20158584.5024   20158592.1814
  19335764.996   -11123566.36449  -8492692.89449  19335765.2484   19335771.2614
  20613975.417   -23770930.51949 -18502483.59349  20613974.9124   20613982.9344
  19255896.517   -13173978.60949 -10248829.65249  19255896.2504   19255904.2894
  22385253.402                                    22385261.626    22385331.0804
 96 12 10 18 14 29.9940000  0  6  1 29 25 14 15 22
  22289157.604     4665052.12249   3619017.04949  22289156.0784   22289164.5914
  20139879.214   -19517616.88049 -15194564.81249  20139879.3124   20139886.0264
  19331247.081   -11147308.54349  -8511193.30649  19331247.1364   19331253.2404
  20587978.929   -23907543.23749 -18608935.06949  20587979.1594   20587986.4404
  19250813.520   -13200690.13949 -10269643.86149  19250813.1794   19250821.2884
  22356687.499                                    22356695.572    22356697.2614
 96 12 10 18 14 59.9940000  0  6  1 29 25 14 15 22
  22292434.242     4682270.84649   3632434.18449  22292434.2794   22292441.6984
  20121207.196   -19615739.21249 -15271023.78149  20121207.4284   20121214.9664
  19326818.518   -11170580.60849  -8529327.39549  19326818.2124   19326824.5924
  20562011.422   -24044003.86349 -18715268.03649  20562010.8964   20562018.9904
  19245846.682   -13226792.06449 -10289983.04649  19245846.1284   19245854.1084
  22328121.495                                    22328130.057    22328130.7104
 96 12 10 18 15 29.9940000  0  6  1 29 25 14 15 22
  22295713.059     4699500.45649   3645859.80349  22295713.2894   22295721.4474
  20102568.184   -19713687.90249 -15347347.44749  20102568.3424   20102576.0064
  19322477.984   -11193390.35349  -8547101.24149  19322477.9674   19322483.8934
  20536067.780   -24180338.23049 -18821502.61549  20536067.9964   20536075.2984
  19240993.279   -13252296.47649 -10309856.63349  19240992.7584   19241001.3184
  22299554.548     -529202.74859   -383179.67159  22299553.9004   22299563.8744
 96 12 10 18 15 59.9940000  0  6  1 29 25 14 15 22
  22298993.103     4716737.42349   3659291.15049  22298993.4384   22299000.9134
  20083964.484   -19811450.38749 -15423526.01449  20083964.6314   20083972.7404
  19318226.367   -11215732.62249  -8564510.81049  19318226.1304   19318232.6994
  20510146.141   -24316557.55649 -18927647.55149  20510145.9914   20510153.8284
  19236252.739   -13277208.90549 -10329268.93149  19236252.2004   19236260.1094
  22270989.208     -679314.47849   -500149.79449  22270989.3754   22270999.4844
 96 12 10 18 16 29.9940000  0  6  1 29 25 14 15 22
  22302273.394     4733974.84249   3672722.84649  22302273.9174   22302282.7154
  20065396.671   -19909025.05049 -15499558.23749  20065397.1954   20065403.5344
  19314065.371   -11237598.90049  -8581549.49249  19314065.4914   19314072.1134
  20484249.868   -24452643.02249 -19033688.17049  20484249.3794   20484257.7014
  19231624.656   -13301529.87449 -10348220.36149  19231624.4534   19231632.3584
  22242429.946     -829397.25749   -617097.35049  22242429.6764   22242438.6774
 96 12 10 18 16 59.9940000  0  6  1 29 25 14 15 22
  22305553.763     4751212.09349   3686154.41149  22305552.4174   22305562.7794
  20046864.461   -20006413.05049 -15575444.99049  20046864.8044   20046872.2804
  19309995.298   -11258987.55649  -8598215.99249  19309995.3584   19310002.2904
  20458383.966   -24588568.30149 -19139603.96849  20458383.6464   20458391.2474
  19227110.450   -13325252.42949 -10366705.49649  19227110.1494   19227118.5094
  22213879.958     -979429.50049   -734005.52549  22213879.3614   22213888.4744
 96 12 10 18 17 29.9940000  0  6  1 29 25 14 15 22
  22308831.906     4768438.89249   3699577.81049  22308832.6874   22308841.2194
  20028366.397   -20103620.96649 -15651191.43449  20028366.5604   20028373.1444
  19306013.598   -11279911.77049  -8614520.59949  19306013.1254   19306020.6604
  20432547.540   -24724338.86749 -19245399.20949  20432547.8014   20432555.9734
  19222708.690   -13348384.44749 -10384730.47749  19222708.3564   19222716.2144
  22185339.068    -1129413.79249   -850876.34149  22185338.9694   22185348.2244
 96 12 10 18 17 59.9940000  0  6  1 29 25 14 15 22
  22312106.793     4785648.58349   3712987.91649  22312106.8104   22312116.6434
  20009902.465   -20200649.90549 -15726798.41149  20009902.2834   20009909.4534
  19302116.694   -11300389.60249  -8630477.37249  19302116.5134   19302123.7254
  20406741.555   -24859951.24449 -19351071.18449  20406741.1274   20406748.8434
  19218419.355   -13370925.13649 -10402294.67549  19218419.2854   19218426.8204
  22156806.551    -1279354.59049   -967713.26049  22156806.3124   22156814.9794
 96 12 10 18 18 29.9940000  0  6  1 29 25 14 15 22
  22315375.423     4802825.19049   3726372.22849  22315374.9074   22315384.4194
  19991467.364   -20297527.17449 -15802287.21249  19991467.6254   19991474.7544
  19298299.121   -11320451.00349  -8646109.65149  19298299.1954   19298305.3454
  20380957.649   -24995447.04049 -19456652.31949  20380957.4474   20380965.1474
  19214239.882   -13392889.32749 -10419409.64949  19214239.0394   19214247.1754
  22128277.170    -1429277.28849  -1084536.06949  22128276.3834   22128285.6694
 96 12 10 18 18 59.9940000  0  6  1 29 25 14 15 22
  22318637.757     4819968.45449   3739730.53849  22318637.3994   22318647.1504
  19973060.555   -20394255.82349 -15877660.19149  19973060.8184   19973068.0274
  19294558.036   -11340111.00049  -8661429.15049  19294557.9954   19294563.9154
  20355190.935   -25130852.07749 -19562162.74049  20355190.8254   20355198.5094
  19210168.413   -13414284.18449 -10436080.98749  19210167.9474   19210175.5004
  22099744.120    -1579219.29649  -1201373.95449  22099743.1564   22099753.4574
 96 12 10 18 19 29.9940000  0  6  1 29 25 14 15 22
  22321892.152     4837069.11249   3753055.67749  22321891.6464   22321900.3574
  19954683.977   -20490826.41949 -15952910.02349  19954684.2004   19954690.4884
  19290895.623   -11359357.16449  -8676426.18049  19290895.5514   19290901.6804
  20329438.881   -25266180.28149 -19667613.29749  20329438.5634   20329446.3794
  19206204.668   -13435113.83449 -10452311.91049  19206204.3614   19206212.1264
  22071205.494    -1729191.33949  -1318235.25249  22071203.9334   22071214.4594
 96 12 10 18 19 59.9940000  0  6  1 29 25 14 15 22
  22325137.784     4854124.77649   3766345.74649  22325137.7994   22325146.5184
  19936338.354   -20587233.68749 -16028032.57649  19936338.7604   19936345.0464
  19287313.552   -11378180.93849  -8691094.09149  19287313.3314   19287319.6284
  20303701.640   -25401430.05849 -19773002.73349  20303701.3204   20303709.5484
  19202347.650   -13455383.27749 -10468106.32249  19202347.0824   19202354.3884
  22042662.513    -1879185.78849  -1435114.02849  22042661.2034   22042670.6714
 96 12 10 18 20 29.9940000  0  6  1 29 25 14 15 22
  22328375.419     4871138.51549   3779603.14349  22328374.6884   22328383.5894
  19918022.682   -20683483.47549 -16103032.40849  19918022.3704   19918029.3114
  19283814.677   -11396567.29149  -8705421.14149  19283814.7234   19283821.2224
  20277983.059   -25536581.58749 -19878315.60949  20277982.9654   20277991.1404
  19198595.967   -13475098.41149 -10483468.79449  19198595.3294   19198603.4784
  22014117.246    -2029190.89749  -1552001.13049  22014115.8954   22014126.7174
 96 12 10 18 20 59.9940000  0  6  1 29 25 14 15 22
  22331605.772     4888113.76049   3792830.52049  22331606.1814   22331614.2364
  19899737.971   -20779570.23149 -16177905.21949  19899737.9684   19899744.6554
  19280399.387   -11414514.93149  -8719406.33149  19280399.3974   19280406.5284
  20252292.607   -25671586.14649 -19983513.96849  20252292.4604   20252299.8144
  19194948.600   -13494265.61349 -10498404.30849  19194947.9044   19194956.4104
  21985573.570    -2179188.00949  -1668881.99549  21985573.4044   21985582.6474
 96 12 10 18 21 29.9940000  0  6  1 29 25 14 15 22
  22334828.011     4905046.69649   3806024.95949  22334827.3314   22334836.6304
  19881483.144   -20875499.75149 -16252655.50349  19881483.2464   19881489.4214
  19277066.242   -11432030.55949  -8733054.89549  19277066.2454   19277073.1394
  20226632.758   -25806429.98449 -20088587.08949  20226632.3244   20226640.1134
  19191404.766   -13512888.45449 -10512915.63449  19191404.3274   19191412.0524
  21957037.090    -2329149.05049  -1785734.75649  21957036.3104   21957045.3434
 96 12 10 18 21 59.9940000  0  6  1 29 25 14 15 22
  22338042.358     4921937.50949   3819186.55549  22338041.1964   22338050.7924
  19863253.338   -20971297.80849 -16327303.35349  19863253.0764   19863259.8734
  19273811.005   -11449136.08449  -8746383.88949  19273810.5294   19273817.6944
  20201003.247   -25941113.90549 -20193535.60249  20201003.2764   20201011.3044
  19187963.509   -13530972.92049 -10527007.45349  19187962.9504   19187971.7144
  21928508.284    -2479068.34649  -1902554.98949  21928508.2104   21928517.3164
 96 12 10 18 22 29.9940000  0  6  1 29 25 14 15 22
  22341248.086     4938784.32049   3832313.89549  22341247.9564   22341257.7344
  19845047.051   -21066972.23749 -16401854.87549  19845046.7404   19845053.9384
  19270632.270   -11465840.25449  -8759400.14249  19270632.4294   19270639.0774
  20175402.584   -26075645.69349 -20298365.57449  20175401.9904   20175411.0674
  19184624.793   -13548518.38749 -10540679.28949  19184624.5214   19184632.6774
  21899986.213    -2628953.80149  -2019348.89449  21899985.5954   21899995.5354
 96 12 10 18 22 59.9940000  0  6  1 29 25 14 15 22
  22344446.559     4955591.17549   3845410.08849  22344446.8314   22344455.7694
  19826866.288   -21162512.29149 -16476301.68649  19826866.4564   19826873.2904
  19267530.562   -11482140.38649  -8772101.56949  19267530.5964   19267536.7904
  20149827.031   -26210045.83949 -20403092.95949  20149826.6654   20149835.6464
  19181390.261   -13565516.12549 -10553924.31849  19181389.4304   19181398.1114
  21871470.600    -2778803.34049  -2136114.80949  21871469.9364   21871479.4584
 96 12 10 18 23 29.9940000  0  6  1 29 25 14 15 22
  22347635.259     4972347.61849   3858466.98449  22347633.8954   22347642.6764
  19808709.999   -21257924.58749 -16550648.94649  19808710.2754   19808716.7564
  19264506.704   -11498030.64849  -8784483.61749  19264506.4404   19264513.2034
  20124270.400   -26344346.72149 -20507743.00449  20124270.4674   20124278.3834
  19178259.609   -13581967.08749 -10566743.28349  19178258.7584   19178267.2604
  21842958.782    -2928633.62449  -2252865.68049  21842959.1044   21842966.3654
 96 12 10 18 23 59.9940000  0  6  1 29 25 14 15 22
  22350815.489     4989060.82349   3871490.22049  22350813.9144   22350823.3354
  19790577.985   -21353209.53049 -16624896.97349  19790578.3484   19790585.5634
  19261562.254   -11513503.42949  -8796540.35649  19261562.0884   19261569.1314
  20098731.681   -26478554.41949 -20612320.44449  20098731.6884   20098739.4124
  19175232.372   -13597874.72449 -10579138.87849  19175231.5734   19175239.8994
  21814449.968    -3078448.68249  -2369604.71749  21814449.5014   21814458.0474
 96 12 10 18 24 29.9940000  0  6  1 29 25 14 15 22
  22353990.699     5005746.21349   3884491.75649  22353989.7054   22353998.1004
  19772471.946   -21448357.37049 -16699038.15649  19772471.7234   19772478.9694
  19258700.075   -11528544.32649  -8808260.55749  19258700.2394   19258706.8294
  20073210.714   -26612667.96949 -20716824.51049  20073210.1764   20073218.1374
  19172308.528   -13613239.20749 -10591111.22949  19172308.2674   19172316.3264
  21785945.112    -3228243.83449  -2486328.20449  21785943.7954   21785954.5494
 96 12 10 18 24 59.9940000  0  6  1 29 25 14 15 22
  22357162.713     5022414.91349   3897480.27749  22357161.9894   22357170.9964
  19754391.600   -21543370.10149 -16773074.05049  19754391.7194   19754398.7554
  19255919.782   -11543155.06549  -8819645.55649  19255919.6344   19255926.6304
  20047710.567   -26746671.35249 -20821242.72549  20047710.1894   20047717.8524
  19169488.474   -13628059.38649 -10602659.44949  19169488.1204   19169496.0014
  21757445.720    -3378010.25249  -2603029.28549  21757444.6544   21757454.2184
 96 12 10 18 25 29.9940000  0  6  1 29 25 14 15 22
  22360332.421     5039071.52449   3910459.39149  22360331.3654   22360340.9284
  19736336.278   -21638251.71849 -16847007.78449  19736336.2094   19736343.1854
  19253218.339   -11557351.25249  -8830707.54049  19253218.4444   19253225.6824
  20022236.773   -26880536.35249 -20925553.11949  20022236.2244   20022243.9214
  19166771.113   -13642339.52149 -10613786.85649  19166770.6214   19166779.4104
  21728952.163    -3527745.18749  -2719705.81149  21728951.5704   21728958.9864
 96 12 10 18 25 59.9930000  0  6  1 29 25 14 15 22
  22363498.529     5055709.98549   3923424.37749  22363497.7134   22363507.9604
  19718304.282   -21733010.47049 -16920845.76949  19718303.6624   19718311.6084
  19250592.029   -11571152.76049  -8841461.97749  19250592.3224   19250599.2804
  19996790.403   -27014256.87249 -21029750.93149  19996790.5304   19996797.7374
  19164154.344   -13656091.13149 -10624502.44449  19164153.8524   19164162.3974
  21700464.861    -3677446.45349  -2836356.10749  21700462.9224   21700472.8644
 96 12 10 18 26 29.9930000  0  6  1 29 25 14 15 22
  22366658.437     5072317.11149   3936364.93649  22366657.3454   22366668.3754
  19700296.532   -21827640.89649 -16994583.76649  19700296.7184   19700303.1194
  19248039.175   -11584568.78949  -8851916.05549  19248039.4104   19248045.8224
  19971373.443   -27147823.86749 -21133829.11849  19971373.8864   19971381.7824
  19161637.781   -13669315.95549 -10634807.54549  19161637.1854   19161645.7954
  21671981.302    -3827127.49049  -2952990.61249  21671980.1204   21671989.5674
 96 12 10 18 26 59.9930000  0  6  1 29 25 14 15 22
  22369805.505     5088856.23549   3949252.50849  22369806.0364   22369815.4854
  19682315.508   -21922131.99349 -17068213.18849  19682315.4074   19682322.1094
  19245557.109   -11597612.41649  -8862079.94449  19245556.9784   19245563.8694
  19945989.276   -27281219.54349 -21237773.79949  19945989.5594   19945998.2824
  19159219.462   -13682024.14049 -10644710.06849  19159218.6694   19159227.0154
  21643501.361    -3976789.99849  -3069610.68649  21643500.5264   21643509.2424
 96 12 10 18 27 29.9930000  0  6  1 29 25 14 15 22
  22372937.093     5105309.68949   3962073.32949  22372937.1884   22372945.5434
  19664362.343   -22016477.43149 -17141729.11349  19664362.1554   19664368.8764
  19243147.051   -11610277.08549  -8871948.53949  19243146.8874   19243154.7034
  19920635.054   -27414457.48949 -21341595.55649  19920634.8214   19920643.8684
  19156896.917   -13694228.97049 -10654220.35049  19156896.4474   19156905.2304
  21615023.766    -4126440.46449  -3186221.37049  21615023.2714   21615032.5554
 96 12 10 18 27 59.9930000  0  6  1 29 25 14 15 22
  22376050.557     5121671.04749   3974822.40049  22376049.4534   22376059.8264
  19646437.443   -22110672.73449 -17215128.04449  19646437.2944   19646444.5614
  19240811.317   -11622551.77049  -8881513.24649  19240810.7844   19240818.2034
  19895307.476   -27547555.04749 -21445307.94049  19895307.4854   19895315.4474
  19154669.708   -13705932.54949 -10663340.06249  19154669.1094   19154677.4024
  21586549.519    -4276073.16149  -3302818.23249  21586548.1144   21586557.1884
 96 12 10 18 28 29.9930000  0  6  1 29 25 14 15 22
  22379144.854     5137932.45849   3987493.56649  22379144.3014   22379153.9954
  19628541.272   -22204717.30649 -17288409.51349  19628541.2444   19628548.4884
  19238548.832   -11634440.28449  -8890777.03549  19238548.5804   19238556.0984
  19870004.653   -27680522.10049 -21548918.62849  19870004.2824   19870012.4454
  19152536.375   -13717142.81049 -10672075.36149  19152535.4864   19152544.3424
  21558080.735    -4425677.32649  -3419392.82049  21558080.6314   21558090.4314
 96 12 10 18 28 59.9930000  0  6  1 29 25 14 15 22
  22382223.378     5154109.59249   4000099.06949  22382223.3794   22382233.4374
  19610670.550   -22298629.22349 -17361587.63149  19610670.8554   19610678.0684
  19236360.090   -11645941.87349  -8899739.34249  19236360.0054   19236367.0714
  19844724.165   -27813371.94649 -21652437.99749  19844724.0434   19844731.4114
  19150496.985   -13727859.53849 -10680426.09649  19150496.7474   19150505.3044
  21529620.297    -4575238.77549  -3535934.15049  21529619.8944   21529628.8294
 96 12 10 18 29 29.9930000  0  6  1 29 25 14 15 22
  22385289.024     5170219.67049   4012652.32249  22385288.3374   22385299.3164
  19592821.889   -22392424.64149 -17434674.95549  19592822.1714   19592829.0684
  19234244.937   -11657057.45249  -8908400.85449  19234245.3294   19234252.4194
  19819461.641   -27946127.58249 -21755883.94049  19819461.8224   19819469.2164
  19148551.218   -13738086.05249 -10688394.84449  19148550.7644   19148558.6894
  21501170.047    -4724746.92149  -3652433.96749  21501169.4704   21501177.4514
 96 12 10 18 29 59.9930000  0  6  1 29 25 14 15 22
  22388340.020     5186253.24049   4025145.95349  22388340.0754   22388348.8114
  19574992.013   -22486121.47349 -17507685.47249  19574992.0754   19574999.0344
  19232198.109   -11667813.73649  -8916782.39949  19232198.4664   19232204.9154
  19794216.845   -28078790.32049 -21859257.49649  19794216.7494   19794224.0764
  19146696.923   -13747830.28049 -10695987.78949  19146696.8184   19146704.8384
  21472730.937    -4874195.72249  -3768887.51649  21472729.8684   21472738.2454
 96 12 10 18 30 29.9930000  0  6  1 29 25 14 15 22
  22391363.495     5202140.75449   4037525.78649  22391363.5424   22391372.7554
  19557165.633   -22579800.41849 -17580682.05449  19557165.8164   19557172.2814
  19230202.255   -11678302.71549  -8924955.64549  19230202.3884   19230209.5424
  19768977.171   -28211425.66549 -21962609.71449  19768976.9824   19768984.5944
  19144919.551   -13757170.60049 -10703265.98949  19144919.1084   19144926.9714
  21444289.625    -5023654.69049  -3885348.98749  21444289.3974   21444298.0314
 96 12 10 18 30 59.9930000  0  6  1 29 25 14 15 22
  22394374.269     5217961.51349   4049853.58249  22394374.5074   22394382.7044
  19539357.239   -22673384.57249 -17653604.77549  19539357.6044   19539363.9604
  19228271.238   -11688450.00349  -8932862.62949  19228270.8854   19228278.6654
  19743759.309   -28343946.63049 -22065872.79349  19743759.0404   19743766.6864
  19143233.782   -13766029.83449 -10710169.31949  19143233.5254   19143241.5234
  21415860.494    -5173050.80949  -4001761.50449  21415860.2284   21415867.9344
 96 12 10 18 31 29.9930000  0  6  1 29 25 14 15 22
  22397378.110     5233745.64949   4062152.86949  22397377.7984   22397386.2544
  19521577.339   -22766818.43149 -17726410.38049  19521576.8844   19521584.0464
  19226410.560   -11698226.92249  -8940481.01549  19226410.1634   19226418.3524
  19718571.614   -28476308.70949 -22169012.07549  19718571.0774   19718578.9484
  19141646.870   -13774369.36749 -10716667.68949  19141646.3044   19141654.7214
  21387450.148    -5322348.45749  -4118097.27749  21387450.4264   21387458.7484
 96 12 10 18 31 59.9930000  0  6  1 29 25 14 15 22
  22400376.140     5249499.78349   4074428.74849  22400376.1124   22400384.8574
  19503826.454   -22860099.67949 -17799097.07849  19503826.7424   19503833.0284
  19224618.988   -11707641.83449  -8947817.33449  19224619.4434   19224626.7704
  19693418.266   -28608490.04449 -22272010.52049  19693417.8014   19693425.4274
  19140160.146   -13782182.44749 -10722755.83349  19140159.8434   19140167.8444
  21359058.324    -5471548.82149  -4234357.25649  21359058.5514   21359067.5004
 96 12 10 18 32 29.9930000  0  6  1 29 25 14 15 22
  22403371.221     5265238.99449   4086693.01149  22403370.6794   22403380.0554
  19486106.233   -22953220.33649 -17871658.63049  19486106.1294   19486112.8954
  19222898.447   -11716684.28549  -8954863.42549  19222898.9344   19222905.9944
  19668303.361   -28740469.38149 -22374851.56549  19668303.1374   19668310.6274
  19138774.437   -13789464.80849 -10728430.44949  19138774.1724   19138782.5484
  21330684.034    -5620657.67549  -4350545.95749  21330683.4054   21330691.3364
 96 12 10 18 32 59.9930000  0  6  1 29 25 14 15 22
  22406360.945     5280949.32149   4098934.76549  22406361.6794   22406368.8114
  19468414.766   -23046189.55849 -17944102.19249  19468414.4474   19468421.1974
  19221249.780   -11725348.78749  -8961615.01149  19221250.0754   19221256.9734
  19643227.898   -28872241.34149 -22477531.01249  19643227.5374   19643235.8284
  19137488.486   -13796222.43349 -10733696.16949  19137487.8834   19137496.6654
  21302324.309    -5769689.16449  -4466674.37649  21302322.6194   21302331.5494
 96 12 10 18 33 29.9930000  0  6  1 29 25 14 15 22
  22409345.186     5296631.00049   4111154.18849  22409344.2244   22409353.3324
  19450750.254   -23139016.38949 -18016434.79349  19450750.3764   19450757.4524
  19219673.749   -11733631.14849  -8968068.81949  19219674.0674   19219680.5484
  19618193.154   -29003799.98149 -22580044.23549  19618193.2774   19618201.1484
  19136301.063   -13802462.81449 -10738558.84449  19136301.0944   19136308.9794
  21273977.306    -5918652.71449  -4582749.86349  21273975.5034   21273984.4654
 96 12 10 18 33 59.9930000  0  6  1 29 25 14 15 22
  22412322.522     5312277.25449   4123346.01949  22412322.5124   22412332.1364
  19433107.959   -23231727.63349 -18088677.34649  19433107.4104   19433114.7274
  19218171.351   -11741526.28649  -8974220.90449  19218171.5674   19218178.3254
  19593198.559   -29135147.93849 -22682393.29149  19593198.6514   19593206.8534
  19135208.851   -13808203.05749 -10743031.78549  19135208.7114   19135217.1534
  21245641.703    -6067555.80849  -4698778.20249  21245639.5404   21245649.4824
 96 12 10 18 34 29.9930000  0  6  1 29 25 14 15 22
  22415288.017     5327860.10449   4135488.44549  22415287.4294   22415297.2424
  19415484.997   -23324336.59549 -18160840.19549  19415485.3694   19415492.3824
  19216742.802   -11749033.47849  -8980070.70249  19216742.9664   19216750.1464
  19568240.588   -29266302.88749 -22784591.95249  19568240.5394   19568249.0744
  19134207.645   -13813464.69249 -10747131.78349  19134206.9544   19134215.0944
  21217317.161    -6216400.80649  -4814761.30249  21217315.9584   21217325.1964
 96 12 10 18 34 59.9930000  0  6  1 29 25 14 15 22
  22418237.651     5343359.94149   4147566.16949  22418237.7174   22418246.0164
  19397880.836   -23416847.39149 -18232926.53249  19397880.9864   19397887.5904
  19215387.500   -11756155.55549  -8985620.39849  19215387.2144   19215395.1164
  19543313.982   -29397293.20149 -22886662.33049  19543313.8154   19543321.9704
  19133295.385   -13818258.64649 -10750867.34849  19133294.5064   19133303.2014
  21189005.376    -6365178.88449  -4930692.26049  21189004.0384   21189013.6544
 96 12 10 18 35 29.9930000  0  6  1 29 25 14 15 22
  22421171.708     5358778.19149   4159580.32849  22421170.5574   22421179.9294
  19380295.307   -23509260.26249 -18304936.57749  19380295.0114   19380302.1794
  19214103.470   -11762903.34849  -8990878.45549  19214103.4434   19214110.6884
  19518415.841   -29528133.19449 -22988615.57149  19518415.9324   19518423.8374
  19132471.120   -13822589.75949 -10754242.27549  19132471.0364   19132479.1214
  21160710.858    -6513866.79249  -5046552.96649  21160709.5364   21160718.8774
 96 12 10 18 35 59.9930000  0  6  1 29 25 14 15 22
  22424088.074     5374105.00549   4171523.21449  22424088.5874   22424097.3994
  19362728.274   -23601574.95749 -18376870.11149  19362727.8624   19362734.8144
  19212886.888   -11769295.88049  -8995859.67749  19212887.0054   19212894.1374
  19493543.501   -29658838.63349 -23090463.98049  19493543.5314   19493551.0154
  19131734.107   -13826463.87549 -10757261.10349  19131734.3864   19131741.7754
  21132436.817    -6662447.80449  -5162330.38549  21132435.5994   21132444.6344
 96 12 10 18 36 29.9930000  0  6  1 29 25 14 15 22
  22426988.242     5389344.40449   4183398.01249  22426987.1004   22426997.4504
  19345182.342   -23693778.60049 -18448717.13049  19345182.1194   19345189.6254
  19211734.179   -11775353.65549  -9000580.04549  19211734.2734   19211741.5314
  19468695.177   -29789417.43749 -23192213.71049  19468695.4434   19468703.1214
  19131083.337   -13829884.31949 -10759926.40749  19131082.8174   19131091.1964
  21104183.502    -6810920.28649  -5278023.20749  21104183.4884   21104192.9454
 96 12 10 18 36 59.9930000  0  6  1 29 25 14 15 22
  22429875.170     5404515.14749   4195219.29449  22429874.2214   22429883.7424
  19327658.846   -23785865.15949 -18520472.90549  19327659.0104   19327666.1094
  19210642.779   -11781089.29049  -9005049.40349  19210643.3284   19210650.0494
  19443872.161   -29919864.06249 -23293860.44849  19443872.1774   19443879.7334
  19130519.595   -13832847.19449 -10762235.16949  19130518.5184   19130527.1414
  21075950.622    -6959285.31749  -5393632.29949  21075949.3644   21075959.6404
 96 12 10 18 37 29.9930000  0  6  1 29 25 14 15 22
  22432750.481     5419625.98849   4206993.91349  22432749.9804   22432760.7424
  19310157.811   -23877833.99749 -18592136.93849  19310157.5764   19310164.6834
  19209612.188   -11786505.78649  -9009270.08649  19209612.9724   19209619.1874
  19419077.041   -30050163.49249 -23395392.48149  19419077.1234   19419085.0624
  19130043.188   -13835349.46649 -10764185.01249  19130042.4774   19130050.4994
  21047736.815    -7107549.74749  -5509162.98349  21047736.2854   21047745.3914
 96 12 10 18 37 59.9930000  0  6  1 29 25 14 15 22
  22435615.871     5434683.48749   4218726.94449  22435616.2064   22435624.9174
  19292681.002   -23969674.87549 -18663701.26249  19292681.0554   19292688.3604
  19208645.083   -11791589.28349  -9013231.28449  19208645.0924   19208651.8744
  19394312.242   -30180303.64049 -23496800.39949  19394312.0774   19394320.5264
  19129655.406   -13837387.52149 -10765773.14149  19129654.9054   19129662.8514
  21019538.753    -7255731.41549  -5624629.17549  21019537.2074   21019547.0754
 96 12 10 18 38 29.9930000  0  6  1 29 25 14 15 22
  22438472.347     5449692.40949   4230422.13049  22438472.5994   22438480.5874
  19275229.303   -24061384.10949 -18735163.00949  19275229.4464   19275236.5284
  19207743.442   -11796327.22349  -9016923.20849  19207742.8064   19207750.2604
  19369581.045   -30310267.32849 -23598070.81549  19369580.9384   19369589.2074
  19129357.409   -13838953.84149 -10766993.65849  19129356.4924   19129365.0394
  20991356.397    -7403829.71949  -5740030.39549  20991355.4874   20991365.9014
 96 12 10 18 38 59.9920000  0  6  1 29 25 14 15 22
  22441316.486     5464638.03749   4242067.99049  22441316.0404   22441324.7134
  19257802.767   -24152961.82349 -18806522.26449  19257803.4104   19257809.9734
  19206909.009   -11800711.50049  -9020339.54549  19206908.7544   19206916.0234
  19344885.335   -30440044.10449 -23699195.57649  19344885.2054   19344893.3874
  19129148.984   -13840047.87049 -10767846.18149  19129148.4364   19129156.8004
  20963192.104    -7551833.22449  -5855357.75449  20963191.5154   20963201.8174
 96 12 10 18 39 29.9920000  0  6  1 29 25 14 15 22
  22444149.576     5479526.86949   4253669.59449  22444148.9294   22444158.3524
  19240400.434   -24244412.68049 -18877782.66949  19240400.7884   19240406.9434
  19206142.616   -11804738.10149  -9023477.17049  19206142.7244   19206149.7554
  19320224.978   -30569635.24549 -23800175.69649  19320224.5174   19320232.6124
  19129031.054   -13840668.02349 -10768329.45649  19129031.0674   19129039.0594
  20935047.254    -7699735.94849  -5970606.60549  20935045.7094   20935056.0194
 96 12 10 18 39 59.9920000  0  6  1 29 25 14 15 22
  22446972.977     5494364.00949   4265230.91649  22446972.5544   22446982.1154
  19223021.977   -24335737.65249 -18948944.99649  19223021.5794   19223028.6284
  19205442.535   -11808417.39549  -9026344.17449  19205443.3084   19205450.0334
  19295599.988   -30699039.59849 -23901010.27149  19295599.5344   19295607.4594
  19129002.774   -13840818.35049 -10768446.62549  19129003.1874   19129010.8954
  20906926.351    -7847512.79349  -6085757.34949  20906926.3764   20906933.9384
 96 12 10 18 40 29.9920000  0  6  1 29 25 14 15 22
  22449787.123     5509152.23249   4276754.11549  22449787.3364   22449795.1244
  19205666.836   -24426939.22149 -19020011.16149  19205666.9234   19205673.7914
  19204804.385   -11811772.39449  -9028958.48449  19204804.9004   19204811.3964
  19271010.732   -30828256.85149 -24001699.04549  19271010.6474   19271018.3864
  19129062.777   -13840504.59649 -10768202.17549  19129062.8754   19129070.6954
  20878832.536    -7995146.83049  -6200796.79249  20878832.2854   20878842.5184
 96 12 10 18 40 59.9920000  0  6  1 29 25 14 15 22
  22452593.152     5523897.30449   4288243.70849  22452593.2134   22452602.0004
  19188337.640   -24518005.46849 -19090971.89849  19188337.4804   19188344.7224
  19204228.159   -11814801.17049  -9031318.60449  19204228.5794   19204235.3724
  19246459.649   -30957274.56249 -24102232.32849  19246459.8934   19246467.4854
  19129210.345   -13839729.05049 -10767597.87849  19129209.4144   19129218.1474
  20850768.581    -8142623.56549  -6315713.68649  20850766.2854   20850777.5414
 96 12 10 18 41 29.9920000  0  6  1 29 25 14 15 22
  22455391.739     5538603.09549   4299702.69049  22455391.6864   22455400.6124
  19171033.520   -24608938.66149 -19161828.94049  19171033.4004   19171040.3924
  19203713.657   -11817505.59349  -9033425.97749  19203713.9854   19203720.4204
  19221946.747   -31086091.67149 -24202609.29749  19221946.8834   19221954.5664
  19129444.554   -13838497.84449 -10766638.52549  19129443.7024   19129452.6524
  20822734.143    -8289945.82149  -6430510.24049  20822733.0524   20822742.5254
 96 12 10 18 41 59.9920000  0  6  1 29 25 14 15 22
  22458179.630     5553253.22049   4311118.30849  22458177.8974   22458188.3814
  19153753.601   -24699745.00949 -19232587.14249  19153753.4524   19153760.5904
  19203261.285   -11819883.48649  -9035278.89349  19203260.8794   19203268.0104
  19197472.139   -31214706.87949 -24302828.93549  19197471.7074   19197479.5214
  19129764.180   -13836817.88649 -10765329.50549  19129763.6404   19129772.4704
  20794725.529    -8437132.24149  -6545200.91049  20794723.6824   20794732.4044
 96 12 10 18 42 29.9920000  0  6  1 29 25 14 15 22
  22460956.955     5567848.11949   4322490.86649  22460955.8944   22460967.6284
  19136498.878   -24790419.47349 -19303242.58749  19136499.2274   19136505.8494
  19202872.366   -11821926.38649  -9036870.77849  19202871.8684   19202879.3084
  19173039.365   -31343101.70949 -24402876.86149  19173039.4014   19173047.0394
  19130169.413   -13834688.96249 -10763670.65549  19130169.1394   19130177.4654
  20766741.317    -8584189.25549  -6659790.74049  20766740.6354   20766749.3874
 96 12 10 18 42 59.9920000  0  6  1 29 25 14 15 22
  22463724.848     5582392.95049   4333824.40849  22463725.2274   22463734.9674
  19119269.268   -24880962.08249 -19373795.28249  19119269.3754   19119275.9194
  19202548.603   -11823627.00749  -9038195.95549  19202548.1834   19202555.4664
  19148648.491   -31471276.98049 -24502753.69049  19148648.6164   19148655.8204
  19130659.726   -13832112.81949 -10761663.30349  19130659.2404   19130667.4484
  20738781.276    -8731120.11649  -6774282.29149  20738780.3714   20738789.4564
 96 12 10 18 43 29.9920000  0  6  1 29 25 14 15 22
  22466485.730     5596900.08649   4345128.59449  22466485.2664   22466495.6054
  19102061.304   -24971390.70949 -19444259.17149  19102061.0784   19102067.8284
  19202286.592   -11825003.63649  -9039268.66349  19202286.7044   19202293.4344
  19124297.378   -31599242.78449 -24602467.29549  19124297.1354   19124304.5714
  19131234.763   -13829090.98349 -10759308.66349  19131234.3924   19131243.0044
  20710844.614    -8877928.31749  -6888678.26249  20710844.7214   20710853.1424
 96 12 10 18 43 59.9920000  0  6  1 29 25 14 15 22
  22469239.949     5611372.69549   4356405.85449  22469238.9504   22469249.2914
  19084874.646   -25061706.82049 -19514635.37749  19084874.2174   19084881.3884
  19202082.613   -11826076.00449  -9040104.29549  19202082.6054   19202089.3214
  19099986.618   -31726996.63949 -24702015.75049  19099986.4254   19099993.8574
  19131893.304   -13825630.43749 -10756612.18449  19131892.4364   19131901.0434
  20682933.204    -9024604.54549  -7002971.39949  20682931.4354   20682942.2304
 96 12 10 18 44 29.9920000  0  6  1 29 25 14 15 22
  22471990.252     5625826.43149   4367668.41249  22471989.2464   22471999.4004
  19067712.081   -25151896.30949 -19584912.91849  19067712.0284   19067718.7984
  19201936.923   -11826841.63149  -9040700.90849  19201936.8764   19201943.9404
  19075717.673   -31854530.94449 -24801393.12649  19075717.4464   19075724.9184
  19132636.043   -13821727.00749 -10753570.58949  19132635.8024   19132644.1694
  20655052.760    -9171117.58749  -7117137.37749  20655052.2654   20655061.2784
 96 12 10 18 44 59.9920000  0  6  1 29 25 14 15 22
  22474734.078     5640245.20349   4378903.75349  22474733.2464   22474742.8944
  19050571.678   -25241969.41249 -19655099.76749  19050571.6944   19050578.5874
  19201849.681   -11827299.39949  -9041057.61249  19201849.3364   19201856.6594
  19051487.612   -31981860.43149 -24900610.89649  19051487.0804   19051495.6364
  19133462.390   -13817385.36049 -10750187.52949  19133462.4204   19133469.8004
  20627204.051    -9317462.95849  -7231172.70649  20627203.8544   20627212.7734
 96 12 10 18 45 29.9920000  0  6  1 29 25 14 15 22
  22477469.573     5654620.02249   4390104.82349  22477468.5524   22477479.4094
  19033454.095   -25331922.80549 -19725193.33149  19033453.9344   19033461.4154
  19201824.969   -11827428.41949  -9041158.15149  19201824.0944   19201832.1744
  19027300.618   -32108963.47649 -24999652.22049  19027300.3044   19027308.4874
  19134373.678   -13812596.55349 -10746456.02749  19134373.5494   19134381.5784
  20599389.402    -9463629.90249  -7345068.97049  20599387.7314   20599399.2084
 96 12 10 18 45 59.9920000  0  6  1 29 25 14 15 22
  22480194.711     5668940.37449   4401263.43649  22480196.0344   22480204.7014
  19016363.110   -25421736.12449 -19795177.73849  19016363.0364   19016370.4294
  19201869.495   -11827193.12649  -9040974.81649  19201869.1834   19201876.8454
  19003158.809   -32235829.40949 -25098508.78649  19003158.8274   19003166.1484
  19135371.192   -13807354.89149 -10742371.65849  19135370.5094   19135379.6314
  20571611.109    -9609604.13749  -7458815.05549  20571609.9814   20571619.3544
 96 12 10 18 46 29.9920000  0  5 29 25 14 15 22
  18999299.650   -25511405.31449 -19865049.84449  18999299.7484   18999306.5634
  19201987.926   -11826570.62149  -9040489.77249  19201987.9004   19201995.8834
  18979063.176   -32362453.07849 -25197176.57849  18979062.8584   18979070.6274
  19136456.108   -13801652.95649 -10737928.64949  19136455.6074   19136464.5124
  20543869.154    -9755388.45649  -7572413.17749  20543868.0564   20543877.8134
 96 12 10 18 46 59.9920000  0  5 29 25 14 15 22
  18982263.171   -25600932.84849 -19934811.56549  18982263.2934   18982270.2564
  19202180.036   -11825561.16149  -9039703.20649  19202180.3374   19202187.6214
  18955014.542   -32488829.11349 -25295651.40949  18955014.3774   18955022.3484
  19137630.463   -13795481.55349 -10733119.80549  19137630.0444   19137639.0954
  20516163.805    -9900981.67049  -7685862.40149  20516164.0854   20516172.9684
 96 12 10 18 47 29.9920000  0  5 29 25 14 15 22
  18965257.029   -25690301.05849 -20004449.13749  18965257.1464   18965263.9604
  19202443.858   -11824175.50149  -9038623.50549  19202443.8854   19202450.7564
  18931013.856   -32614953.78049 -25393930.36549  18931013.7724   18931021.8044
  19138893.687   -13788843.07449 -10727947.01149  19138893.7004   19138902.3504
  20488497.203   -10046371.05449  -7799152.78649  20488495.7604   20488505.0114
 96 12 10 18 47 59.9920000  0  5 29 25 14 15 22
  18948282.898   -25779501.00349 -20073955.60449  18948283.1374   18948289.8614
  19202775.845   -11822430.89149  -9037264.09049  19202776.8344   19202782.9634
  18907059.976   -32740832.41349 -25492017.61149  18907059.9354   18907067.1484
  19140245.772   -13781738.79249 -10722411.25349  19140244.8644   19140253.6454
  20460873.341   -10191535.27449  -7912267.70349  20460873.1824   20460882.0404
 96 12 10 18 48 29.9920000  0  5 29 25 14 15 22
  18931337.678   -25868548.40049 -20143343.19549  18931338.0274   18931345.3814
  19203169.500   -11820363.53149  -9035653.18649  19203169.7724   19203176.2464
  18883153.742   -32866460.80449 -25589909.86349  18883153.5854   18883161.0404
  19141683.694   -13774181.33249 -10716522.36449  19141682.9994   19141691.8804
  20433289.021   -10336492.57749  -8025221.41249  20433288.8584   20433296.7884
 96 12 10 18 48 59.9920000  0  5 29 25 14 15 22
  18914422.082   -25957440.62649 -20212609.86849  18914422.3884   18914429.2524
  19203620.318   -11817994.89949  -9033807.53149  19203620.7504   19203627.4914
  18859295.366   -32991837.04749 -25687605.62649  18859295.4414   18859302.8584
  19143206.038   -13766181.42549 -10710288.72649  19143205.6454   19143214.2024
  20405746.730   -10481228.85349  -8138002.87749  20405745.9364   20405754.7604
 96 12 10 18 49 29.9920000  0  5 29 25 14 15 22
  18897536.600   -26046174.68049 -20281753.29849  18897536.6984   18897543.7764
  19204128.115   -11815326.66249  -9031728.41149  19204128.2994   19204134.9684
  18835486.358   -33116954.15549 -25785099.47349  18835485.8344   18835493.7714
  19144810.211   -13757751.82049 -10703720.25249  19144810.1644   19144817.9634
  20378246.721   -10625741.68549  -8250610.24149  20378245.9744   20378255.1494
 96 12 10 18 49 59.9920000  0  5 29 25 14 15 22
  18880680.921   -26134751.63949 -20350774.30449  18880681.3164   18880687.6464
  19204694.639   -11812350.15849  -9029409.10549  19204694.9664   19204701.8904
  18811730.354   -33241791.85249 -25882375.58949  18811730.0704   18811737.7074
  19146497.346   -13748886.71049 -10696812.40749  19146497.1864   19146504.3064
  20350787.570   -10770040.54649  -8363050.88049  20350786.7534   20350795.6104
 96 12 10 18 50 29.9920000  0  5 29 25 14 15 22
  18863857.043   -26223162.06549 -20419665.54949  18863857.0244   18863864.2524
  19205321.319   -11809057.19349  -9026843.18249  19205321.1734   19205329.0504
  18788029.603   -33366339.85449 -25979425.97449  18788029.5884   18788036.9734
  19148267.680   -13739583.65149 -10689563.31549  19148267.2204   19148275.7254
  20323368.132   -10914130.47949  -8475328.70949  20323367.5254   20323376.3224
 96 12 10 18 50 59.9920000  0  5 29 25 14 15 22
  18847064.330   -26311408.04049 -20488428.63749  18847064.5994   18847071.2154
  19206009.870   -11805439.10049  -9024023.92049  19206009.7964   19206017.6934
  18764382.095   -33490608.53449 -26076258.71049  18764382.1394   18764389.5024
  19150120.455   -13729847.00749 -10681976.37849  19150119.7284   19150128.8744
  20295991.093   -11057996.92949  -8587432.40949  20295990.1484   20295999.7704
 96 12 10 18 51 29.9920000  0  5 29 25 14 15 22
  18830298.693   -26399512.31649 -20557081.32749  18830298.5864   18830305.4844
  19206758.943   -11801502.24249  -9020956.26449  19206758.5884   19206767.0594
  18740785.642   -33614608.89149 -26172882.36049  18740785.2644   18740793.1994
  19152053.469   -13719689.19649 -10674061.25349  19152053.1794   19152061.9734
  20268653.071   -11201659.28349  -8699377.05849  20268652.6444   20268660.3984
 96 12 10 18 51 59.9920000  0  5 29 25 14 15 22
  18813554.240   -26487505.36149 -20625647.33949  18813554.8174   18813561.1704
  19207565.475   -11797264.04149  -9017653.80849  19207565.3294   19207573.1114
  18717235.597   -33738364.93549 -26269315.63749  18717235.4884   18717243.3494
  19154063.018   -13709128.93149 -10665832.51149  19154062.1794   19154071.3764
  20241352.461   -11345125.90749  -8811169.21949  20241351.3244   20241361.0304
 96 12 10 18 52 29.9910000  0  6 29 25 16 14 15 22
  18796831.260   -26575384.84149 -20694124.85049  18796830.9254   18796838.3294
  19208430.470   -11792717.84049  -9014111.34049  19208430.5304   19208438.5284
  22245032.365    -8314970.23649  -6083319.35449  22245031.9654   22245040.8414
  18693734.901   -33861862.03449 -26365547.13749  18693734.7874   18693743.0624
  19156149.028   -13698166.30949 -10657290.24849  19156148.8244   19156157.1354
  20214096.832   -11488354.75449  -8922776.09249  20214096.0234   20214105.0044
 96 12 10 18 52 59.9910000  0  6 29 25 16 14 15 22
  18780128.046   -26663160.87649 -20762521.75649  18780128.2284   18780135.1694
  19209353.770   -11787866.56849  -9010331.16149  19209353.9214   19209361.5204
  22214875.489    -8473445.71449  -6206806.71349  22214875.0324   22214882.7304
  18670282.861   -33985103.36349 -26461579.33749  18670282.5924   18670290.4654
  19158312.044   -13686800.50449 -10648433.80449  19158312.1864   19158320.3554
  20186887.930   -11631338.91849  -9034192.32349  20186887.0394   20186895.6764
 96 12 10 18 53 29.9910000  0  6 29 25 16 14 15 22
  18763446.583   -26750822.64349 -20830829.61949  18763447.1464   18763453.8204
  19210334.133   -11782714.55349  -9006316.62249  19210333.9734   19210341.7014
  22184711.820    -8631957.11349  -6330322.06149  22184710.5744   22184720.0834
  18646882.129   -34108074.80049 -26557401.22749  18646882.2024   18646889.9834
  19160551.272   -13675033.54349 -10639264.78349  19160551.5164   19160559.2434
  20159727.150   -11774069.70049  -9145411.09149  20159727.1314   20159735.2614
 96 12 10 18 53 59.9910000  0  6 29 25 16 14 15 22
  18746788.391   -26838362.68749 -20899042.63549  18746788.4584   18746795.3414
  19211367.935   -11777281.61249  -9002083.19649  19211367.5074   19211375.5524
  22154538.538    -8790519.00849  -6453876.76349  22154538.4724   22154546.4524
  18623533.291   -34230774.19749 -26653011.13949  18623533.1664   18623541.0874
  19162865.518   -13662872.79649 -10629788.90949  19162865.0754   19162873.4154
  20132614.002   -11916550.31949  -9256434.94549  20132613.1224   20132621.7934
 96 12 10 18 54 29.9910000  0  6 29 25 16 14 15 22
  18730156.122   -26925765.79349 -20967148.95249  18730156.2434   18730163.1104
  19212448.658   -11771601.68249  -8997657.30449  19212448.7094   19212456.4394
  22124351.217    -8949153.50649  -6577487.99849  22124349.5814   22124358.7774
  18600235.207   -34353206.38749 -26748412.83749  18600234.9154   18600242.3014
  19165251.676   -13650333.26349 -10620017.88549  19165250.8834   19165260.0044
  20105542.383   -12058812.28749  -9367288.42049  20105541.3834   20105550.0394
 96 12 10 18 54 59.9910000  0  6 29 25 16 14 15 22
  18713549.288   -27013035.40449 -21035151.24349  18713549.5094   18713556.1664
  19213574.456   -11765685.92849  -8993047.65149  19213574.6694   19213582.2234
  22094149.458    -9107863.85049  -6701158.36649  22094149.1494   22094157.6134
  18576985.247   -34475385.67149 -26843617.46649  18576984.5714   18576992.1724
  19167708.882   -13637421.18149 -10609956.57549  19167709.3014   19167717.1384
  20078506.126   -12200888.07949  -9477996.82849  20078505.2604   20078514.8144
 96 12 10 18 55 29.9910000  0  6 29 25 16 14 15 22
  18696968.413   -27100168.63149 -21103047.26049  18696968.4984   18696975.2434
  19214746.912   -11759524.68949  -8988246.70649  19214747.5474   19214754.7254
  22063935.193    -9266640.72749  -6824880.57849  22063934.4764   22063943.6014
  18553783.098   -34597313.56749 -26938626.21449  18553782.7634   18553790.5174
  19170236.556   -13624138.85549 -10599606.75249  19170236.3724   19170244.6774
  20051504.296   -12342783.94449  -9588565.03949  20051503.6134   20051512.6624
 96 12 10 18 55 59.9910000  0  6 29 25 16 14 15 22
  18680413.544   -27187165.35049 -21170836.91149  18680413.7494   18680420.0954
  19215967.982   -11753109.07249  -8983247.55349  19215968.2124   19215975.5374
  22033710.149    -9425473.38649  -6948646.24149  22033709.7004   22033719.7324
  18530628.785   -34718990.22449 -27033439.19749  18530628.5634   18530636.0824
  19172835.513   -13610481.36249 -10588964.58249  19172835.2124   19172843.1464
  20024537.171   -12484497.05249  -9698990.84949  20024536.4124   20024546.4864
 96 12 10 18 56 29.9910000  0  6 29 25 16 14 15 22
  18663879.712   -27274051.65549 -21238540.53149  18663879.8954   18663885.8154
  19217240.329   -11746423.63649  -8978038.12949  19217240.7414   19217247.8594
  22003476.508    -9584352.26949  -7072447.90449  22003476.3504   22003484.1844
  18507519.937   -34840427.94349 -27128065.99249  18507519.7514   18507527.5674
  19175504.281   -13596457.13649 -10578036.66849  19175503.9954   19175512.3864
  19997604.969   -12626026.72949  -9809273.69549  19997604.2274   19997613.3014
 96 12 10 18 56 59.9910000  0  6 29 25 16 14 15 22
  18647362.045   -27360852.59649 -21306177.62449  18647361.5704   18647368.5374
  19218569.893   -11739438.25649  -8972594.98849  19218569.9614   19218576.8524
  21973236.011    -9743268.06849  -7196278.35649  21973235.4464   21973243.7774
  18484455.362   -34961633.11449 -27222511.57949  18484455.6084   18484463.0654
  19178242.551   -13582068.19049 -10566824.55349  19178242.2994   19178250.7724
  19970711.954   -12767351.01549  -9919396.50449  19970711.4644   19970720.3574
 96 12 10 18 57 29.9910000  0  6 29 25 16 14 15 22
  18630865.103   -27447544.53649 -21373729.79149  18630864.8914   18630871.8804
  19219959.106   -11732138.04849  -8966906.52249  19219959.0194   19219966.3974
  21942990.278    -9902209.91149  -7320129.11349  21942988.9954   21942998.4494
  18461441.279   -35082573.88949 -27316751.14049  18461441.4404   18461448.8784
  19181051.866   -13567305.79349 -10555321.42849  19181051.6544   19181059.7534
  19943866.729   -12908423.64049 -10029323.20549  19943866.0994   19943874.8084
 96 12 10 18 57 59.9910000  0  6 29 25 16 14 15 22
  18614389.384   -27534124.47349 -21441194.68049  18614389.2564   18614396.5074
  19221406.763   -11724530.30149  -8960978.42049  19221405.9684   19221414.1054
  21912739.779   -10061175.96949  -7443998.71949  21912738.7374   21912749.5774
  18438479.401   -35203239.70449 -27410776.44949  18438479.1374   18438487.1864
  19183931.813   -13552172.09849 -10543528.97749  19183931.6404   19183940.3484
  19917071.863   -13049231.16249 -10139043.33049  19917071.2484   19917079.6154
 96 12 10 18 58 29.9910000  0  6 29 25 16 14 15 22
  18597935.668   -27620589.50749 -21508570.04549  18597935.7174   18597942.1004
  19222908.619   -11716637.25049  -8954828.00249  19222908.3774   19222916.3784
  21882484.893   -10220165.26349  -7567886.46349  21882484.4914   21882494.1834
  18415570.114   -35323628.50549 -27504585.91749  18415569.7164   18415577.7374
  19186880.223   -13536678.11549 -10531455.78349  19186878.9904   19186887.9964
  19890329.655   -13189762.28849 -10248548.07349  19890328.7424   19890337.9334
 96 12 10 18 58 59.9910000  0  6 29 25 16 14 15 22
  18581504.988   -27706932.89549 -21575850.61349  18581505.2624   18581511.8464
  19224458.028   -11708494.81749  -8948483.27349  19224457.7354   19224465.5694
  21852221.967   -10379197.00449  -7691807.30249  21852221.4924   21852231.5164
  18392711.644   -35443749.84049 -27598186.96249  18392711.4414   18392719.5244
  19189893.533   -13520841.60449 -10519115.71149  19189892.2944   19189902.6634
  19863640.772   -13330013.36649 -10357834.60449  19863639.2094   19863648.7484
 96 12 10 18 59 29.9910000  0  6 29 25 16 14 15 22
  18565095.503   -27793165.60949 -21643044.93849  18565095.3724   18565102.3124
  19226046.890   -11700144.32249  -8941976.39349  19226046.7254   19226054.6914
  21821949.203   -10538281.01249  -7815768.84549  21821948.7194   21821958.0994
  18369903.944   -35563605.16149 -27691580.71149  18369903.7704   18369912.1554
  19192968.958   -13504678.36249 -10506521.03349  19192968.0454   19192978.1074
  19837002.256   -13469999.20249 -10466914.44249  19837001.6604   19837010.8044
 96 12 10 18 59 59.9910000  0  6 29 25 16 14 15 22
  18548701.920   -27879314.69649 -21710174.10349  18548702.3014   18548708.5334
  19227673.188   -11691597.43549  -8935316.48149  19227673.0994   19227681.0954
  21791665.656   -10697421.07049  -7939774.04949  21791665.5744   21791675.3674
  18347141.523   -35683222.34949 -27784788.89749  18347141.2184   18347149.6204
  19196105.590   -13488194.63249 -10493676.61349  19196104.9834   19196114.5554
  19810410.360   -13609739.97149 -10575803.32349  19810409.5894   19810418.7924
 96 12 10 19  0 29.9910000  0  6 29 25 16 14 15 22
  18532324.343   -27965379.27749 -21777237.41449  18532323.9494   18532331.2454
  19229338.159   -11682848.48149  -8928499.12749  19229338.3264   19229345.6294
  21761372.464   -10856612.73049  -8063819.47549  21761372.7154   21761382.4964
  18324425.661   -35802594.34449 -27877806.03249  18324425.4644   18324433.4564
  19199304.172   -13471385.42149 -10480578.57349  19199304.0084   19199312.6914
  19783866.809   -13749226.83649 -10684494.35249  19783865.9654   19783875.2464
 96 12 10 19  0 59.9910000  0  6 29 25 16 14 15 22
  18515967.956   -28051332.49749 -21844213.95049  18515967.6624   18515974.5474
  19231052.762   -11673838.66649  -8921478.50849  19231053.2894   19231060.3014
  21731075.240   -11015825.70049  -8187881.50349  21731075.0304   21731084.4714
  18301765.742   -35921672.40649 -27970594.13049  18301765.5614   18301774.0164
  19202572.366   -13454210.99849 -10467195.95249  19202572.0164   19202581.8304
  19757376.068   -13888436.80149 -10792969.62549  19757373.9954   19757384.8064
 96 12 10 19  1 29.9910000  0  6 29 25 16 14 15 22
  18499633.411   -28137170.57349 -21911100.75849  18499633.1104   18499640.3104
  19232822.518   -11664539.34749  -8914232.30649  19232823.4134   19232829.7544
  21700778.640   -11175034.65449  -8311940.39649  21700777.9744   21700787.0904
  18279165.888   -36040435.30449 -28063136.63949  18279165.7074   18279173.8424
  19205912.750   -13436657.35849 -10453517.84149  19205912.1244   19205921.5304
  19730938.442   -14027367.32949 -10901227.16749  19730937.8464   19730946.1164
 96 12 10 19  1 59.9910000  0  6 29 25 16 14 15 22
  18483316.861   -28222914.32849 -21977914.06949  18483316.8164   18483323.9564
  19234642.622   -11654976.17849  -8906780.50549  19234642.5844   19234649.9064
  21670476.821   -11334272.30049  -8436021.67549  21670477.0214   21670485.5634
  18256620.761   -36158910.93349 -28155455.29949  18256621.3144   18256628.5754
  19209318.824   -13418759.28249 -10439571.34149  19209319.0554   19209326.9814
  19704548.643   -14166046.96249 -11009289.19549  19704547.9854   19704556.7264
 96 12 10 19  2 29.9910000  0  6 29 25 16 14 15 22
  18467018.440   -28308562.86149 -22044653.18549  18467018.5094   18467025.4794
  19236507.176   -11645177.30349  -8899145.03849  19236506.8734   19236514.2124
  21640167.213   -11493550.44449  -8560134.51149  21640167.4344   21640177.4354
  18234131.653   -36277092.93749 -28247545.16549  18234131.7534   18234139.3844
  19212786.534   -13400537.79349 -10425372.82249  19212786.4554   19212795.3214
  19678203.855   -14304490.18749 -11117167.00349  19678203.3334   19678211.4884
 96 12 10 19  2 59.9910000  0  6 29 25 16 14 15 22
  18450737.838   -28394118.21449 -22111319.68749  18450737.8604   18450745.1154
  19238414.007   -11635156.30749  -8891336.48949  19238414.1234   19238420.9554
  21609851.297   -11652861.19249  -8684272.71449  21609850.6524   21609861.2734
  18211700.423   -36394970.40949 -28339397.72049  18211700.2624   18211708.0564
  19216315.064   -13381997.00049 -10410925.48749  19216314.6524   19216324.1734
  19651902.797   -14442703.63949 -11224865.75449  19651902.3314   19651910.8214
 96 12 10 19  3 29.9910000  0  6 29 25 16 14 15 22
  18434475.625   -28479577.05449 -22177910.97649  18434475.9484   18434482.7184
  19240358.792   -11624936.37449  -8883372.91149  19240358.6074   19240365.9714
  21579529.786   -11812203.47649  -8808435.51749  21579530.2424   21579538.7174
  18189325.234   -36512552.96949 -28431020.48649  18189325.0124   18189333.1724
  19219902.013   -13363147.41049 -10396237.55949  19219901.0994   19219910.0364
  19625647.493   -14580675.87849 -11332376.56549  19625646.4784   19625655.2644
 96 12 10 19  3 59.9910000  0  6 29 25 16 14 15 22
  18418232.176   -28564937.25149 -22244425.40349  18418232.3834   18418239.4354
  19242337.675   -11614536.82849  -8875269.37949  19242337.2374   19242345.3304
  21549200.209   -11971587.95749  -8932631.20749  21549200.4194   21549208.5624
  18167004.251   -36629850.19549 -28522420.90449  18167003.7254   18167011.8124
  19223545.674   -13343998.41249 -10381316.30749  19223544.5074   19223554.1414
  19599436.838   -14718413.86149 -11439704.84149  19599435.7134   19599444.6204
 96 12 10 19  4 29.9910000  0  6 29 25 16 14 15 22
  18402008.034   -28650195.71449 -22310860.54849  18402007.7654   18402015.1604
  19244350.239   -11603959.87049  -8867027.61749  19244350.0744   19244358.0744
  21518861.996   -12131017.72349  -9056862.17949  21518862.2624   21518869.6354
  18144735.056   -36746874.79449 -28613608.89649  18144734.6624   18144742.6144
  19227245.074   -13324557.10649 -10366167.28249  19227244.6954   19227254.0024
  19573270.813   -14855916.73349 -11546849.92449  19573270.0974   19573279.0844
 96 12 10 19  4 59.9900000  0  6 29 25 16 14 15 22
  18385802.219   -28735356.98649 -22377219.97049  18385802.0344   18385809.2654
  19246398.301   -11593197.41749  -8858641.30549  19246398.1064   19246405.8534
  21488514.023   -12290496.90849  -9181131.64449  21488512.0534   21488523.0424
  18122514.558   -36863643.91849 -28704597.80749  18122514.7044   18122522.5854
  19230997.943   -13304836.19749 -10350800.39949  19230997.6774   19231007.2224
  19547148.675   -14993188.89549 -11653815.21349  19547147.9514   19547156.5664
 96 12 10 19  5 29.9900000  0  6 29 25 16 14 15 22
  18369613.773   -28820427.74849 -22443508.87049  18369613.5714   18369620.6034
  19248482.923   -11582242.70449  -8850105.18349  19248482.9834   19248490.9374
  21458150.279   -12450059.05549  -9305465.76449  21458149.7324   21458158.3214
  18100336.147   -36980192.84749 -28795415.14949  18100336.0284   18100343.9704
  19234800.771   -13284852.21349 -10335228.51049  19234799.9154   19234810.2244
  19521069.115   -15130238.34749 -11760606.97349  19521068.1364   19521077.3814
 96 12 10 19  5 59.9900000  0  6 29 25 16 14 15 22
  18353442.175   -28905409.65049 -22509728.52849  18353442.5264   18353449.0714
  19250605.184   -11571090.71549  -8841415.34449  19250605.5134   19250613.3274
  21427771.952   -12609698.02249  -9429859.75949  21427771.2534   21427779.9684
  18078200.281   -37096517.35149 -28886057.61049  18078200.1324   18078208.5054
  19238653.100   -13264608.27849 -10319454.07249  19238652.5784   19238662.1844
  19495032.830   -15267060.12649 -11867221.31749  19495032.1804   19495040.9954
 96 12 10 19  6 29.9900000  0  6 29 25 16 14 15 22
  18337285.259   -28990315.03949 -22575888.55849  18337284.9124   18337292.0144
  19252767.127   -11559730.62649  -8832563.34149  19252767.4664   19252775.0514
  21397379.514   -12769411.43549  -9554311.76149  21397378.3234   21397387.2424
  18056109.861   -37212603.05449 -28976513.99249  18056109.8054   18056117.5574
  19242554.093   -13244108.35249 -10303480.17249  19242553.5974   19242563.2784
  19469043.523   -15403635.23149 -11973643.44949  19469043.2624   19469050.5964
 96 12 10 19  6 59.9900000  0  6 29 25 16 14 15 22
  18321142.721   -29075144.41049 -22641989.35849  18321142.8274   18321149.4974
  19254973.420   -11548137.66049  -8823529.88249  19254973.5494   19254981.4244
  21366975.992   -12929182.21249  -9678808.47749  21366974.8414   21366984.4164
  18034072.539   -37328410.34049 -29066753.42949  18034072.6614   18034079.9924
  19246506.342   -13223339.03649 -10287296.35049  19246506.1514   19246516.1144
  19443105.966   -15539937.21949 -12079852.75549  19443104.7394   19443113.2064
 96 12 10 19  7 29.9900000  0  6 29 25 16 14 15 22
  18305016.615   -29159887.39449 -22708022.84549  18305016.7214   18305024.0404
  19257224.690   -11536307.58349  -8814311.66249  19257224.5714   19257232.3984
  21336565.066   -13088992.54249  -9803335.98649  21336563.8044   21336573.5824
  18012091.897   -37443919.87149 -29156760.83949  18012091.7284   18012099.2594
  19250512.373   -13202287.52049 -10270892.63849  19250512.1584   19250521.8894
  19417227.225   -15675929.05749 -12185820.37849  19417225.6944   19417235.6434
 96 12 10 19  7 59.9900000  0  6 29 25 16 14 15 22
  18288907.387   -29244541.63649 -22773987.19449  18288907.3434   18288914.8144
  19259518.167   -11524254.10949  -8804919.35749  19259517.4444   19259525.9004
  21306150.476   -13248821.23949  -9927877.80949  21306149.3204   21306159.2704
  17990170.108   -37559119.81549 -29246527.01849  17990169.9744   17990177.5704
  19254573.497   -13180946.68449 -10254263.47449  19254572.9074   19254582.4474
  19391410.450   -15811596.09449 -12291534.91249  19391409.5174   19391418.6604
 96 12 10 19  8 29.9900000  0  6 29 25 16 14 15 22
  18272815.733   -29329103.44249 -22839879.50349  18272815.9534   18272822.9034
  19261853.148   -11511982.55649  -8795357.12049  19261852.5874   19261861.1254
  21275733.844   -13408659.98949 -10052427.43149  21275733.8764   21275743.2384
  17968308.310   -37674004.74149 -29336047.72749  17968308.3294   17968316.3044
  19258688.874   -13159319.70549 -10237411.34949  19258688.8174   19258698.2814
  19365656.057   -15946935.35549 -12396994.01249  19365655.2764   19365664.4584
 96 12 10 19  8 59.9900000  0  6 29 25 16 14 15 22
  18256742.907   -29413567.54449 -22905695.68749  18256743.0304   18256750.1594
  19264225.889   -11499512.40149  -8785640.13349  19264225.6544   19264233.9244
  21245314.798   -13568512.92249 -10176988.14749  21245314.7754   21245323.5494
  17946503.031   -37788592.26949 -29425336.69249  17946502.8354   17946510.9114
  19262857.523   -13137414.15349 -10220342.14149  19262857.3714   19262866.9574
  19339961.517   -16081960.25449 -12502208.19449  19339961.2934   19339970.5814
 96 12 10 19  9 29.9900000  0  6 29 25 16 14 15 22
  18240690.772   -29497921.70049 -22971426.18949  18240691.0624   18240697.7604
  19266635.296   -11486850.45149  -8775773.68749  19266635.5364   19266643.5914
  21214898.270   -13728352.66149 -10301538.54949  21214897.0224   21214907.5454
  17924755.019   -37902879.13849 -29514391.38549  17924754.9004   17924762.6764
  19267080.966   -13115221.27549 -10203049.06149  19267081.2974   19267090.5674
  19314328.842   -16216661.61749 -12607170.26649  19314329.0084   19314337.4614
 96 12 10 19  9 59.9900000  0  6 29 25 16 14 15 22
  18224659.924   -29582164.82349 -23037070.18349  18224660.1704   18224667.0284
  19269081.154   -11473998.05949  -8765758.84949  19269081.0634   19269089.0964
  21184484.680   -13888176.52449 -10426076.58449  21184484.2174   21184494.6074
  17903069.091   -38016839.13149 -29603191.36349  17903068.4244   17903076.5144
  19271358.146   -13092745.46749 -10185535.50749  19271358.3764   19271367.4594
  19288754.767   -16351055.57249 -12711892.77949  19288754.1034   19288763.1124
 96 12 10 19 10 29.9900000  0  6 29 25 16 14 15 22
  18208650.314   -29666295.58449 -23102626.62049  18208650.6234   18208657.2564
  19271564.415   -11460948.85249  -8755590.65449  19271564.4844   19271571.9914
  21154073.312   -14047990.29249 -10550606.77349  21154073.2404   21154082.3134
  17881447.701   -38130459.42949 -29691726.65749  17881447.4824   17881455.4524
  19275688.388   -13069990.71649 -10167804.60249  19275687.8594   19275698.2674
  19263237.522   -16485149.68549 -12816381.66749  19263236.9994   19263244.9034
 96 12 10 19 10 59.9900000  0  6 29 25 16 14 15 22
  18192660.617   -29750322.41149 -23168102.06149  18192660.5034   18192667.5254
  19274081.795   -11447720.03449  -8745282.50549  19274082.5904   19274089.5794
  21123661.948   -14207804.65949 -10675137.41149  21123662.4734   21123670.2584
  17859889.481   -38243748.12049 -29780003.55349  17859889.1964   17859897.4254
  19280069.795   -13046967.16149 -10149864.21449  19280069.2964   19280078.7114
  19237777.030   -16618945.60349 -12920638.19849  19237775.2954   19237785.2194
 96 12 10 19 11 29.9900000  0  6 29 25 16 14 15 22
  18176690.177   -29834247.25649 -23233498.04549  18176690.7094   18176696.9624
  19276632.054   -11434319.68549  -8734840.70549  19276632.7754   19276639.2584
  21093250.134   -14367621.38849 -10799669.89049  21093250.2674   21093259.4524
  17838396.412   -38356694.75449 -29868013.90349  17838396.2954   17838404.5114
  19284501.703   -13023677.94249 -10131716.84249  19284501.8474   19284510.4084
  19212374.815   -16752433.83449 -13024654.96249  19212374.3904   19212384.0544
 96 12 10 19 11 59.9900000  0  6 29 25 16 14 15 22
  18160738.984   -29918071.91449 -23298815.94649  18160738.9624   18160745.7334
  19279213.542   -11420753.86849  -8724269.96349  19279213.9284   19279220.2704
  21062833.093   -14527464.65049 -10924223.04849  21062832.3354   21062841.7764
  17816965.105   -38469317.04349 -29955771.51949  17816965.0024   17816973.1074
  19288982.689   -13000130.87849 -10113368.53549  19288983.5654   19288991.8624
  19187029.696   -16885623.47349 -13128439.05349  19187029.0664   19187037.3384
 96 12 10 19 12 29.9900000  0  7 18 29 25 16 14 15 22
  21720712.303    -9673170.78349  -5812596.05949  21720712.5244   21720722.8734
  18144805.730   -30001801.81249 -23364060.01949  18144806.1624   18144812.4094
  19281825.839   -11407026.71549  -8713573.49749  19281826.0804   19281832.3504
  21032411.935   -14687328.80149 -11048792.49349  21032412.2144   21032420.9434
  17795590.787   -38581639.93649 -30043295.83749  17795590.7594   17795598.7604
  19293512.798   -12976325.71949 -10094819.14349  19293511.9604   19293521.1674
  19161743.549   -17018504.33949 -13231982.57149  19161742.2624   19161750.4384
 96 12 10 19 12 59.9900000  0  7 18 29 25 16 14 15 22
  21693733.272    -9814945.93149  -5923070.23049  21693734.6204   21693742.6044
  18128887.927   -30085451.03149 -23429241.21849  18128887.9624   18128894.9534
  19284466.349   -11393150.78449  -8702761.10349  19284466.2924   19284473.2114
  21001986.984   -14847212.76249 -11173377.35249  21001985.5884   21001995.1724
  17774272.846   -38693666.88449 -30130589.56049  17774272.9374   17774280.4974
  19298090.533   -12952269.19049 -10076073.85949  19298089.6114   19298099.0724
  19136515.489   -17151078.53449 -13335287.11449  19136514.9964   19136522.5814
 96 12 10 19 13 29.9900000  0  7 18 29 25 16 14 15 22
  21666749.894    -9956745.80049  -6033563.70549  21666750.4814   21666757.7814
  18112986.618   -30169012.75549 -23494354.24549  18112986.6704   18112993.6764
  19287139.192   -11379104.34749  -8691815.86449  19287139.1814   19287146.7944
  20971560.731   -15007103.55449 -11297967.51649  20971559.3224   20971569.8444
  17753015.070   -38805378.21949 -30217637.34549  17753015.0434   17753022.7554
  19302717.685   -12927952.47149 -10057125.85649  19302717.5674   19302726.3794
  19111347.255   -17283339.04149 -13438347.24049  19111345.8914   19111354.9814
 96 12 10 19 13 59.9900000  0  7 18 29 25 16 14 15 22
  21639758.654   -10098585.91149  -6144088.51149  21639758.2474   21639767.6224
  18097102.715   -30252483.13549 -23559396.08849  18097102.5274   18097110.0744
  19289848.041   -11364869.92949  -8680724.16149  19289848.0164   19289855.5584
  20941136.479   -15166983.24349 -11422549.05049  20941135.9334   20941146.0704
  17731817.398   -38916772.78449 -30304438.30449  17731817.1684   17731825.2064
  19307394.728   -12903375.47849 -10037975.03149  19307394.6594   19307402.9724
  19086238.102   -17415287.87849 -13541164.51049  19086237.4334   19086245.7434
 96 12 10 19 14 29.9900000  0  7 18 29 25 16 14 15 22
  21612760.922   -10240459.59949  -6254639.45049  21612761.6064   21612769.8394
  18081238.078   -30335852.40949 -23624359.14649  18081238.0494   18081245.0964
  19292592.512   -11350447.00249  -8669485.55449  19292592.0764   19292600.1164
  20910716.746   -15326840.54149 -11547113.12749  20910715.5434   20910724.7054
  17710683.830   -39027830.28949 -30390976.60849  17710683.7194   17710691.8114
  19312120.621   -12878542.53849 -10018624.75249  19312120.6474   19312129.0134
  19061190.988   -17546911.78449 -13643728.58849  19061190.2534   19061198.8204
 96 12 10 19 14 59.9900000  0  7 18 29 25 16 14 15 22
  21585755.467   -10382375.07949  -6365222.95049  21585756.6024   21585763.4604
  18065394.814   -30419108.87849 -23689234.30449  18065394.8874   18065401.7784
  19295373.454   -11335832.90849  -8658097.98349  19295373.5514   19295381.8524
  20880299.481   -15486683.97849 -11671666.41849  20880298.4204   20880308.0414
  17689617.433   -39138534.29749 -30477239.45549  17689616.8834   17689625.2574
  19316893.179   -12853463.22449  -9999082.49649  19316893.0734   19316902.1024
  19036206.767   -17678204.74149 -13746034.77349  19036205.9394   19036214.6014
 96 12 10 19 15 29.9900000  0  7 18 29 25 16 14 15 22
  21558742.801   -10524327.98649  -6475835.60749  21558741.5844   21558753.0324
  18049572.605   -30502254.98549 -23754023.47349  18049572.2914   18049579.3964
  19298191.404   -11321025.04249  -8646559.42049  19298191.2704   19298199.5364
  20849883.321   -15646520.97949 -11796214.69349  20849882.1074   20849892.6844
  17668615.367   -39248899.96549 -30563238.67149  17668615.1624   17668623.2354
  19321710.290   -12828150.51149  -9979358.35449  19321710.2884   19321717.3584
  19011286.343   -17809162.35449 -13848079.64449  19011286.0514   19011294.3694
 96 12 10 19 15 59.9900000  0  7 18 29 25 16 14 15 22
  21531728.221   -10666290.05649  -6586455.38249  21531727.8254   21531738.3424
  18033772.487   -30585284.29249 -23818721.62649  18033772.4494   18033779.1924
  19301045.046   -11306028.72649  -8634874.01349  19301045.0254   19301053.5164
  20819470.105   -15806342.29349 -11920750.76149  20819469.2114   20819479.4244
  17647679.240   -39358920.13049 -30648968.66149  17647679.0064   17647687.4024
  19326571.135   -12802606.63349  -9959454.08149  19326570.1944   19326579.3564
  18986433.248   -17939767.18349 -13949849.61349  18986432.2964   18986441.4944
 96 12 10 19 16 29.9900000  0  7 18 29 25 16 14 15 22
  21504714.868   -10808247.32649  -6697071.43649  21504716.4054   21504724.7864
  18017994.351   -30668198.84049 -23883330.34949  18017993.9224   18018001.4394
  19303934.118   -11290846.97249  -8623044.11549  19303934.3944   19303942.4724
  20789059.476   -15966151.01949 -12045277.00449  20789058.4144   20789069.1764
  17626811.466   -39468581.10149 -30734418.75049  17626811.1734   17626819.5694
  19331475.338   -12776833.49349  -9939371.17549  19331474.4394   19331484.1954
  18961650.062   -18070003.59349 -14051332.50249  18961649.2034   18961657.6854
 96 12 10 19 16 59.9900000  0  7 18 29 25 16 14 15 22
  21477704.284   -10950188.83249  -6807675.20249  21477703.0064   21477714.6694
  18002236.029   -30751009.38749 -23947858.04349  18002236.2914   18002243.1344
  19306860.792   -11275468.02649  -8611060.56249  19306861.1184   19306868.9304
  20758653.830   -16125933.63949 -12169782.93249  20758653.0144   20758662.5914
  17606011.993   -39577883.24849 -30819589.24249  17606011.8124   17606019.9734
  19336424.887   -12750822.59049  -9919103.00549  19336423.1434   19336433.0534
  18936939.332   -18199859.22549 -14152518.69249  18936938.3904   18936946.9414
 96 12 10 19 17 29.9900000  0  7 18 29 25 16 14 15 22
  21450697.908   -11092107.93249  -6918261.46949  21450697.0414   21450706.2454
  17986497.419   -30833716.67849 -24012305.27149  17986497.3074   17986504.4794
  19309825.413   -11259889.13049  -8598921.20149  19309825.7964   19309833.4424
  20728256.695   -16285670.43649 -12294253.13849  20728255.8274   20728265.8644
  17585282.158   -39686819.58749 -30904474.68449  17585282.2424   17585289.8904
  19341421.487   -12724563.70149  -9898641.55749  19341420.8334   19341431.5234
  18912302.847   -18329324.72349 -14253400.87749  18912301.6864   18912310.4214
 96 12 10 19 17 59.9890000  0  7 18 29 25 16 14 15 22
  21423695.031   -11234009.11449  -7028833.85249  21423696.2344   21423703.6434
  17970779.805   -30916313.55349 -24076666.46649  17970780.2684   17970786.7904
  19312825.969   -11244121.71149  -8586634.92749  19312825.9394   19312833.5344
  20697870.878   -16445348.78049 -12418677.80749  20697871.0524   20697879.8144
  17564624.965   -39795374.85749 -30989063.19449  17564624.8334   17564632.6184
  19346465.382   -12698057.42949  -9877987.38549  19346464.3614   19346475.2854
  18887739.908   -18458403.23349 -14353981.50149  18887738.4914   18887747.5804
 96 12 10 19 18 29.9890000  0  7 18 29 25 16 14 15 22
  21396689.139   -11375927.88449  -7139419.91949  21396686.1624   21396698.0654
  17955082.783   -30998802.23149 -24140943.35049  17955082.7754   17955089.6284
  19315860.919   -11228173.19649  -8574207.52649  19315861.0984   19315868.6754
  20667492.219   -16604989.88249 -12543073.43349  20667491.1344   20667501.3594
  17544035.838   -39903571.72649 -31073372.43849  17544035.5674   17544043.5564
  19351555.769   -12671307.38449  -9857143.24449  19351555.6474   19351565.5374
  18863247.598   -18587110.61449 -14454272.93049  18863245.8674   18863255.4434
 96 12 10 19 18 59.9890000  0  7 18 29 25 16 14 15 22
  21369677.120   -11517875.38149  -7250028.33749  21369675.8814   21369686.0564
  17939409.006   -31081168.41749 -24205124.78149  17939409.6854   17939416.3984
  19318928.936   -11212051.35749  -8561645.09149  19318928.4844   19318936.5504
  20637122.738   -16764581.29849 -12667430.36149  20637122.2184   20637131.9984
  17523515.992   -40011403.96649 -31157397.54449  17523515.5234   17523523.6614
  19356691.757   -12644317.94349  -9836112.56749  19356691.3614   19356701.0414
  18838825.475   -18715449.31549 -14554277.07549  18838824.6534   18838833.6664
 96 12 10 19 19 29.9890000  0  7 18 29 25 16 14 15 22
  21342659.942   -11659851.43149  -7360659.07549  21342660.6244   21342668.2954
  17923764.696   -31163380.26649 -24269185.95749  17923764.3564   17923771.4644
  19322031.327   -11195748.23049  -8548941.37749  19322031.1264   19322038.2054
  20606766.744   -16924103.41649 -12791733.27649  20606766.6724   20606775.5604
  17503070.648   -40118844.28249 -31241117.26649  17503069.6774   17503077.8244
  19361874.769   -12617080.52549  -9814888.66449  19361873.5444   19361884.8734
  18814474.586   -18843413.48749 -14653989.35749  18814473.2314   18814482.9484
 96 12 10 19 19 59.9890000  0  7 18 29 25 16 14 15 22
  21315638.546   -11801849.44349  -7471306.87949  21315637.1214   21315648.0974
  17908151.518   -31245427.67049 -24333118.99249  17908151.4654   17908158.5304
  19325168.839   -11179260.22349  -8536093.61349  19325168.7244   19325175.5954
  20576425.694   -17083547.97349 -12915975.73449  20576424.8284   20576435.4704
  17482701.863   -40225881.87649 -31324523.17249  17482701.2084   17482709.5944
  19367105.122   -12589592.69449  -9793469.64449  19367104.7724   19367115.3224
  18790198.327   -18970984.90249 -14753395.61349  18790197.1774   18790207.0024
 96 12 10 19 20 29.9890000  0  7 18 29 25 16 14 15 22
  21288614.662   -11943860.26249  -7581964.67349  21288614.2794   21288622.9444
  17892569.408   -31327312.02149 -24396924.97049  17892569.0924   17892576.7664
  19328341.251   -11162588.36449  -8523102.59049  19328341.3384   19328348.3344
  20546097.703   -17242922.96549 -13040163.98849  20546096.8634   20546106.5054
  17462410.336   -40332514.24849 -31407613.32849  17462410.2354   17462418.1694
  19372382.574   -12561860.01749  -9771859.85049  19372382.3494   19372392.9034
  18765998.847   -19098153.26249 -14852487.80749  18765998.0804   18766007.9664
 96 12 10 19 20 59.9890000  0  7 18 29 25 16 14 15 22
  21261589.012   -12085881.12249  -7692630.29149  21261586.9404   21261598.7154
  17877012.626   -31409063.20149 -24460627.18649  17877012.7724   17877019.8654
  19331547.921   -11145737.90949  -8509972.39749  19331547.7384   19331555.1474
  20515780.269   -17402241.52149 -13164308.26349  20515778.1324   20515789.2094
  17442196.287   -40438739.74749 -31490386.42749  17442195.8594   17442204.3324
  19377703.816   -12533898.55649  -9750071.77549  19377704.1754   19377713.1354
  18741872.811   -19224936.92349 -14951280.24749  18741872.3724   18741881.5474
 96 12 10 19 21 29.9890000  0  7 18 29 25 16 14 15 22
  21234563.173   -12227902.27049  -7803296.09949  21234562.5984   21234572.7394
  17861477.342   -31490702.07449 -24524241.89649  17861477.6764   17861484.3594
  19334787.022   -11128716.11349  -8496708.67349  19334787.4154   19334793.7034
  20485470.539   -17561519.06749 -13288420.58449  20485470.9144   20485480.0044
  17422055.173   -40544581.60249 -31572860.59349  17422055.0224   17422063.4364
  19383066.166   -12505720.11349  -9728114.61749  19383066.2624   19383076.1354
  18717820.036   -19351335.26049 -15049772.42349  18717819.1834   18717828.0744
 96 12 10 19 21 59.9890000  0  7 18 29 25 16 14 15 22
  21207540.916   -12369905.56849  -7913947.97449  21207541.1354   21207551.5224
  17845963.046   -31572230.36949 -24587770.42449  17845963.1174   17845970.0934
  19338056.380   -11111536.24649  -8483321.78049  19338056.4724   19338063.4534
  20455166.225   -17720769.72949 -13412511.95049  20455166.4234   20455174.8684
  17401985.373   -40650049.26149 -31655043.18049  17401985.0564   17401993.3234
  19388469.047   -12477327.78949  -9705990.77749  19388468.8824   19388479.3354
  18693842.132   -19477339.95049 -15147957.86849  18693841.0034   18693850.2374
 96 12 10 19 22 29.9890000  0  7 18 29 25 16 14 15 22
  21180522.658   -12511887.22049  -8024582.95849  21180523.1494   21180530.5674
  17830470.946   -31653641.84149 -24651207.93549  17830471.2524   17830478.3854
  19341356.962   -11094192.09649  -8469806.88249  19341356.8574   19341364.2584
  20424867.834   -17879989.68649 -13536579.39049  20424867.2694   20424876.9474
  17381986.529   -40755143.61549 -31736934.88449  17381986.6214   17381994.4064
  19393912.751   -12448720.98549  -9683699.83349  19393912.3644   19393922.8964
  18669937.016   -19602961.62149 -15245844.86049  18669935.5234   18669945.6414
 96 12 10 19 22 59.9890000  0  7 18 29 25 16 14 15 22
  21153506.933   -12653856.37949  -8135208.24049  21153506.8424   21153514.6814
  17815002.179   -31734931.17949 -24714550.26349  17815002.1114   17815009.6464
  19344689.115   -11076681.71549  -8456162.45149  19344688.6914   19344696.7834
  20394579.314   -18039158.79749 -13660607.22449  20394579.0574   20394587.9964
  17362058.681   -40859866.10149 -31818536.80449  17362058.9374   17362066.8214
  19399397.781   -12419898.37449  -9661240.73449  19399398.0864   19399407.9644
  18646106.100   -19728193.75849 -15343428.32149  18646105.5904   18646114.5104
 96 12 10 19 23 29.9890000  0  7 18 29 25 16 14 15 22
  21126492.118   -12795820.57249  -8245829.61149  21126490.8954   21126499.5364
  17799558.762   -31816086.60449 -24777788.25249  17799558.7824   17799565.9454
  19348048.781   -11059027.04149  -8442405.59049  19348048.5554   19348056.8824
  20364301.114   -18198272.95649 -13784592.21149  20364300.8884   20364309.3874
  17342199.531   -40964227.09049 -31899857.05249  17342199.2154   17342207.8034
  19404922.260   -12390868.08949  -9638619.80249  19404921.7924   19404932.5354
  18622352.352   -19853021.43849 -15440696.64149  18622351.5644   18622360.8674
 96 12 10 19 23 59.9890000  0  7 18 29 25 16 14 15 22
  21099472.435   -12937807.32649  -8356468.60949  21099471.8604   21099481.3624
  17784140.061   -31897112.33349 -24840925.18149  17784139.6764   17784147.2914
  19351433.708   -11041238.95149  -8428544.76649  19351433.6614   19351442.0434
  20334033.270   -18357332.76549 -13908534.86649  20334032.3124   20334040.9844
  17322410.721   -41068217.32849 -31980888.39949  17322410.5754   17322418.8804
  19410484.523   -12361639.00149  -9615843.96349  19410484.2914   19410495.2434
  18598674.730   -19977448.33049 -15537652.62849  18598673.7464   18598682.8664
 96 12 10 19 24 29.9890000  0  7 18 29 25 16 14 15 22
  21072444.509   -13079837.93249  -8467141.75349  21072444.2804   21072453.8234
  17768743.648   -31978020.49749 -24903970.49549  17768744.0744   17768750.9804
  19354845.877   -11023307.55549  -8414572.27449  19354845.5994   19354854.6814
  20303778.231   -18516323.81349 -14032423.91649  20303776.9884   20303786.5314
  17302692.542   -41171837.08649 -32061631.06849  17302692.4754   17302700.2984
  19416083.862   -12332215.06249  -9592916.28649  19416083.5154   19416093.7114
  18575075.564   -20101462.13949 -15634286.75549  18575074.3244   18575083.7974
 96 12 10 19 24 59.9890000  0  7 18 29 25 16 14 15 22
  21045410.155   -13221903.67849  -8577842.30249  21045408.1274   21045420.5194
  17753369.538   -32058812.99749 -24966925.68549  17753369.6084   17753376.4864
  19358283.602   -11005242.19349  -8400495.39849  19358283.3494   19358291.7484
  20273536.711   -18675243.96649 -14156257.74449  20273535.9334   20273544.0144
  17283045.853   -41275081.64549 -32142081.36949  17283046.1164   17283053.3894
  19421719.498   -12302599.36249  -9569839.18949  19421718.7144   19421729.5314
  18551558.845   -20225042.31549 -15730582.97349  18551557.8244   18551566.6684
 96 12 10 19 25 29.9890000  0  7 18 29 25 16 14 15 22
  21018371.154   -13363991.63149  -8688560.19249  21018370.1154   21018380.7634
  17738018.028   -32139485.49749 -25029787.35949  17738017.8664   17738025.0324
  19361747.917   -10987036.07949  -8386308.82749  19361747.9314   19361756.7094
  20243308.616   -18834093.38749 -14280036.45549  20243308.1294   20243316.9294
  17263472.129   -41377943.26549 -32222233.26249  17263472.2174   17263479.6984
  19427391.926   -12272789.90649  -9546611.10349  19427390.7274   19427400.4804
  18528125.846   -20348183.25649 -15826536.94849  18528125.4464   18528133.4264
 96 12 10 19 25 59.9890000  0  7 18 29 25 16 14 15 22
  20991327.160   -13506109.07449  -8799301.07049  20991327.4264   20991336.8874
  17722687.859   -32220045.85749 -25092561.65949  17722687.8594   17722694.6304
  19365240.670   -10968681.66849  -8372006.72349  19365240.9634   19365249.2224
  20213091.489   -18992883.42449 -14403768.88749  20213089.7994   20213099.2844
  17243970.653   -41480424.56149 -32302088.79549  17243970.1484   17243978.1514
  19433099.044   -12242798.05749  -9523240.91349  19433098.3564   19433109.1794
  18504773.590   -20470901.00149 -15922161.14049  18504773.0524   18504781.3534
 96 12 10 19 26 29.9890000  0  7 18 29 25 16 14 15 22
  20964282.323   -13648230.78149  -8910045.26149  20964282.2494   20964291.5124
  17707380.139   -32300488.35949 -25155244.11649  17707380.3364   17707387.5244
  19368761.645   -10950179.84149  -8357589.74449  19368761.6354   19368770.2144
  20182887.375   -19151604.36849 -14527447.49149  20182886.6984   20182895.9274
  17224542.151   -41582520.64149 -32381644.17249  17224541.7684   17224549.9964
  19438840.759   -12212625.56749  -9499729.97849  19438840.8214   19438849.8314
  18481501.252   -20593199.06649 -16017458.32049  18481501.0634   18481509.1974
 96 12 10 19 26 59.9890000  0  7 18 29 25 16 14 15 22
  20937243.600   -13790320.31849  -9020764.37349  20937243.9684   20937253.9854
  17692098.877   -32380791.69849 -25217818.13949  17692099.0454   17692106.1054
  19372313.301   -10931515.79649  -8343046.33949  19372313.1574   19372322.0434
  20152699.240   -19310242.38049 -14651061.50249  20152697.5984   20152707.4124
  17205192.613   -41684202.73349 -32460876.96149  17205192.2634   17205200.2674
  19444619.233   -12182260.18449  -9476068.71349  19444618.7814   19444628.7064
  18458308.684   -20715077.08349 -16112428.15649  18458308.1294   18458316.7094
 96 12 10 19 27 29.9890000  0  7 18 29 25 16 14 15 22
  20910213.439   -13932366.76249  -9131449.89449  20910214.5004   20910221.6264
  17676847.476   -32460938.39649 -25280270.12049  17676847.4334   17676854.3494
  19375900.284   -10912665.64349  -8328357.92749  19375900.3534   19375908.7104
  20122531.093   -19468775.91949 -14774594.08449  20122531.2224   20122539.5874
  17185926.507   -41785446.55649 -32539768.22949  17185926.3414   17185934.3444
  19450436.936   -12151688.38749  -9452246.62949  19450436.4634   19450446.8074
  18435198.415   -20836522.48449 -16207060.90949  18435197.7884   18435205.5344
 96 12 10 19 27 59.9890000  0  7 18 29 25 16 14 15 22
  20883193.250   -14074360.74349  -9242094.50649  20883194.8054   20883202.7174
  17661626.238   -32540926.08849 -25342598.18849  17661626.1914   17661633.0414
  19379523.375   -10893626.19449  -8313522.01149  19379523.0454   19379531.5634
  20092389.238   -19627172.62249 -14898020.03949  20092388.8894   20092397.9844
  17166747.921   -41886231.03949 -32618301.57349  17166747.4184   17166755.6164
  19456295.384   -12120902.62949  -9428257.80549  19456294.9774   19456303.7924
  18412173.181   -20957520.87649 -16301345.35349  18412172.3784   18412181.1194
 96 12 10 19 28 29.9890000  0  7 18 29 25 16 14 15 22
  20856184.016   -14216296.88649  -9352694.07549  20856181.7364   20856192.5034
  17646433.819   -32620762.98749 -25404808.75349  17646434.0884   17646441.0544
  19383183.250   -10874392.89249  -8298535.05349  19383182.7924   19383191.6064
  20062278.230   -19785406.04149 -15021318.73949  20062277.7044   20062288.2734
  17147659.332   -41986541.07949 -32696465.22349  17147658.8534   17147667.2514
  19462195.393   -12089898.80949  -9404099.03549  19462195.5524   19462204.6224
  18389235.025   -21078061.40749 -16395273.00349  18389234.3284   18389242.5104
 96 12 10 19 28 59.9890000  0  7 18 29 25 16 14 15 22
  20829183.067   -14358186.29349  -9463257.17349  20829182.4874   20829192.4024
  17631269.900   -32700449.79449 -25466902.36049  17631270.1364   17631277.1054
  19386880.454   -10854962.17449  -8283394.25349  19386879.8924   19386888.5354
  20032198.519   -19943476.66349 -15144490.59649  20032197.9384   20032206.9214
  17128661.117   -42086376.98849 -32774259.42249  17128661.1854   17128668.9114
  19468136.313   -12058679.69149  -9379772.52449  19468136.3604   19468143.8614
  18366388.315   -21198121.52549 -16488826.29949  18366387.7444   18366395.6264
 96 12 10 19 29 29.9890000  0  7 18 29 25 16 14 15 22
  20802189.951   -14500036.40849  -9573789.69149  20802189.6844   20802198.0914
  17616136.306   -32779977.48549 -25528871.99149  17616136.6124   17616143.6564
  19390614.328   -10835338.99949  -8268103.49449  19390614.1374   19390622.7194
  20002151.179   -20101376.30049 -15267529.22949  20002150.3094   20002159.3964
  17109753.541   -42185737.82149 -32851683.44249  17109753.3044   17109761.4664
  19474118.858   -12027241.66949  -9355275.43149  19474118.2984   19474127.4324
  18343636.127   -21317685.47549 -16581992.97649  18343635.3854   18343643.7334
 96 12 10 19 29 59.9880000  0  7 18 29 25 16 14 15 22
  20775205.306   -14641841.30949  -9684286.93549  20775205.5444   20775213.4744
  17601033.758   -32859341.82649 -25590714.33549  17601033.6984   17601041.1324
  19394383.608   -10815531.67049  -8252669.24149  19394383.4884   19394391.7874
  19972136.658   -20259103.73249 -15390433.67349  19972136.0484   19972145.8004
  17090938.009   -42284614.16349 -32928729.92949  17090938.0604   17090946.2464
  19480142.720   -11995585.97349  -9330608.71349  19480142.1784   19480152.5204
  18320979.015   -21436749.08249 -16674769.77249  18320978.3914   18320986.9484
 96 12 10 19 30 29.9880000  0  7 18 29 25 16 14 15 22
  20748227.866   -14783609.88649  -9794755.89849  20748227.1914   20748236.3404
  17585963.876   -32938534.31749 -25652422.77549  17585963.8514   17585971.3084
  19398187.028   -10795544.24349  -8237094.66649  19398187.5544   19398195.6734
  19942144.483   -20416713.10449 -15513246.11649  19942144.2114   19942153.4724
  17072213.579   -42383011.82549 -33005403.42949  17072213.8024   17072221.6074
  19486207.538   -11963715.85049  -9305774.93449  19486208.1194   19486216.8124
  18298416.365   -21555316.46449 -16767159.89649  18298415.3514   18298423.9834
 96 12 10 19 30 59.9880000  0  7 18 29 25 16 14 15 22
  20721258.406   -14925336.03649  -9905191.75949  20721258.6414   20721267.0794
  17570930.088   -33017537.45649 -25713983.66649  17570929.9484   17570937.1944
  19402023.168   -10775386.12149  -8221387.07249  19402023.6694   19402031.2474
  19912172.417   -20574216.64649 -15635976.10349  19912170.7514   19912181.5794
  17053580.382   -42480929.78949 -33081703.13549  17053580.5024   17053588.5294
  19492312.798   -11931633.48149  -9280775.75849  19492312.9434   19492322.6784
  18275949.155   -21673382.11449 -16859159.07749  18275948.4544   18275956.5614
 96 12 10 19 31 29.9880000  0  7 18 29 25 16 14 15 22
  20694296.371   -15067020.77549 -10015595.37249  20694296.6574   20694306.6154
  17555931.947   -33096353.32149 -25775398.62449  17555932.0814   17555938.7434
  19405890.616   -10755063.56849  -8205551.32649  19405890.8714   19405898.8894
  19882218.891   -20731621.85249 -15758629.48049  19882218.5474   19882227.8564
  17035038.941   -42578365.91049 -33157627.39449  17035038.9984   17035046.9164
  19498456.836   -11899346.75749  -9255617.36649  19498457.3394   19498465.9474
  18253571.667   -21790975.84049 -16950790.50849  18253570.8964   18253579.8074
 96 12 10 19 31 59.9880000  0  7 18 29 25 16 14 15 22
  20667343.629   -15208656.87649 -10125961.07849  20667343.5764   20667353.1874
  17540969.988   -33174979.02349 -25836665.39449  17540970.2794   17540977.2094
  19409791.620   -10734564.86249  -8189578.35349  19409790.7814   19409799.2444
  19852286.010   -20888920.42949 -15881199.74549  19852285.1994   19852295.0114
  17016590.762   -42675311.88049 -33233169.70149  17016591.0594   17016598.7384
  19504639.609   -11866856.25149  -9230300.16349  19504639.7194   19504648.2484
  18231286.202   -21908086.49549 -17042045.54049  18231285.3744   18231294.0674
 96 12 10 19 32 29.9880000  0  7 18 29 25 16 14 15 22
  20640403.602   -15350226.01849 -10236274.60449  20640401.9774   20640410.7594
  17526046.349   -33253403.07149 -25897775.02849  17526046.4614   17526054.2884
  19413727.956   -10713879.59349  -8173459.99849  19413728.1664   19413736.1694
  19822377.702   -21046089.38549 -16003669.00149  19822377.3344   19822386.5854
  16998236.038   -42771767.29449 -33308329.74949  16998235.8464   16998243.7844
  19510862.384   -11834156.12449  -9204819.62749  19510862.3314   19510870.9704
  18209096.437   -22024694.18849 -17132908.63549  18209095.2464   18209104.5624
 96 12 10 19 32 59.9880000  0  7 18 29 25 16 14 15 22
  20613477.369   -15491722.65049 -10346531.67049  20613476.2374   20613484.4064
  17511161.155   -33331625.45149 -25958727.53049  17511161.5254   17511168.2344
  19417701.452   -10692999.70949  -8157189.99749  19417701.7054   19417709.3064
  19792503.690   -21203078.11149 -16125997.82949  19792503.4954   19792512.7184
  16979972.437   -42867743.56549 -33383116.45749  16979972.1304   16979980.1344
  19517125.908   -11801242.44349  -9179172.66949  19517125.0254   19517134.6344
  18187003.515   -22140792.48249 -17223374.78649  18187002.4304   18187011.6394
 96 12 10 19 33 29.9880000  0  7 18 29 25 16 14 15 22
  20586565.268   -15633146.88849 -10456732.28149  20586564.7384   20586573.7414
  17496314.625   -33409644.26049 -26019521.38649  17496314.7534   17496322.0874
  19421710.577   -10671930.80049  -8140772.69049  19421710.9194   19421718.4144
  19762667.553   -21359868.06749 -16248171.77349  19762666.5314   19762677.3094
  16961800.208   -42963238.44649 -33457528.04949  16961799.3114   16961808.0084
  19523428.828   -11768119.67749  -9153362.79849  19523428.4924   19523438.6604
  18165010.215   -22256367.04349 -17313432.85849  18165009.0264   18165018.8654
 96 12 10 19 33 59.9880000  0  7 18 29 25 16 14 15 22
  20559664.069   -15774513.49049 -10566888.03049  20559662.0224   20559671.2034
  17481505.626   -33487466.20849 -26080161.84849  17481505.6654   17481513.1174
  19425752.736   -10650687.68849  -8124219.65449  19425752.2424   19425761.6684
  19732870.081   -21516455.23949 -16370187.71149  19732869.5594   19732878.9444
  16943715.143   -43058274.79449 -33531582.34549  16943714.9904   16943723.1844
  19529769.645   -11734798.03549  -9127397.96649  19529767.6334   19529779.0604
  18143120.296   -22371399.01949 -17403068.13749  18143119.5604   18143128.8484
 96 12 10 19 34 29.9880000  0  7 18 29 25 16 14 15 22
  20532771.013   -15915836.06449 -10677009.46549  20532770.5494   20532780.9814
  17466731.397   -33565104.78149 -26140659.41449  17466731.2644   17466738.3664
  19429822.900   -10629298.47049  -8107552.76449  19429822.7344   19429832.0244
  19703109.049   -21672851.47549 -16492054.85449  19703108.2924   19703117.2764
  16925714.834   -43152867.44349 -33605290.89249  16925715.1814   16925723.0184
  19536144.813   -11701294.85349  -9101291.68049  19536143.6194   19536154.7894
  18121330.591   -22485904.81849 -17492293.40749  18121329.5954   18121339.0734
 96 12 10 19 34 59.9880000  0  7 18 29 25 16 14 15 22
  20505884.659   -16057124.76449 -10787104.47749  20505885.3714   20505893.2404
  17451992.231   -33642559.88449 -26201014.04249  17451992.2674   17451999.3034
  19433920.188   -10607766.96849  -8090775.00349  19433920.4474   19433929.0754
  19673383.316   -21829061.41549 -16613776.85349  19673382.0114   19673391.3714
  16907802.202   -43247000.05449 -33678640.97949  16907801.9824   16907809.8304
  19542553.431   -11667616.48949  -9075048.88549  19542553.3024   19542563.9094
  18099641.032   -22599884.09849 -17581108.37649  18099640.2104   18099648.9324
 96 12 10 19 35 29.9880000  0  7 18 29 25 16 14 15 22
  20479006.454   -16198370.55049 -10897166.04749  20479006.4294   20479015.3734
  17437288.448   -33719828.87849 -26261223.64449  17437288.6164   17437295.0964
  19438045.182   -10586089.33149  -8073883.35849  19438045.9814   19438054.2664
  19643689.851   -21985101.20249 -16735366.26649  19643688.5574   19643697.9534
  16889981.453   -43340648.16149 -33751613.51749  16889981.4194   16889989.7544
  19548995.264   -11633765.58149  -9048671.62849  19548995.6024   19549005.6354
  18078054.067   -22713324.18349 -17669503.21849  18078053.2344   18078062.4254
 96 12 10 19 35 59.9880000  0  7 18 29 25 16 14 15 22
  20452136.100   -16339575.67049 -11007195.95149  20452135.8514   20452143.9384
  17422617.732   -33796924.90449 -26321298.47049  17422617.7334   17422623.8934
  19442197.774   -10564268.21349  -8056879.93249  19442197.1174   19442207.0734
  19614026.649   -22140981.82449 -16856831.65549  19614026.4024   19614034.8694
  16872251.639   -43433819.02549 -33824214.18349  16872251.8734   16872259.5964
  19555468.923   -11599748.36449  -9022164.79649  19555469.2904   19555477.7484
  18056568.851   -22826229.52149 -17757481.36149  18056568.1584   18056577.1354
 96 12 10 19 36 29.9880000  0  7 18 29 25 16 14 15 22
  20425273.683   -16480738.31849 -11117192.76149  20425274.8064   20425283.0364
  17407978.718   -33873852.45349 -26381242.01649  17407978.5074   17407985.0684
  19446377.533   -10542300.99649  -8039762.63049  19446377.1234   19446386.6774
  19584392.023   -22296712.66849 -16978180.33549  19584391.1384   19584401.1704
  16854616.910   -43526490.82949 -33896425.98249  16854616.9124   16854625.3174
  19561973.112   -11565570.01949  -8995532.39449  19561973.3784   19561983.1064
  18035184.340   -22938606.00049 -17845047.42449  18035183.6624   18035192.3994
 96 12 10 19 36 59.9880000  0  7 18 29 25 16 14 15 22
  20398418.970   -16621860.70149 -11227158.18249  20398418.3194   20398426.5434
  17393371.831   -33950611.67249 -26441054.37849  17393372.0794   17393378.3184
  19450587.680   -10520175.43449  -8022521.98449  19450587.9784   19450597.4844
  19554785.336   -22452296.34149 -17099414.31049  19554784.6544   19554794.0824
  16837076.336   -43618667.10249 -33968251.64449  16837075.8454   16837084.5334
  19568507.074   -11531234.42049  -8968777.45949  19568506.2754   19568516.7724
  18013901.378   -23050448.73149 -17932197.56549  18013900.8564   18013909.4124
 96 12 10 19 37 29.9880000  0  7 18 29 25 16 14 15 22
  20371570.337   -16762951.43449 -11337098.97149  20371570.7654   20371579.5174
  17378795.913   -34027209.32549 -26500740.86349  17378796.2904   17378802.7624
  19454825.267   -10497905.72749  -8005169.02449  19454825.5154   19454834.9874
  19525205.947   -22607737.43849 -17220537.21649  19525205.7214   19525215.1604
  16819625.748   -43710370.04049 -34039708.49449  16819625.6154   16819633.8574
  19575069.842   -11496746.31649  -8941903.72149  19575069.9614   19575080.4444
  17992717.595   -23161770.35449 -18018941.65749  17992716.9514   17992725.9044
 96 12 10 19 37 59.9880000  0  7 18 29 25 16 14 15 22
  20344725.144   -16904024.27549 -11447025.81349  20344724.5904   20344732.8494
  17364249.287   -34103653.54449 -26560307.78249  17364249.0414   17364255.7724
  19459088.365   -10475502.23349  -7987711.77049  19459089.8524   19459098.2994
  19495653.284   -22763037.56049 -17341550.28349  19495653.7404   19495662.5004
  16802264.194   -43801605.30849 -34110800.91849  16802263.8554   16802272.2274
  19581660.312   -11462112.94349  -8914916.76149  19581659.9694   19581670.5394
  17971628.469   -23272594.59149 -18105298.17749  17971627.9614   17971636.3624
 96 12 10 19 38 29.9880000  0  7 18 29 25 16 14 15 22
  20317883.747   -17045077.31449 -11556937.17249  20317884.4114   20317892.2604
  17349730.941   -34179947.47849 -26619757.59949  17349730.8714   17349738.0014
  19463377.013   -10452967.63449  -7970152.38349  19463378.4434   19463386.2684
  19466127.753   -22918195.44949 -17462452.47949  19466126.7014   19466136.3424
  16784991.988   -43892371.37949 -34181527.70949  16784991.7324   16785000.5504
  19588276.471   -11427344.66849  -8887824.67249  19588276.2984   19588286.8714
  17950631.683   -23382933.79749 -18191276.73849  17950631.0974   17950639.6724
 96 12 10 19 38 59.9880000  0  7 18 29 25 16 14 15 22
  20291045.585   -17186112.87449 -11666834.89849  20291044.6224   20291053.0924
  17335240.162   -34256096.52449 -26679094.51449  17335239.9534   17335247.3614
  19467687.460   -10430318.90949  -7952504.07149  19467688.8594   19467696.6774
  19436631.255   -23073201.02249 -17583235.98549  19436631.1704   19436639.3154
  16767807.421   -43982676.68449 -34251895.47349  16767807.8384   16767816.2324
  19594918.022   -11392442.73949  -8860628.44049  19594917.6614   19594927.8504
  17929725.410   -23492797.44649 -18276884.74049  17929724.5604   17929732.6424
 96 12 10 19 39 29.9880000  0  7 18 29 25 16 14 15 22
  20264211.798   -17327123.75549 -11776713.36749  20264209.4804   20264219.1114
  17320776.485   -34332103.41949 -26738320.65949  17320776.1064   17320784.0924
  19472019.507   -10407555.69649  -7934766.54149  19472019.5714   19472028.5014
  19407167.276   -23228035.98549 -17703886.54349  19407166.1884   19407175.3434
  16750714.614   -44072500.01649 -34321887.68149  16750714.0624   16750722.9864
  19601585.870   -11357403.49449  -8833325.22049  19601584.5654   19601596.6294
  17908910.776   -23602179.25549 -18362117.28049  17908910.0004   17908917.8054
 96 12 10 19 39 59.9880000  0  7 18 29 25 16 14 15 22
  20237384.048   -17468103.56049 -11886567.68049  20237383.5414   20237393.1704
  17306341.720   -34407958.04649 -26797428.14249  17306341.1594   17306348.3194
  19476377.768   -10384653.17649  -7916920.46249  19476378.4044   19476386.7724
  19377739.335   -23382681.24449 -17824389.29049  19377739.6104   19377747.6254
  16733719.091   -44161811.62349 -34391481.14949  16733718.7684   16733727.4544
  19608280.491   -11322222.62849  -8805911.66849  19608279.5914   19608291.5084
  17888191.096   -23711061.18949 -18446960.30349  17888190.3834   17888198.2114
 96 12 10 19 40 29.9880000  0  7 18 29 25 16 14 15 22
  20210564.240   -17609043.93449 -11996391.27749  20210564.4374   20210572.9994
  17291939.754   -34483640.97849 -26856401.84749  17291940.3594   17291946.1414
  19480764.221   -10361603.95149  -7898960.04649  19480764.9074   19480772.4654
  19348351.419   -23537115.94049 -17944727.97049  19348350.4764   19348359.2034
  16716822.498   -44250603.71649 -34460669.80749  16716822.2554   16716830.9464
  19615003.363   -11286892.60349  -8778381.90049  19615003.6364   19615013.8544
  17867572.036   -23819414.73449 -18531391.61849  17867571.1384   17867579.1024
 96 12 10 19 40 59.9880000  0  7 18 29 25 16 14 15 22
  20183750.268   -17749951.49449 -12106189.26049  20183751.2704   20183758.5594
  17277573.704   -34559135.04649 -26915228.37449  17277573.8554   17277579.9474
  19485178.811   -10338405.84549  -7880883.64249  19485179.6814   19485187.4094
  19319002.391   -23691346.54949 -18064907.60449  19319002.1434   19319010.7514
  16700026.815   -44338865.96549 -34529445.59149  16700026.7424   16700034.7454
  19621754.475   -11251415.88349  -8750737.78049  19621754.3324   19621765.2584
  17847054.562   -23927234.44249 -18615406.95349  17847053.4924   17847061.9074
 96 12 10 19 41 29.9880000  0  7 18 29 25 16 14 15 22
  20156946.870   -17890804.96849 -12215945.11249  20156947.4264   20156953.4074
  17263248.756   -34634413.66149 -26973887.02149  17263249.2014   17263255.2044
  19489625.822   -10315037.42349  -7862674.50649  19489626.4424   19489633.5594
  19289693.295   -23845366.95949 -18184923.46249  19289692.7544   19289701.4874
  16683334.773   -44426583.71549 -34597797.08649  16683334.2984   16683342.4794
  19628534.452   -11215788.49049  -8722976.25149  19628534.8284   19628544.3514
  17826643.031   -24034497.21249 -18698988.30849  17826641.8234   17826650.3324
 96 12 10 19 41 59.9880000  0  7 18 29 25 16 14 15 22
  20130156.978   -18031586.81349 -12325645.17449  20130156.7124   20130165.1994
  17248968.723   -34709456.25249 -27032361.76449  17248968.9774   17248974.8974
  19494103.225   -10291509.01949  -7844340.71249  19494104.0534   19494111.1464
  19260423.088   -23999182.15349 -18304779.39849  19260421.5884   19260431.5034
  16666746.399   -44513755.59049 -34665723.22649  16666745.8524   16666754.4794
  19635343.549   -11180007.82549  -8695095.30949  19635343.8344   19635354.2964
  17806339.348   -24141193.90749 -18782128.58749  17806338.7684   17806346.9444
 96 12 10 19 42 29.9870000  0  7 18 29 25 16 14 15 22
  20103383.619   -18172282.20349 -12435277.89149  20103383.3874   20103391.4774
  17234732.666   -34784266.68949 -27090655.60249  17234732.5834   17234739.1194
  19498606.519   -10267844.50249  -7825900.83549  19498606.8154   19498615.3074
  19231189.996   -24152801.51949 -18424482.76449  19231189.2454   19231198.4244
  16650260.204   -44600390.44049 -34733230.89649  16650260.3554   16650268.6614
  19642179.433   -11144084.92349  -8667103.51849  19642178.2934   19642190.1544
  17786144.423   -24247319.28249 -18864823.67949  17786143.7894   17786151.1664
 96 12 10 19 42 59.9870000  0  7 18 29 25 16 14 15 22
  20076623.087   -18312910.19449 -12544858.08549  20076622.7734   20076630.8804
  17220536.668   -34858867.35849 -27148785.98849  17220536.6614   17220543.0254
  19503135.528   -10244043.91349  -7807354.95749  19503136.0204   19503143.9204
  19201989.885   -24306249.35749 -18544052.45749  19201988.7404   19201998.0654
  16633874.992   -44686496.54849 -34800326.57249  16633875.0784   16633882.6794
  19649040.902   -11108027.40749  -8639006.81049  19649040.7824   19649051.4664
  17766055.749   -24352885.67049 -18947083.20949  17766055.0864   17766062.9514
 96 12 10 19 43 29.9870000  0  7 18 29 25 16 14 15 22
  20049875.770   -18453467.48149 -12654383.18549  20049875.7104   20049883.6664
  17206375.758   -34933282.79549 -27206772.04549  17206375.2744   17206382.2704
  19507688.200   -10220120.83249  -7788713.61049  19507689.0884   19507696.3684
  19172826.541   -24459502.64249 -18663470.56049  19172825.0194   19172834.8884
  16617588.836   -44772081.46849 -34867016.12449  16617588.8234   16617596.4704
  19655927.241   -11071839.16749  -8610808.28249  19655926.8654   19655938.0954
  17746075.934   -24457880.28449 -19028897.19649  17746075.0884   17746083.3234
 96 12 10 19 43 59.9870000  0  7 18 29 25 16 14 15 22
  20023143.392   -18593944.89749 -12763846.06249  20023142.8574   20023151.7714
  17192249.615   -35007514.86249 -27264615.21149  17192249.4434   17192256.7484
  19512265.595   -10196068.29449  -7769971.40149  19512265.5104   19512274.2884
  19143703.996   -24612542.03549 -18782721.97749  19143703.7504   19143712.9374
  16601403.007   -44857138.47249 -34933294.31149  16601402.6084   16601411.2384
  19662839.942   -11035512.54649  -8582501.90149  19662840.1694   19662851.2694
  17726207.790   -24562288.25849 -19110254.05949  17726207.0324   17726215.1874
 96 12 10 19 44 29.9870000  0  7 18 29 25 16 14 15 22
  19996424.601   -18734352.96249 -12873254.91849  19996423.9144   19996431.9664
  17178157.301   -35081570.18649 -27322320.66549  17178157.5194   17178164.7244
  19516870.033   -10171872.24849  -7751117.35449  19516869.6024   19516877.8444
  19114624.059   -24765359.09849 -18901800.17749  19114623.9414   19114632.2314
  16585315.584   -44941678.41349 -34999169.60049  16585315.4154   16585323.1664
  19669777.613   -10999055.77949  -8554094.12549  19669777.5464   19669789.8904
  17706450.679   -24666112.92749 -19191156.38949  17706449.8704   17706458.3684
 96 12 10 19 44 59.9870000  0  7 18 29 25 16 14 15 22
  19969717.212   -18874700.96449 -12982616.94649  19969716.0034   19969724.4704
  17164096.851   -35155458.14949 -27379895.70149  17164096.7734   17164104.2874
  19521500.177   -10147539.95849  -7732157.15449  19521500.5264   19521507.7154
  19085587.556   -24917947.06649 -19020699.84149  19085587.7534   19085595.9374
  16569322.455   -45025723.20449 -35064659.04249  16569322.4474   16569330.4704
  19676737.695   -10962481.49449  -8525594.76149  19676737.4384   19676749.1124
  17686802.282   -24769365.65449 -19271613.06249  17686801.4424   17686809.9834
 96 12 10 19 45 29.9870000  0  7 18 29 25 16 14 15 22
  19943022.543   -19014981.44049 -13091926.36449  19943020.9244   19943031.3534
  17150066.522   -35229188.22349 -27437347.71249  17150066.7864   17150074.2234
  19526153.219   -10123089.71949  -7713105.04549  19526153.0664   19526160.1154
  19056593.841   -25070310.91849 -19139424.87449  19056593.0854   19056602.6664
  16553421.092   -45109285.66049 -35129772.64949  16553421.1554   16553428.4924
  19683717.402   -10925803.38749  -8497014.51049  19683717.6264   19683729.1264
  17667260.943   -24872055.52649 -19351631.14549  17667259.6214   17667268.3224
 96 12 10 19 45 59.9870000  0  7 18 29 25 16 14 15 22
  19916339.459   -19155201.48249 -13201188.69049  19916337.7764   19916345.7694
  17136067.289   -35302755.63449 -27494672.98149  17136067.9474   17136075.6184
  19530827.586   -10098524.69549  -7693963.47949  19530827.1004   19530834.6354
  19027639.965   -25222464.02349 -19257985.70249  19027639.4594   19027649.0004
  16537611.845   -45192364.38249 -35194509.31849  16537611.7504   16537619.5314
  19690714.992   -10889031.58849  -8468361.26349  19690714.3024   19690727.3924
  17647826.219   -24974184.44249 -19431212.11349  17647825.1854   17647834.3584
 96 12 10 19 46 29.9870000  0  7 18 29 25 16 14 15 22
  19889664.500   -19295377.81049 -13310416.92149  19889663.9524   19889673.3904
  17122098.822   -35376160.63749 -27551871.67949  17122098.7584   17122106.2934
  19535521.744   -10073856.50549  -7674741.54149  19535522.0304   19535529.0364
  18998724.416   -25374416.21249 -19376389.95649  18998723.2484   18998733.1844
  16521894.589   -45274958.85649 -35258868.64549  16521893.9614   16521902.2554
  19697728.761   -10852174.33749  -8439641.44649  19697728.4864   19697740.6064
  17628496.140   -25075763.93849 -19510364.97349  17628494.7774   17628503.9144
 96 12 10 19 46 59.9870000  0  7 18 29 25 16 14 15 22
  19862997.147   -19435516.30449 -13419615.68049  19862996.5744   19863005.0824
  17108159.567   -35449411.96349 -27608950.64149  17108159.8474   17108166.1794
  19540232.405   -10049103.79549  -7655453.75549  19540232.6684   19540239.1064
  18969845.966   -25526171.90349 -19494641.10849  18969844.6904   18969854.7034
  16506271.479   -45357057.95849 -35322841.97549  16506271.0264   16506279.5064
  19704757.805   -10815236.70549  -8410858.96949  19704758.0204   19704769.2794
  17609270.308   -25176796.17249 -19589091.38549  17609269.2974   17609278.1134
 96 12 10 19 47 29.9870000  0  7 18 29 25 16 14 15 22
  19836334.314   -19575630.38949 -13528795.44649  19836334.7714   19836343.9344
  17094251.351   -35522501.00849 -27665903.15649  17094251.0664   17094257.6204
  19544957.650   -10024272.92849  -7636105.05949  19544956.9484   19544964.2334
  18941003.995   -25677736.96449 -19612743.71249  18941003.3964   18941013.1434
  16490746.966   -45438639.73349 -35386412.19349  16490746.4844   16490755.1824
  19711801.791   -10778220.69049  -8382015.42349  19711801.6144   19711813.2164
  17590148.137   -25277284.57849 -19667394.03849  17590147.6644   17590155.5844
 96 12 10 19 47 59.9870000  0  7 18 29 25 16 14 15 22
  19809671.031   -19715747.68849 -13637977.70949  19809670.9304   19809678.3654
  17080374.390   -35595424.28949 -27722726.49549  17080374.2134   17080381.0834
  19549696.245    -9999370.24949  -7616700.41149  19549694.8984   19549703.1394
  18912197.758   -25829114.41249 -19730700.13049  18912196.7294   18912206.4914
  16475320.966   -45519703.40049 -35449578.68949  16475320.3934   16475329.1634
  19718859.291   -10741134.29349  -8353117.03649  19718859.3884   19718870.6354
  17571125.574   -25377249.53249 -19745288.79149  17571125.1434   17571133.2934
 96 12 10 19 48 29.9870000  0  7 18 29 25 16 14 15 22
  19783008.904   -19855858.76849 -13747155.09149  19783009.0384   19783017.4654
  17066531.756   -35668166.83649 -27779409.00549  17066531.6864   17066538.9794
  19554450.912    -9974384.82449  -7597231.28749  19554450.9854   19554457.9574
  18883427.677   -25980301.07149 -19848507.89249  18883427.9854   18883435.6194
  16459993.513   -45600248.64649 -35512341.22049  16459993.4744   16460001.7954
  19725931.224   -10703971.65849  -8324159.25549  19725931.6424   19725941.5804
  17552202.178   -25476692.87649 -19822777.10549  17552201.2544   17552209.8104
 96 12 10 19 48 59.9870000  0  7 18 29 25 16 14 15 22
  19756350.901   -19995947.97749 -13856315.45249  19756351.4924   19756359.0604
  17052726.964   -35740711.95549 -27835937.68349  17052727.1434   17052734.0924
  19559222.952    -9949307.23649  -7577690.35749  19559222.8124   19559229.9574
  18854696.759   -26131283.30249 -19966156.34549  18854695.9364   18854704.2274
  16444766.651   -45680266.25249 -35574692.59849  16444766.5954   16444774.7604
  19733019.531   -10666723.48149  -8295134.81749  19733019.6054   19733029.9804
  17533382.394   -25575591.46849 -19899840.91249  17533381.6324   17533389.8754
 96 12 10 19 49 29.9870000  0  7 18 29 25 16 14 15 22
  19729697.379   -20136014.12049 -13965457.84849  19729696.9154   19729704.5334
  17038958.737   -35813064.72049 -27892316.46449  17038959.0244   17038965.7364
  19564013.194    -9924133.75449  -7558074.65649  19564013.1954   19564020.5524
  18826006.598   -26282051.13049 -20083637.76249  18826005.7674   18826014.2714
  16429640.113   -45759757.02049 -35636633.47249  16429640.1174   16429648.0804
  19740123.411   -10629392.87749  -8266046.15649  19740124.3864   19740134.7644
  17514667.389   -25673939.90049 -19976476.04349  17514666.5494   17514675.1914
 96 12 10 19 49 59.9870000  0  7 18 29 25 16 14 15 22
  19703049.789   -20276048.48849 -14074575.47449  19703050.0124   19703056.9664
  17025225.220   -35885234.86749 -27948552.94449  17025225.4424   17025232.7044
  19568821.201    -9898866.34949  -7538385.80649  19568821.1474   19568828.6974
  18797356.664   -26432606.61549 -20200953.67049  18797355.4724   18797364.5464
  16414610.208   -45838740.03449 -35698178.65949  16414610.1424   16414617.6004
  19747241.242   -10591989.83049  -8236901.03849  19747241.3394   19747252.5524
  17496057.230   -25771736.69049 -20052681.28849  17496056.4824   17496064.9644
 96 12 10 19 50 29.9870000  0  7 18 29 25 16 14 15 22
  19676412.479   -20416027.57349 -14183650.04949  19676411.5344   19676418.8924
  17011527.336   -35957218.21949 -28004643.86949  17011527.3854   17011535.0044
  19573647.424    -9873504.77349  -7518623.55849  19573647.8064   19573654.7664
  18768749.243   -26582938.33249 -20318095.24949  18768749.1254   18768757.8574
  16399677.569   -45917212.05249 -35759325.68649  16399677.6294   16399685.2894
  19754372.692   -10554514.56549  -8207699.65449  19754372.4134   19754383.3234
  17477557.294   -25868954.16349 -20128435.12649  17477556.1704   17477565.1224
 96 12 10 19 50 59.9870000  0  7 18 29 25 16 14 15 22
  19649788.542   -20555935.74549 -14292669.37049  19649787.8354   19649796.0314
  16997863.988   -36029019.97649 -28060593.29249  16997864.3434   16997871.5824
  19578494.400    -9848035.46749  -7498777.39549  19578494.8504   19578501.8924
  18740189.701   -26733019.94249 -20435041.93349  18740188.9774   18740198.3384
  16384846.691   -45995149.62749 -35820056.26049  16384846.9564   16384854.5594
  19761519.054   -10516960.02349  -8178436.47449  19761517.9964   19761529.0444
  17459169.294   -25965583.06049 -20203730.35249  17459168.6094   17459177.4974
 96 12 10 19 51 29.9870000  0  7 18 29 25 16 14 15 22
  19623178.661   -20695769.78449 -14401630.93449  19623177.0274   19623188.1624
  16984233.851   -36100647.30849 -28116406.79349  16984234.1894   16984241.1664
  19583364.612    -9822442.60049  -7478834.91349  19583363.4204   19583372.1444
  18711679.490   -26882842.48449 -20551786.74549  18711679.3144   18711687.6694
  16370118.631   -46072545.91349 -35880365.06449  16370118.3934   16370126.6974
  19768680.903   -10479324.14849  -8149109.89949  19768680.9374   19768691.5514
  17440892.137   -26061629.86149 -20278571.97349  17440890.9524   17440900.0954
 96 12 10 19 51 59.9870000  0  7 18 29 25 16 14 15 22
  19596579.921   -20835546.51649 -14510547.81349  19596579.4404   19596587.7314
  16970637.518   -36172097.10849 -28172081.96649  16970637.6124   16970644.7314
  19588255.528    -9796737.97949  -7458805.35049  19588255.0434   19588264.2564
  18683214.290   -27032428.78049 -20668347.46649  18683214.1404   18683222.1984
  16355490.508   -46149416.96949 -35940264.60849  16355490.8294   16355497.8744
  19775854.326   -10441626.92849  -8119735.51349  19775853.0224   19775865.2564
  17422724.134   -26157103.40749 -20352966.90749  17422723.6194   17422732.3844
 96 12 10 19 52 29.9870000  0  7 18 29 25 16 14 15 22
  19569987.452   -20975290.97049 -14619439.53449  19569987.4904   19569996.5954
  16957070.529   -36243391.82849 -28227636.29349  16957070.3844   16957077.7334
  19593165.087    -9770938.05949  -7438701.55249  19593165.1344   19593172.6694
  18654790.243   -27181798.77349 -20784739.62849  18654789.4084   18654799.0514
  16340960.792   -46225771.78249 -35999761.85649  16340960.0094   16340968.7724
  19783035.477   -10403889.41749  -8090329.73049  19783035.1204   19783046.4044
  17404662.472   -26252018.45649 -20426926.64949  17404662.5034   17404670.0944
 96 12 10 19 52 59.9870000  0  7 18 29 25 16 14 15 22
  19543399.353   -21115012.00049 -14728313.01749  19543398.3574   19543407.3274
  16943532.317   -36314535.13349 -28283072.62849  16943532.2374   16943539.5044
  19598092.317    -9745045.70049  -7418525.69349  19598091.8334   19598099.5494
  18626408.204   -27330947.39149 -20900959.30649  18626407.3074   18626417.2664
  16326528.685   -46301611.72649 -36058857.94349  16326528.2704   16326536.4944
  19790223.798   -10366115.54849  -8060895.63949  19790224.3534   19790235.5024
  17386706.569   -26346378.04749 -20500453.56249  17386705.9544   17386714.2224
 96 12 10 19 53 29.9870000  0  7 18 29 25 16 14 15 22
  19516814.937   -21254714.23149 -14837171.83249  19516815.0104   19516822.5904
  16930025.330   -36385515.32649 -28338381.86249  16930025.3274   16930032.2144
  19603032.958    -9719080.20249  -7398292.84149  19603032.5334   19603041.8124
  18598069.153   -27479870.53149 -21017003.28549  18598068.7954   18598077.3504
  16312193.258   -46376944.63149 -36117558.91649  16312193.3344   16312201.1294
  19797418.062   -10328310.75049  -8031437.43049  19797417.9334   19797429.3384
  17368859.882   -26440163.12249 -20573532.79449  17368859.0094   17368867.4284
 96 12 10 19 53 59.9870000  0  7 18 29 25 16 14 15 22
  19490236.832   -21394384.08249 -14946005.39849  19490236.7604   19490245.0414
  16916550.603   -36456325.84449 -28393558.90349  16916550.4064   16916557.4434
  19607983.749    -9693064.18349  -7378020.66349  19607983.2764   19607992.4744
  18569773.642   -27628564.73649 -21132868.86149  18569773.1244   18569781.4304
  16297954.895   -46451767.60449 -36175862.52449  16297954.6314   16297963.2894
  19804617.198   -10290479.78849  -8001958.83949  19804616.8194   19804627.9024
  17351124.953   -26533360.27849 -20646153.91649  17351124.2774   17351132.0834
 96 12 10 19 54 29.9870000  0  7 18 29 25 16 14 15 22
  19463664.957   -21534021.40549 -15054813.63449  19463664.7454   19463672.1044
  16903103.980   -36526987.37749 -28448619.83249  16903103.5454   16903110.9244
  19612941.714    -9667010.50849  -7357719.10549  19612942.5024   19612949.6344
  18541524.041   -27777018.18849 -21248546.84749  18541523.2314   18541531.9394
  16283812.672   -46526085.55749 -36233772.62849  16283812.6114   16283821.0554
  19811820.243   -10252627.29549  -7972463.48249  19811820.1724   19811831.2474
  17333499.725   -26625981.54749 -20718326.29649  17333499.0884   17333507.5834
 96 12 10 19 54 59.9860000  0  7 18 29 25 16 14 15 22
  19437098.425   -21673629.19349 -15163598.81149  19437098.0974   19437106.2694
  16889686.749   -36597494.52849 -28503560.46449  16889687.2334   16889694.0604
  19617904.246    -9640932.69149  -7337398.75849  19617903.9184   19617912.5364
  18513321.188   -27925225.01649 -21364032.64149  18513320.3454   18513329.2434
  16269764.813   -46599907.05649 -36291295.87049  16269764.7864   16269773.0874
  19819026.384   -10214760.56949  -7942957.02749  19819025.6844   19819037.9014
  17315983.608   -26718029.93549 -20790052.28849  17315983.2344   17315990.5974
 96 12 10 19 55 29.9860000  0  7 18 29 25 16 14 15 22
  19410537.928   -21813205.51749 -15272359.50549  19410538.3444   19410545.8884
  16876301.895   -36667833.15649 -28558369.77849  16876301.9794   16876309.1644
  19622873.216    -9614819.54049  -7317050.88849  19622873.1284   19622881.6084
  18485162.378   -28073199.41149 -21479337.32949  18485161.0794   18485170.0074
  16255813.950   -46673220.00649 -36348422.84749  16255813.7644   16255822.4774
  19826236.546   -10176870.92249  -7913432.73249  19826235.3334   19826249.3444
  17298577.055   -26809502.16849 -20861329.31549  17298576.2354   17298584.1424
 96 12 10 19 55 59.9860000  0  8 19 18 29 25 16 14 15 22
  20745567.132    -3241916.12549  -2488788.85449  20745567.4034   20745576.5234
  19383988.909   -21952720.54749 -15381072.40849  19383988.0044   19383997.6524
  16862954.601   -36737973.92549 -28613024.94249  16862954.9494   16862961.3484
  19627855.408    -9588637.41049  -7296649.23449  19627855.4084   19627864.9354
  18457051.051   -28220924.84849 -21594448.03449  18457050.6804   18457058.6164
  16241965.849   -46745992.26549 -36405128.52849  16241965.8114   16241974.1584
  19833453.948   -10138941.51049  -7883877.47049  19833452.5074   19833466.0574
  17281281.770   -26900389.41649 -20932150.52549  17281280.8784   17281288.6814
 96 12 10 19 56 29.9860000  0  8 19 18 29 25 16 14 15 22
  20715863.148    -3398012.71449  -2610422.53049  20715863.4564   20715873.5834
  19357451.539   -22092174.41849 -15489737.67049  19357450.1064   19357460.6804
  16849647.933   -36807901.89449 -28667514.27449  16849648.1814   16849654.5264
  19632856.951    -9562354.27549  -7276168.90649  19632857.4164   19632865.5234
  18428988.975   -28368391.93349 -21709357.40649  18428987.8274   18428997.2164
  16228223.405   -46818208.88549 -36461401.23049  16228223.7744   16228231.5854
  19840680.986   -10100960.38549  -7854281.87749  19840680.1734   19840692.9314
  17264099.751   -26990681.21849 -21002507.75549  17264098.4234   17264107.1684
 96 12 10 19 56 59.9860000  0  8 19 18 29 25 16 14 15 22
  20686189.615    -3553949.51649  -2731931.68049  20686189.9694   20686201.2094
  19330927.796   -22231555.83449 -15598346.47749  19330926.1784   19330937.1444
  16836385.575   -36877596.15449 -28721821.49249  16836385.6034   16836391.8994
  19637877.683    -9535971.16749  -7255610.66949  19637878.0704   19637886.2484
  18400976.285   -28515599.53249 -21824064.58949  18400975.4904   18400984.3884
  16214590.161   -46889852.98549 -36517227.80849  16214589.9934   16214598.3164
  19847919.798   -10062921.61549  -7824641.37849  19847920.3714   19847930.7614
  17247034.899   -27080357.62249 -21072385.44649  17247034.0274   17247042.2544
 96 12 10 19 57 29.9860000  0  8 19 18 29 25 16 14 15 22
  20656547.951    -3709716.81449  -2853308.70749  20656546.4604   20656558.5924
  19304420.322   -22370851.51449 -15706888.48249  19304419.5484   19304429.8424
  16823167.254   -36947058.86349 -28775948.28649  16823167.0044   16823173.6674
  19642919.471    -9509477.63549  -7234966.38649  19642919.5604   19642927.6634
  18373015.423   -28662535.27749 -21938559.94649  18373014.3574   18373023.4564
  16201069.631   -46960903.99649 -36572592.25149  16201070.0734   16201077.8634
  19855169.605   -10024824.22349  -7794955.16649  19855168.8434   19855181.0124
  17230088.281   -27169412.59849 -21141778.91949  17230087.5694   17230095.2294
 96 12 10 19 57 59.9860000  0  8 19 18 29 25 16 14 15 22
  20626941.511    -3865298.46449  -2974541.11849  20626940.9064   20626953.0224
  19277930.389   -22510055.42249 -15815358.98949  19277930.0374   19277940.3654
  16809991.880   -37016295.19649 -28829898.68749  16809991.8454   16809998.5804
  19647982.594    -9482872.18449  -7214234.89449  19647982.8454   19647990.8984
  18345110.014   -28809178.11649 -22052827.06349  18345109.1054   18345118.9414
  16187661.980   -47031362.78149 -36627495.21449  16187662.0954   16187669.5884
  19862431.163    -9986663.38949  -7765219.52549  19862430.8954   19862444.4494
  17213260.290   -27257844.70949 -21210687.04149  17213259.2594   17213267.6434
 96 12 10 19 58 29.9860000  0  8 19 18 29 25 16 14 15 22
  20597368.845    -4020702.43549  -3095635.04849  20597368.3594   20597381.6004
  19251455.118   -22649184.00549 -15923770.80949  19251454.7354   19251464.0894
  16796856.553   -37085322.08049 -28883685.88149  16796856.8884   16796863.3324
  19653061.184    -9456184.78549  -7193439.55949  19653061.3594   19653068.9334
  18317261.219   -28955524.20749 -22166862.94849  18317261.1144   18317270.5864
  16174364.681   -47101240.83249 -36681945.64249  16174364.1414   16174372.1604
  19869703.087    -9948449.50549  -7735442.57949  19869702.5414   19869716.5354
  17196549.668   -27345659.06749 -21279113.79349  17196549.0074   17196556.4664
 96 12 10 19 58 59.9860000  0  8 19 18 29 25 16 14 15 22
  20567828.580    -4175936.85649  -3216596.86349  20567827.9794   20567840.5494
  19224994.585   -22788235.44149 -16032122.49649  19224995.5034   19225003.8634
  16783760.014   -37154145.73849 -28937314.70649  16783760.1254   16783766.4414
  19658151.813    -9429433.52049  -7172594.46749  19658152.3744   19658159.4014
  18289470.687   -29101564.60049 -22280660.61649  18289470.0834   18289479.2364
  16161176.892   -47170542.06749 -36735946.60549  16161175.9414   16161184.7554
  19876982.677    -9910195.22749  -7705634.12149  19876982.3414   19876995.3294
  17179954.582   -27432866.61349 -21347067.70149  17179953.1564   17179961.5914
 96 12 10 19 59 29.9860000  0  8 19 18 29 25 16 14 15 22
  20538321.530    -4330998.58349  -3337424.08449  20538321.6264   20538333.8614
  19198547.796   -22927215.41649 -16140418.51049  19198547.7524   19198557.0084
  16770701.644   -37222768.13849 -28990786.70149  16770701.7054   16770708.0454
  19663256.931    -9402606.01149  -7151689.94849  19663257.1504   19663264.3054
  18261739.428   -29247293.56649 -22394215.63349  18261738.9514   18261748.1854
  16148098.654   -47239267.13949 -36789498.62549  16148098.1544   16148106.6094
  19884268.816    -9871906.38949  -7675798.74649  19884268.4074   19884281.2814
  17163473.272   -27519475.82049 -21414555.38149  17163472.1554   17163480.9414
 96 12 10 19 59 59.9860000  0  8 19 18 29 25 16 14 15 22
  20508846.588    -4485891.82049  -3458120.03349  20508847.5904   20508857.8044
  19172112.322   -23066136.14149 -16248668.38649  19172112.9224   19172120.8844
  16757682.996   -37291181.50449 -29044095.81149  16757683.0074   16757689.6624
  19668376.599    -9375702.08649  -7130725.88949  19668376.3164   19668384.2594
  18234066.661   -29392714.68349 -22507530.75949  18234065.7694   18234075.0504
  16135130.424   -47307415.73849 -36842601.43649  16135130.2424   16135139.0044
  19891561.218    -9833585.32349  -7645938.30449  19891562.1184   19891573.8044
  17147105.421   -27605489.38349 -21481578.91249  17147104.4774   17147113.4404
 96 12 10 20  0 29.9860000  0  8 19 18 29 25 16 14 15 22
  20479402.193    -4640624.23149  -3578690.63749  20479401.2864   20479412.4274
  19145688.058   -23204996.79149 -16356871.42349  19145688.7954   19145695.9504
  16744705.797   -37359377.34249 -29097235.43249  16744705.5024   16744712.2804
  19673511.598    -9348716.53449  -7109698.22549  19673511.4314   19673520.0504
  18206450.550   -29537836.89149 -22620612.96149  18206449.9074   18206459.1214
  16122273.109   -47374981.30049 -36895249.93449  16122273.1334   16122281.7114
  19898859.794    -9795234.62849  -7616054.75949  19898860.4164   19898871.2274
  17130852.842   -27690896.58749 -21548129.97549  17130851.1394   17130860.5674
 96 12 10 20  0 59.9860000  0  8 19 18 29 25 16 14 15 22
  20449988.984    -4795190.88349  -3699132.08149  20449988.0784   20449998.2154
  19119275.246   -23343797.73449 -16465027.95249  19119274.8314   19119283.0614
  16731769.958   -37427354.70449 -29150204.80249  16731769.4274   16731776.5244
  19678665.499    -9321633.85349  -7088594.89349  19678665.9434   19678673.2124
  18178889.831   -29682668.52149 -22733468.76449  18178888.7574   18178897.5864
  16109526.368   -47441966.29349 -36947446.03649  16109525.9274   16109534.9394
  19906162.493    -9756860.41949  -7586152.91449  19906162.7604   19906173.8554
  17114717.543   -27775686.75049 -21614200.21649  17114716.0094   17114725.1764
 96 12 10 20  1 29.9860000  0  8 19 18 29 25 16 14 15 22
  20420607.580    -4949589.80449  -3819442.80049  20420606.2284   20420617.6784
  19092872.140   -23482546.88449 -16573144.12449  19092871.7804   19092880.4934
  16718873.872   -37495122.96249 -29203011.23449  16718873.7354   16718880.4244
  19683836.804    -9294460.44749  -7067420.85649  19683837.1234   19683843.8484
  18151382.471   -29827219.84949 -22846106.14049  18151382.3204   18151390.0714
  16096888.027   -47508380.65549 -36999197.50149  16096887.6974   16096896.9144
  19913468.672    -9718466.70449  -7556235.87249  19913468.1334   19913478.8034
  17098700.861   -27859854.77549 -21679785.68849  17098699.8064   17098709.2204
 96 12 10 20  1 59.9860000  0  8 19 18 29 25 16 14 15 22
  20391260.246    -5103810.95649  -3939615.00149  20391260.3844   20391271.2494
  19066479.813   -23621238.56949 -16681215.50849  19066479.4014   19066487.9294
  16706017.444   -37562683.47949 -29255655.79349  16706017.8544   16706024.3504
  19689024.251    -9267199.79549  -7046178.82849  19689023.9524   19689031.1874
  18123929.266   -29971488.11349 -22958522.95349  18123929.0354   18123937.4274
  16084356.193   -47574235.99349 -37050513.37149  16084356.7914   16084364.8694
  19920778.154    -9680053.98749  -7526304.00549  19920778.3624   19920789.1994
  17082804.252   -27943391.79849 -21744879.48149  17082803.6414   17082812.8744
 96 12 10 20  2 29.9860000  0  9 19 18 29 25  4 16 14 15 22
  20361950.981    -5257832.96349  -4059631.99649  20361951.2344   20361961.5284
  19040102.101   -23759854.75149 -16789228.05249  19040102.1024   19040110.2744
  16693200.236   -37630039.68049 -29308141.14549  16693200.4384   16693207.1614
  19694229.311    -9239846.38249  -7024864.51949  19694229.8784   19694237.0944
  20711684.403   -10809334.86349  -8403263.95349  20711684.1694   20711693.8644
  18096533.135   -30115456.23749 -23070705.87249  18096532.7114   18096541.8334
  16071929.738   -47639538.83749 -37101398.70949  16071929.8254   16071937.7254
  19928091.744    -9641620.65549  -7496356.06649  19928091.8594   19928103.0124
  17067032.085   -28026275.39549 -21809464.10449  17067031.9204   17067040.0404
 96 12 10 20  2 59.9860000  0  9 19 18 29 25  4 16 14 15 22
  20332683.939    -5411632.49549  -4179475.62349  20332683.6364   20332694.8254
  19013741.476   -23898380.27949 -16897169.97449  19013741.5014   19013748.4894
  16680420.813   -37697196.57849 -29360471.18549  16680421.1554   16680427.5624
  19699453.685    -9212392.16749  -7003471.66349  19699452.6534   19699462.3824
  20692371.335   -10910824.69749  -8482346.92049  20692371.6294   20692381.1174
  18069199.448   -30259095.46249 -23182632.51149  18069198.4444   18069207.9994
  16059609.440   -47704282.45549 -37151848.29949  16059609.5844   16059617.9134
  19935410.083    -9603162.37949  -7466388.67749  19935410.3634   19935420.6814
  17051384.115   -28108506.34749 -21873540.16649  17051383.2634   17051391.7534
 96 12 10 20  3 29.9860000  0  9 19 18 29 25  4 16 14 15 22
  20303459.264    -5565209.63849  -4299145.98649  20303459.3584   20303468.5944
  18987399.168   -24036809.63749 -17005036.97149  18987398.0184   18987406.5314
  16667678.023   -37764160.45849 -29412650.82649  16667678.1474   16667684.5244
  19704695.476    -9184847.15049  -6982008.08449  19704695.5434   19704702.6714
  20673161.150   -11011773.30649  -8561008.16049  20673159.8194   20673172.1434
  18041929.120   -30402400.79549 -23294298.98449  18041928.5734   18041936.9084
  16047395.477   -47768467.54849 -37201862.65849  16047395.1694   16047404.0404
  19942732.428    -9564684.91949  -7436406.33149  19942733.0934   19942742.9774
  17035857.231   -28190101.22149 -21937120.58649  17035856.9824   17035865.0204
 96 12 10 20  3 59.9860000  0  9 19 18 29 25  4 16 14 15 22
  20274276.094    -5718568.33449  -4418646.09549  20274274.8324   20274284.9044
  18961075.547   -24175140.32449 -17112827.07449  18961075.6404   18961082.9674
  16654973.623   -37830921.69549 -29464672.56549  16654973.6324   16654980.2334
  19709955.532    -9157206.59749  -6960470.02549  19709955.8814   19709962.4584
  20654054.376   -11112178.46249  -8639245.92549  20654053.9864   20654062.5164
  18014723.548   -30545366.55149 -23405700.85249  18014722.9174   18014732.4484
  16035290.161   -47832080.33149 -37251431.07949  16035289.9404   16035298.4964
  19950058.050    -9526189.70449  -7406410.16849  19950058.2824   19950068.7514
  17020451.786   -28271058.21249 -22000203.95949  17020451.1874   17020459.1144
 96 12 10 20  4 29.9860000  0  9 19 18 29 25  4 16 14 15 22
  20245131.314    -5871723.16049  -4537987.33749  20245130.2084   20245140.2714
  18934771.030   -24313370.47049 -17220538.84649  18934770.2914   18934780.4584
  16642308.694   -37897475.76549 -29516532.87849  16642308.4504   16642315.6754
  19715230.450    -9129486.61649  -6938870.10149  19715230.7304   19715237.4064
  20635052.199   -11212036.28349  -8717057.19249  20635052.7804   20635061.7204
  17987583.340   -30687989.65149 -23516835.70949  17987582.9754   17987591.3664
  16023296.362   -47895108.04349 -37300543.58349  16023295.9934   16023305.0524
  19957386.637    -9487679.08349  -7376401.98549  19957386.8594   19957398.1294
  17005167.216   -28351379.13049 -22062791.69249  17005166.3284   17005174.4694
 96 12 10 20  4 59.9860000  0  9 19 18 29 25  4 16 14 15 22
  20216019.936    -6024701.64049  -4657191.18049  20216017.7524   20216030.7914
  18908484.182   -24451509.17049 -17328179.34149  18908483.7994   18908492.9594
  16629685.116   -37963812.79049 -29568224.07049  16629685.2684   16629692.1664
  19720516.255    -9101709.22849  -6917225.43149  19720516.2814   19720522.9464
  20616148.061   -11311377.95649  -8794466.27949  20616149.6374   20616156.5474
  17960506.607   -30830279.14349 -23627710.60349  17960506.5304   17960514.2824
  16011415.081   -47957543.98949 -37349194.98149  16011414.9484   16011423.5284
  19964716.231    -9449161.65049  -7346388.49049  19964715.0154   19964727.1894
  16990001.171   -28431076.99949 -22124893.92249  16990000.6074   16990009.0404
 96 12 10 20  5 29.9860000  0  9 19 18 29 25  4 16 14 15 22
  20186937.772    -6177527.18149  -4776275.83749  20186935.8754   20186950.9364
  18882211.343   -24589573.40249 -17435761.82649  18882210.6484   18882219.3624
  16617105.650   -38029918.38049 -29619734.92549  16617106.0674   16617112.8944
  19725810.336    -9073888.43649  -6895546.94849  19725810.3464   19725817.0034
  20597337.617   -11410228.32149  -8871492.57049  20597339.8784   20597345.0534
  17933490.586   -30972250.24249 -23738337.40549  17933490.1034   17933498.2984
  15999646.642   -48019387.24849 -37397384.54649  15999646.4454   15999654.9284
  19972045.233    -9410646.48449  -7316376.78649  19972045.2414   19972056.5414
  16974956.168   -28510139.18549 -22186500.82849  16974955.7334   16974963.7434
 96 12 10 20  5 59.9860000  0  9 19 18 29 25  4 16 14 15 22
  20157883.844    -6330205.36749  -4895245.71949  20157884.7274   20157894.7624
  18855951.391   -24727569.39149 -17543291.14849  18855951.3174   18855960.4444
  16604571.971   -38095783.41649 -29671058.32649  16604572.0444   16604578.7944
  19731111.783    -9046028.12049  -6873837.67149  19731110.7364   19731120.3214
  20578620.148   -11508589.90249  -8948137.95249  20578619.5784   20578629.0824
  17906535.161   -31113901.81749 -23848715.22049  17906534.5944   17906543.1684
  15987990.685   -48080639.44749 -37445113.54949  15987990.5744   15987998.9454
  19979373.995    -9372133.49549  -7286366.77049  19979372.3784   19979385.5314
  16960034.617   -28588552.22349 -22247601.89549  16960033.8934   16960041.6484
 96 12 10 20  6 29.9860000  0  9 19 18 29 25  4 16 14 15 22
  20128862.209    -6482714.92149  -5014084.16949  20128863.0184   20128872.6464
  18829707.365   -24865483.57949 -17650756.75349  18829707.7554   18829715.2144
  16592086.886   -38161393.67349 -29722183.19349  16592087.1574   16592093.7154
  19736423.129    -9018115.29949  -6852087.46049  19736423.4484   19736431.8824
  20559994.579   -11606468.27149  -9024406.79449  20559993.4734   20560004.5434
  17879643.086   -31255220.40149 -23958833.57349  17879642.4014   17879651.2074
  15976449.453   -48141289.23149 -37492373.13149  15976449.6144   15976457.6714
  19986704.001    -9333612.63849  -7256350.59949  19986703.7134   19986715.1664
  16945239.446   -28666301.14249 -22308185.46749  16945238.4464   16945247.1144
 96 12 10 20  6 59.9860000  0  9 19 18 29 25  4 16 14 15 22
  20099876.238    -6635036.52049  -5132776.15249  20099875.0064   20099889.2854
  18803479.330   -25003313.45249 -17758156.59849  18803479.6624   18803487.2044
  16579650.016   -38226750.40649 -29773110.50349  16579649.9074   16579656.6234
  19741749.916    -8990123.11049  -6830275.45749  19741749.6514   19741756.8464
  20541461.290   -11703860.82749  -9100297.04549  20541461.6524   20541471.2414
  17852815.073   -31396202.24349 -24068689.51649  17852814.2444   17852822.8434
  15965023.115   -48201334.88049 -37539161.95849  15965023.0554   15965031.2284
  19994036.238    -9295082.00349  -7226326.80549  19994037.4464   19994048.7424
  16930572.493   -28743375.70049 -22368243.58749  16930572.2994   16930579.8124
 96 12 10 20  7 29.9850000  0  9 19 18 29 25  4 16 14 15 22
  20070930.447    -6787146.47549  -5251303.22449  20070929.6854   20070942.3134
  18777268.481   -25141052.28649 -17865485.56849  18777267.8784   18777276.3484
  16567258.789   -38291866.32349 -29823850.17249  16567258.8854   16567265.6534
  19747092.989    -8962044.12349  -6808395.77049  19747093.2424   19747101.6474
  20523026.959   -11800735.18149  -9175783.52849  20523027.2644   20523037.1544
  17826050.850   -31536847.63949 -24178283.29549  17826050.1224   17826059.3284
  15953709.961   -48260786.16449 -37585487.65349  15953709.8464   15953718.5414
  20001369.820    -9256546.20349  -7196299.03849  20001369.3804   20001382.6444
  16916032.771   -28819782.40349 -22427781.26049  16916031.7654   16916040.6044
 96 12 10 20  7 59.9850000  0  9 19 18 29 25  4 16 14 15 22
  20042025.634    -6939042.20349  -5369663.29849  20042025.0454   20042038.2634
  18751075.213   -25278698.24249 -17972742.15549  18751076.2704   18751082.9444
  16554909.689   -38356762.05049 -29874418.27349  16554909.8344   16554916.8594
  19752451.756    -8933883.61549  -6786452.57349  19752451.7324   19752459.5114
  20504691.553   -11897089.92249  -9250865.10649  20504692.2274   20504700.7304
  17799347.614   -31677174.31449 -24287628.73449  17799347.1584   17799356.1584
  15942505.705   -48319664.52749 -37631366.91049  15942505.8834   15942514.0944
  20008703.054    -9218010.84949  -7166271.57749  20008702.4844   20008716.1444
  16901614.376   -28895551.81549 -22486822.34649  16901613.8164   16901621.3844
 96 12 10 20  8 29.9850000  0  9 19 18 29 25  4 16 14 15 22
  20013162.598    -7090717.96449  -5487852.06049  20013162.3464   20013175.8414
  18724901.763   -25416241.71649 -18079918.85249  18724901.8104   18724909.7044
  16542600.860   -38421445.51449 -29924820.96849  16542600.9264   16542607.9554
  19757823.977    -8905652.84949  -6764454.61649  19757824.0134   19757832.1504
  20486458.252   -11992905.59549  -9325526.67549  20486457.4114   20486466.7244
  17772705.110   -31817182.30249 -24396725.81949  17772704.7834   17772713.4774
  15931409.997   -48377973.71149 -37676802.63549  15931410.5044   15931418.5514
  20016033.499    -9179489.08349  -7136254.71549  20016033.0994   20016046.8014
  16887315.162   -28970695.44449 -22545375.81949  16887314.8254   16887322.5484
 96 12 10 20  8 59.9850000  0  9 19 18 29 25  4 16 14 15 22
  19984340.957    -7242176.38849  -5605871.53349  19984341.6184   19984350.9944
  18698749.188   -25553674.89449 -18187009.62949  18698749.3554   18698757.0694
  16530332.124   -38485918.53749 -29975059.68649  16530332.0694   16530339.0064
  19763207.215    -8877364.44949  -6742411.74749  19763207.7764   19763215.0584
  20468331.841   -12088160.85649  -9399751.53549  20468332.5884   20468340.6264
  17746123.909   -31956867.85749 -24505571.67949  17746124.0144   17746132.0724
  15920420.940   -48435722.06149 -37721801.35749  15920421.4024   15920429.7294
  20023360.284    -9140986.96549  -7106253.11749  20023359.9364   20023373.3514
  16873131.440   -29045231.83649 -22603456.11849  16873130.7154   16873138.9804
 96 12 10 20  9 29.9850000  0  9 19 18 29 25  4 16 14 15 22
  19955558.161    -7393430.62849  -5723731.87649  19955558.5744   19955568.3934
  18672615.266   -25691010.18749 -18294024.08249  18672614.8884   18672623.1024
  16518104.964   -38550172.75649 -30025127.90549  16518104.5844   16518111.7844
  19768595.811    -8849047.95549  -6720346.98649  19768596.2464   19768604.1134
  20450311.685   -12182857.86449  -9473541.39849  20450310.2954   20450320.7314
  17719603.905   -32096231.91549 -24614167.01049  17719603.5644   17719611.7334
  15909538.004   -48492913.32949 -37766365.98049  15909538.1264   15909546.0714
  20030681.324    -9102515.20549  -7076275.20349  20030681.6484   20030692.9134
  16859059.901   -29119177.96149 -22661076.46249  16859058.9664   16859067.6634
 96 12 10 20  9 59.9850000  0  9 19 18 29 25  4 16 14 15 22
  19926811.914    -7544493.08849  -5841442.77149  19926812.7054   19926822.1124
  18646497.766   -25828258.14249 -18400970.51549  18646497.1194   18646505.0664
  16505919.775   -38614205.57849 -30075023.60449  16505919.4304   16505926.3914
  19773989.471    -8820704.17849  -6698260.97949  19773988.9124   19773996.3854
  20432392.767   -12277022.30049  -9546916.26249  20432393.4084   20432400.3754
  17693146.749   -32235265.26249 -24722504.65249  17693146.4004   17693154.6484
  15898762.891   -48549537.24849 -37810488.52049  15898762.8654   15898771.0804
  20037995.387    -9064080.21649  -7046325.93149  20037995.5944   20038007.1284
  16845103.251   -29192520.64249 -22718226.57649  16845102.3984   16845110.7754
 96 12 10 20 10 29.9850000  0  9 19 18 29 25  4 16 14 15 22
  19898100.473    -7695373.62949  -5959011.91749  19898100.4424   19898110.2294
  18620393.545   -25965436.08749 -18507862.36349  18620393.0204   18620400.8634
  16493775.939   -38678021.32549 -30124750.15749  16493775.9764   16493782.8174
  19779388.269    -8792333.59549  -6676154.05549  19779387.2454   19779396.7714
  20414575.563   -12370651.77149  -9619874.30749  20414575.8134   20414584.0554
  17666755.897   -32373949.98349 -24830570.63949  17666755.2504   17666763.6654
  15888098.216   -48605580.44649 -37854158.55849  15888098.5284   15888106.1504
  20045302.205    -9025683.05149  -7016406.13349  20045301.5374   20045313.4454
  16831265.032   -29265240.56949 -22774891.42949  16831264.3384   16831272.8604
 96 12 10 20 10 59.9850000  0  9 19 18 29 25  4 16 14 15 22
  19869425.166    -7846063.38749  -6076432.35449  19869423.5544   19869435.5804
  18594299.888   -26102558.73449 -18614711.14749  18594300.0444   18594307.7674
  16481674.197   -38741616.43549 -30174304.76949  16481673.8654   16481681.4634
  19784794.618    -8763922.79049  -6654015.80549  19784794.0324   19784802.7404
  20396858.572   -12463755.36749  -9692422.53049  20396858.0794   20396868.1694
  17640433.549   -32512274.36949 -24938355.86349  17640433.2324   17640441.4174
  15877546.491   -48661029.96949 -37897365.98849  15877546.1044   15877554.3914
  20052602.441    -8987319.69449  -6986512.71349  20052603.1324   20052613.6814
  16817548.846   -29337319.55949 -22831056.84449  16817548.2044   16817556.7384
 96 12 10 20 11 29.9850000  0  9 19 18 29 25  4 16 14 15 22
  19840785.555    -7996563.44649  -6193705.00349  19840784.4414   19840797.3084
  18568214.364   -26239639.78049 -18721527.48149  18568214.5334   18568221.8754
  16469612.793   -38804999.31849 -30223694.03049  16469612.7644   16469619.6724
  19790208.304    -8735473.11749  -6631847.27549  19790207.7444   19790216.9634
  20379237.953   -12556351.79349  -9764575.58849  20379237.6874   20379247.4694
  17614180.803   -32650233.31949 -25045856.32349  17614180.2274   17614188.8184
  15867108.546   -48715881.26349 -37940107.26349  15867108.4694   15867117.0424
  20059895.557    -8948993.88949  -6956648.53749  20059895.1944   20059908.1444
  16803957.824   -29408740.89849 -22886709.81749  16803957.1734   16803965.3224
 96 12 10 20 11 59.9850000  0  9 19 18 29 25  4 16 14 15 22
  19812183.624    -8146866.54349  -6310824.19449  19812182.9514   19812194.8414
  18542139.110   -26376666.03349 -18828301.14449  18542138.0454   18542146.1934
  16457588.663   -38868186.68849 -30272930.94449  16457588.5094   16457595.7434
  19795630.379    -8706979.33649  -6609644.36249  19795630.1804   19795637.7224
  20361711.311   -12648454.50649  -9836343.92449  20361711.4904   20361719.8004
  17587998.145   -32787824.74049 -25153070.38549  17587997.8524   17588005.7424
  15856783.791   -48770138.50049 -37982385.64049  15856784.1274   15856792.2514
  20067180.768    -8910710.59349  -6926817.46849  20067180.5104   20067191.8734
  16790492.743   -29479500.47049 -22941847.11949  16790491.9644   16790499.9934
 96 12 10 20 12 29.9850000  0  9 19 18 29 25  4 16 14 15 22
  19783618.463    -8296976.79749  -6427793.11549  19783618.6964   19783628.8554
  18516076.578   -26513624.39849 -18935021.87949  18516074.7484   18516083.3214
  16445602.878   -38931171.63749 -30322010.13849  16445602.8664   16445610.1894
  19801058.780    -8678453.30349  -6587416.33149  19801060.2914   19801068.0364
  20344282.699   -12740042.14449  -9907710.85449  20344281.7374   20344292.6324
  17561883.452   -32925058.62849 -25260005.85949  17561883.0214   17561890.5914
  15846571.161   -48823807.36749 -38024205.52849  15846571.6374   15846579.1944
  20074456.665    -8872477.85549  -6897025.81349  20074456.6234   20074467.9504
  16777150.587   -29549613.79749 -22996480.84949  16777149.7014   16777158.2304
 96 12 10 20 12 59.9850000  0  9 19 18 29 25  4 16 14 15 22
  19755090.374    -8446891.72349  -6544609.80549  19755089.1264   19755101.8544
  18490031.372   -26650491.12049 -19041671.19649  18490030.8184   18490038.2734
  16433658.256   -38993940.68249 -30370921.07649  16433658.2054   16433665.6604
  19806494.054    -8649891.56549  -6565160.48649  19806493.8204   19806503.4584
  20326949.171   -12831129.03049  -9978687.63549  20326949.1764   20326958.8134
  17535835.524   -33061941.88949 -25366668.09849  17535834.4744   17535842.7064
  15836470.452   -48876887.76149 -38065566.87549  15836470.4904   15836478.6424
  20081721.661    -8834301.97549  -6867278.43749  20081721.0444   20081732.5484
  16763928.707   -29619094.89949 -23050621.95149  16763927.5044   16763935.7604
 96 12 10 20 13 29.9850000  0  9 19 18 29 25  4 16 14 15 22
  19726596.875    -8596624.88649  -6661284.85049  19726596.2224   19726609.3414
  18464007.437   -26787246.99549 -19148234.15149  18464006.4644   18464015.5104
  16421754.931   -39056492.87849 -30419663.04049  16421754.9464   16421762.2354
  19811934.665    -8621300.02749  -6542881.39549  19811933.7044   19811942.3614
  20309708.470   -12921729.87449 -10049285.67049  20309708.2024   20309717.3954
  17509852.618   -33198482.49049 -25473063.35649  17509852.0624   17509859.7354
  15826479.982   -48929388.12749 -38106476.24149  15826479.3964   15826487.7544
  20088974.043    -8796191.57949  -6837582.12849  20088974.0434   20088983.3994
  16750825.330   -29687953.50249 -23104277.97949  16750824.8654   16750833.3564
 96 12 10 20 13 59.9850000  0  9 19 18 29 25  4 16 14 15 22
  19698135.389    -8746190.12449  -6777829.08549  19698134.1954   19698147.7264
  18438003.156   -26923899.38149 -19254716.45449  18438003.4264   18438011.5344
  16409893.230   -39118827.20049 -30468235.23449  16409893.5974   16409900.5944
  19817380.771    -8592680.80749  -6520580.74049  19817380.0934   19817391.5514
  20292561.991   -13011835.80749 -10119498.09349  20292562.5914   20292572.3144
  17483932.093   -33334694.98749 -25579202.93549  17483931.2564   17483940.0494
  15816598.126   -48981317.21549 -38146940.46849  15816598.0274   15816605.6684
  20096211.821    -8758157.74149  -6807945.44049  20096210.7934   20096221.5744
  16737839.481   -29756194.79749 -23157452.99149  16737838.6354   16737846.6354
 96 12 10 20 14 29.9850000  0  9 19 18 29 25  4 16 14 15 22
  19669702.854    -8895602.85549  -6894254.49249  19669702.2094   19669715.4854
  18412014.020   -27060473.63549 -19361137.86249  18412012.6494   18412021.6894
  16398071.445   -39180951.55149 -30516643.80449  16398071.6414   16398078.7244
  19822829.759    -8564044.17349  -6498266.53149  19822828.6414   19822838.8094
  20275508.696   -13101452.29849 -10189329.11049  20275508.9274   20275516.9884
  17458072.365   -33470588.11549 -25685093.66149  17458071.5494   17458080.7074
  15806824.023   -49032680.87049 -38186964.07449  15806824.1934   15806831.7494
  20103432.776    -8720211.59549  -6778377.12649  20103431.9244   20103442.2944
  16724970.092   -29823823.96849 -23210151.03049  16724969.2354   16724977.4444
 96 12 10 20 14 59.9850000  0  9 19 18 29 25  4 16 14 15 22
  19641299.032    -9044866.02849  -7010563.33449  19641298.2224   19641311.4164
  18386034.115   -27196997.95649 -19467520.39349  18386034.0434   18386042.2734
  16386286.031   -39242884.69349 -30564903.38949  16386285.8404   16386292.9714
  19828280.342    -8535398.66749  -6475945.40349  19828280.4274   19828290.3674
  20258541.241   -13190616.85649 -10258807.97049  20258542.9834   20258549.4264
  17432273.605   -33606161.49749 -25790735.23449  17432272.7594   17432281.3344
  15797153.727   -49083498.18749 -38226561.98149  15797152.7994   15797161.5574
  20110634.157    -8682367.52549  -6748888.33849  20110631.8894   20110644.5944
  16712214.305   -29890855.57349 -23262383.42049  16712213.5154   16712221.5084
 96 12 10 20 15 29.9850000  0  9 19 18 29 25  4 16 14 15 22
  19612920.249    -9193995.42249  -7126767.91049  19612918.1894   19612932.4924
  18360056.419   -27333512.65549 -19573895.41349  18360055.6484   18360064.5564
  16374531.588   -39304653.47249 -30613034.89649  16374531.0984   16374538.9164
  19833731.449    -8506750.54549  -6453622.23149  19833731.5234   19833742.0994
  20241661.367   -13279321.47649 -10327928.41249  20241661.1304   20241668.0004
  17406535.453   -33741416.19049 -25896128.47549  17406534.8874   17406543.3664
  15787584.733   -49133782.65949 -38265744.68749  15787584.8024   15787592.6244
  20117814.476    -8644634.56149  -6719486.11149  20117814.5274   20117825.8674
  16699571.611   -29957292.96049 -23314152.78649  16699570.2184   16699578.9694
 96 12 10 20 15 59.9850000  0  9 19 18 29 25  4 16 14 15 22
  19584565.993    -9342995.53949  -7242871.80449  19584565.7374   19584577.7704
  18334075.405   -27470042.76249 -19680282.45549  18334075.0344   18334082.5284
  16362806.120   -39366270.52849 -30661048.17749  16362806.1854   16362813.7544
  19839179.750    -8478117.69849  -6431311.01149  19839179.5924   19839191.0374
  20224870.521   -13367556.37349 -10396682.84549  20224869.6944   20224879.4394
  17380858.263   -33876350.73049 -26001272.24849  17380857.6634   17380866.3234
  15778115.168   -49183545.79449 -38304521.14949  15778114.4194   15778123.1604
  20124971.712    -8607024.00449  -6690179.29949  20124970.7534   20124982.3964
  16687040.388   -30023143.70149 -23365465.04549  16687039.7334   16687047.9474
 96 12 10 20 16 29.9850000  0  9 19 18 29 25  4 16 14 15 22
  19556237.988    -9491860.18949  -7358870.11649  19556237.6884   19556250.2844
  18308093.077   -27606580.86949 -19786675.73449  18308092.8914   18308100.9584
  16351109.546   -39427736.78349 -30708943.95349  16351109.9924   16351116.9824
  19844624.337    -8449503.29149  -6409014.12749  19844624.3624   19844636.0074
  20208170.223   -13455318.09949 -10465068.58849  20208170.8344   20208180.0624
  17355243.718   -34010955.67149 -26106159.19649  17355243.2454   17355251.5694
  15768745.229   -49232784.45349 -38342888.94449  15768745.6354   15768753.3364
  20132105.456    -8569535.40249  -6660967.51449  20132105.0944   20132116.2294
  16674621.472   -30088405.55449 -23416318.42949  16674620.7704   16674629.0214
 96 12 10 20 16 59.9850000  0  9 19 18 29 25  4 16 14 15 22
  19527938.081    -9640577.55949  -7474753.68849  19527937.5504   19527950.5094
  18282112.886   -27743107.45649 -19893060.04649  18282113.0274   18282120.9934
  16339444.499   -39489037.85349 -30756711.01049  16339444.8884   16339451.7994
  19850067.991    -8420897.52849  -6386723.97649  19850069.1634   19850079.1604
  20191563.827   -13542586.24549 -10533069.70749  20191564.7914   20191572.3244
  17329693.484   -34145222.55749 -26210782.71349  17329692.2344   17329701.0964
  15759475.953   -49281495.58749 -38380845.66749  15759475.1824   15759483.9484
  20139217.447    -8532161.55249  -6631845.16149  20139216.8004   20139228.9364
  16662317.209   -30153064.63949 -23466702.09749  16662316.5084   16662325.3184
 96 12 10 20 17 29.9850000  0  9 19 18 29 25  4 16 14 15 22
  19499667.184    -9789141.49949  -7590517.67849  19499667.1814   19499678.9154
  18256138.289   -27879606.38149 -19999422.79949  18256138.5584   18256146.8044
  16327812.419   -39550165.60149 -30804343.02049  16327812.4614   16327819.4404
  19855510.025    -8392302.36749  -6364442.07549  19855510.2464   19855520.1094
  20175054.932   -13629340.66049 -10600670.55449  20175054.4104   20175062.0634
  17304207.589   -34279150.91749 -26315142.45849  17304206.8774   17304215.7764
  15750306.536   -49329680.30449 -38418392.20349  15750306.9594   15750314.4914
  20146308.096    -8494900.38049  -6602810.59549  20146308.0914   20146318.2814
  16650130.607   -30217106.00849 -23516604.44949  16650129.3754   16650138.4874
 96 12 10 20 17 59.9850000  0  9 19 18 29 25  4 16 14 15 22
  19471427.495    -9937541.60749  -7706154.01249  19471426.9124   19471438.4974
  18230172.655   -28016057.36149 -20105748.20749  18230172.2444   18230179.9474
  16316216.770   -39611100.54149 -30851824.78249  16316216.2794   16316223.6374
  19860944.924    -8363742.35149  -6342187.57149  19860946.1134   19860955.3134
  20158640.410   -13715598.25649 -10667884.22549  20158639.9044   20158650.4334
  17278784.216   -34412751.61649 -26419246.87749  17278784.0574   17278792.7314
  15741236.171   -49377346.00849 -38455534.28849  15741235.3304   15741244.0374
  20153375.363    -8457761.73949  -6573871.48849  20153375.2794   20153385.2614
  16638059.297   -30280540.46449 -23566033.87649  16638058.6224   16638066.7464
 96 12 10 20 18 29.9850000  0  9 19 18 29 25  4 16 14 15 22
  19443219.110   -10085775.89049  -7821661.16949  19443218.0304   19443230.5444
  18204217.210   -28152454.71549 -20212031.84049  18204216.9034   18204224.2094
  16304659.216   -39671834.93249 -30899150.26949  16304659.2794   16304666.5044
  19866373.412    -8335216.81449  -6319959.91349  19866373.6464   19866383.1144
  20142316.447   -13801379.73049 -10734726.88849  20142315.6054   20142325.2014
  17253419.427   -34546045.16849 -26523111.95949  17253419.2764   17253427.7254
  15732262.329   -49424502.55249 -38492279.64549  15732262.0324   15732270.7034
  20160417.635    -8420755.40649  -6545035.44349  20160417.9434   20160427.6754
  16626099.526   -30343390.30649 -23615007.77849  16626099.0314   16626107.1384
 96 12 10 20 18 59.9850000  0  9 19 18 29 25  4 16 14 15 22
  19415043.106   -10233841.03749  -7937036.47149  19415043.1754   19415053.7774
  18178271.722   -28288799.01449 -20318274.10649  18178270.8554   18178278.4744
  16293141.088   -39732363.18949 -30946315.13349  16293141.1334   16293148.3834
  19871794.168    -8306731.96849  -6297763.96849  19871795.2424   19871803.6054
  20126078.312   -13886710.82949 -10801218.64849  20126078.5464   20126087.5054
  17228111.884   -34679037.87049 -26626742.61149  17228111.7564   17228119.5384
  15723384.485   -49471155.93949 -38528632.94349  15723384.2484   15723392.9564
  20167432.692    -8383891.02649  -6516310.05349  20167432.7874   20167444.2804
  16614246.396   -30405679.50849 -23663544.79049  16614245.3874   16614253.6054
 96 12 10 20 19 29.9850000  0  9 19 18 29 25  4 16 14 15 22
  19386897.152   -10381750.21649  -8052290.22749  19386897.9104   19386908.0704
  18152333.982   -28425102.53249 -20424484.61349  18152332.4524   18152341.2844
  16281660.544   -39792694.16749 -30993326.27849  16281660.4314   16281668.1284
  19877202.782    -8278310.23149  -6275617.20649  19877204.3684   19877211.7604
  20109922.379   -13971612.27549 -10867375.60849  20109922.5204   20109931.0664
  17202861.629   -34811729.17749 -26730138.41149  17202860.8674   17202869.3224
  15714603.610   -49517299.64449 -38564589.07949  15714603.8064   15714612.3454
  20174418.668    -8347180.58949  -6487704.59249  20174418.5814   20174428.8614
  16602496.938   -30467423.42749 -23711656.92449  16602496.3114   16602504.0074
 96 12 10 20 19 59.9840000  0  8 19 18 29 25  4 16 14 22
  19358778.865   -10529514.63449  -8167431.16749  19358779.4164   19358788.9554
  18126402.359   -28561373.48549 -20530669.74649  18126401.2744   18126410.1134
  16270215.142   -39852839.98149 -31040193.15049  16270215.1944   16270222.6624
  19882597.778    -8249961.89049  -6253527.62949  19882599.1934   19882606.9304
  20093846.322   -14056091.72249 -10933203.73149  20093846.4804   20093855.1914
  17177668.599   -34944118.82649 -26833299.13949  17177668.1384   17177676.1874
  15705919.575   -49562935.19449 -38600149.24749  15705920.1684   15705927.9774
  16590849.566   -30528630.99349 -23759351.10949  16590849.1644   16590856.3804
 96 12 10 20 20 29.9840000  0  8 19 18 29 25  4 16 14 22
  19330685.592   -10677147.02349  -8282469.24549  19330685.4754   19330695.3764
  18100474.424   -28697624.88949 -20636839.65049  18100473.4834   18100483.4724
  16258799.365   -39912829.99049 -31086938.61249  16258799.4274   16258806.9914
  19887980.870    -8221674.80849  -6231485.77549  19887981.7874   19887990.1634
  20077851.294   -14140146.71149 -10998701.13349  20077851.8024   20077859.7154
  17152534.078   -35076201.78149 -26936220.89849  17152533.2384   17152541.1194
  15697333.776   -49608054.95349 -38635307.48649  15697333.2424   15697341.7464
  16579306.662   -30589290.12149 -23806617.93549  16579306.0754   16579313.3844
 96 12 10 20 20 59.9840000  0  8 19 18 29 25  4 16 14 22
  19302619.472   -10824635.79149  -8397395.39949  19302618.3354   19302628.4914
  18074553.066   -28833842.05449 -20742982.85549  18074552.6184   18074560.7754
  16247410.353   -39972679.59749 -31133574.65749  16247410.3424   16247417.8834
  19893352.994    -8193445.53349  -6209488.99749  19893354.1284   19893361.4184
  20061941.873   -14223751.93849 -11063848.03349  20061943.2864   20061951.0984
  17127465.327   -35207939.17849 -27038873.38149  17127464.8934   17127472.8274
  15688849.881   -49652637.88449 -38670047.42849  15688850.2254   15688858.3744
  16567875.214   -30649363.39649 -23853428.25949  16567874.2994   16567882.2734
 96 12 10 20 21 29.9840000  0  8 19 18 29 25  4 16 14 22
  19274579.675   -10971984.03949  -8512212.03949  19274578.0274   19274588.8374
  18048640.131   -28970015.10649 -20849091.68849  18048639.4874   18048647.9104
  16236046.872   -40032394.62949 -31180105.84149  16236046.6194   16236054.4074
  19898715.250    -8165266.69649  -6187531.50549  19898715.2564   19898724.0984
  20046124.389   -14306875.60349 -11128619.70749  20046124.3474   20046133.5144
  17102465.105   -35339316.50249 -27141245.30149  17102465.0804   17102472.7084
  15680469.743   -49696676.42249 -38704363.17649  15680469.5274   15680478.1974
  16556559.937   -30708824.45949 -23899761.52149  16556558.8134   16556567.5744
 96 12 10 20 21 59.9840000  0  8 19 18 29 25  4 16 14 22
  19246569.551   -11119176.29149  -8626907.13349  19246568.8084   19246578.3864
  18022739.063   -29106126.79749 -20955152.72549  18022738.8874   18022746.2024
  16224709.942   -40091969.86649 -31226528.09349  16224709.8174   16224717.7424
  19904071.273    -8137121.45549  -6165600.18949  19904072.6674   19904079.4814
  20030401.427   -14389500.66149 -11193002.84449  20030400.8024   20030410.3344
  17077533.224   -35470334.78749 -27243337.44049  17077532.6604   17077540.7384
  15672190.783   -49740182.99249 -38738264.39549  15672191.1484   15672198.9874
  16545363.066   -30767663.45949 -23945610.07349  16545362.4944   16545371.2334
 96 12 10 20 22 29.9840000  0  8 19 18 29 25  4 16 14 22
  19218587.529   -11266223.33549  -8741489.10649  19218588.3384   19218596.4464
  17996846.908   -29242190.81249 -21061176.58749  17996847.0424   17996854.1664
  16213397.850   -40151414.41149 -31272848.51149  16213397.9284   16213405.6314
  19909419.055    -8109019.51449  -6143702.63049  19909419.0764   19909427.0854
  20014770.648   -14471640.47449 -11257007.87949  20014771.1224   20014779.8374
  17052666.942   -35601007.36649 -27345160.20949  17052666.3154   17052674.3064
  15664011.964   -49783163.24349 -38771755.50249  15664011.5204   15664020.3034
  16534282.223   -30825893.52349 -23990984.13049  16534281.6254   16534289.7214
 96 12 10 20 22 59.9840000  0  8 19 18 29 25  4 16 14 22
  19190629.925   -11413142.18149  -8855971.15349  19190629.8434   19190639.0854
  17970961.323   -29378220.73049 -21167173.89049  17970961.1624   17970968.9914
  16202115.598   -40210703.02849 -31319047.43149  16202116.0184   16202123.2824
  19914756.681    -8080968.50349  -6121844.70949  19914756.8214   19914764.6234
  19999231.816   -14553295.80949 -11320635.41749  19999232.2804   19999242.2774
  17027866.172   -35731335.65949 -27446714.70149  17027864.8144   17027873.7144
  15655931.757   -49825624.51649 -38804842.20149  15655931.5744   15655940.0524
  16523314.155   -30883530.80649 -24035896.28349  16523313.7184   16523320.9914
 96 12 10 20 23 29.9840000  0  8 19 18 29 25  4 16 14 22
  19162693.861   -11559946.78149  -8970364.20849  19162693.5934   19162705.0784
  17945079.152   -29514232.36349 -21273156.93349  17945078.4914   17945086.8584
  16190865.763   -40269821.87449 -31365114.06549  16190866.2174   16190873.2854
  19920084.240    -8052973.08649  -6100030.15149  19920085.0624   19920092.1424
  19983783.912   -14634475.27349 -11383892.12649  19983784.0944   19983792.7364
  17003129.795   -35861325.69549 -27548005.60949  17003129.3294   17003137.5524
  15647949.175   -49867573.44349 -38837529.66749  15647948.7314   15647957.4794
  16512454.829   -30940597.11349 -24080363.51349  16512454.1864   16512462.4254
 96 12 10 20 23 59.9840000  0  8 19 18 29 25  4 16 14 22
  19134781.914   -11706624.78549  -9084658.63249  19134781.2074   19134792.4984
  17919199.410   -29650230.41149 -21379129.37649  17919198.9374   17919206.8664
  16179650.348   -40328760.08349 -31411039.94349  16179650.8314   16179657.8774
  19925401.486    -8025031.34449  -6078257.40449  19925402.5114   19925408.9334
  19968423.587   -14715193.68049 -11446789.56949  19968423.4784   19968434.1084
  16978460.365   -35990964.53349 -27649022.86349  16978460.0074   16978467.9564
  15640066.055   -49908998.72249 -38869809.10149  15640065.9584   15640074.3744
  16501702.435   -30997101.22249 -24124392.66849  16501701.5904   16501709.3734
 96 12 10 20 24 29.9840000  0  8 19 18 29 25  4 16 14 22
  19106893.561   -11853178.87249  -9198856.51949  19106892.8634   19106903.8954
  17893319.571   -29786229.29249 -21485102.49349  17893319.0534   17893326.8954
  16168470.877   -40387508.83349 -31456818.18749  16168470.6414   16168478.3814
  19930708.134    -7997146.20449  -6056528.74749  19930709.1074   19930715.0334
  19953148.784   -14795463.23649 -11509337.27349  19953148.2134   19953155.4934
  16953859.133   -36120245.29149 -27749761.08549  16953858.3484   16953866.6304
  15632285.198   -49949887.90649 -38901670.79249  15632285.0544   15632293.8094
  16491054.225   -31053058.07049 -24167995.38849  16491053.8314   16491061.8644
 96 12 10 20 24 59.9840000  0  8 19 18 29 25  4 16 14 22
  19079028.541   -11999608.98249  -9312957.77949  19079027.2744   19079039.3814
  17867440.554   -29922223.57549 -21591072.01349  17867439.8894   17867447.7664
  16157326.670   -40446071.68149 -31502451.55549  16157326.4564   16157334.3034
  19936002.850    -7969322.86849  -6034848.25749  19936005.0614   19936009.6914
  19937958.693   -14875287.16649 -11571537.72349  19937958.0594   19937968.6274
  16929326.399   -36249165.13449 -27850218.09249  16929325.8824   16929334.1064
  15624604.203   -49990251.55349 -38933122.99749  15624604.1624   15624612.5264
  16480508.476   -31108477.20549 -24211179.09549  16480507.9724   16480516.2184
 96 12 10 20 25 29.9840000  0  8 19 18 29 25  4 16 14 22
  19051192.132   -12145889.67449  -9426942.65649  19051190.2554   19051201.2444
  17841566.410   -30058192.68549 -21697021.91849  17841565.7614   17841573.4764
  16146217.941   -40504448.63049 -31547940.08249  16146217.6164   16146225.5594
  19941288.051    -7941552.33949  -6013208.90249  19941289.5334   19941294.6304
  19922850.891   -14954677.64249 -11633400.43149  19922851.9974   19922858.7314
  16904859.309   -36377740.14349 -27950406.39449  16904858.8004   16904867.3604
  15617023.887   -50030086.43849 -38964163.16749  15617023.9094   15617032.1834
  16470066.911   -31163347.99749 -24253935.52649  16470066.0214   16470074.1674
 96 12 10 20 25 59.9840000  0  8 19 18 29 25  4 16 14 22
  19023388.114   -12292000.06149  -9540794.84949  19023387.7734   19023397.5354
  17815698.402   -30194130.57849 -21802947.51149  17815697.1504   17815705.1514
  16135146.057   -40562631.47249 -31593277.37249  16135146.4314   16135153.7164
  19946564.578    -7913826.52049  -5991604.39949  19946565.2204   19946570.7324
  19907824.699   -15033640.43049 -11694929.86049  19907824.4804   19907834.6864
  16880455.491   -36505983.17049 -28050336.01449  16880455.1244   16880463.1304
  15609544.059   -50069393.61249 -38994792.14149  15609544.2674   15609552.1054
  16459732.280   -31217656.51349 -24296253.82149  16459731.3054   16459739.5794
 96 12 10 20 26 29.9840000  0  8 19 18 29 25  4 16 14 22
  18995618.326   -12437931.27049  -9654507.39149  18995615.5094   18995628.2524
  17789838.147   -30330026.33549 -21908840.27649  17789837.4424   17789845.3224
  16124112.130   -40620615.64849 -31638459.85149  16124112.7194   16124119.7804
  19951834.028    -7886136.74049  -5970027.96849  19951834.1634   19951840.8394
  19892884.631   -15112150.00249 -11756106.13549  19892885.8524   19892894.2684
  16856115.882   -36633889.04349 -28150002.90749  16856115.5144   16856123.3394
  15602164.362   -50108174.93549 -39025011.35849  15602164.6664   15602172.4694
  16449509.053   -31271379.45549 -24338115.82349  16449507.3634   16449516.2964
 96 12 10 20 26 59.9840000  0  8 19 18 29 25  4 16 14 22
  18967890.360   -12583642.09949  -9768048.24849  18967890.3134   18967900.2684
  17763997.491   -30465819.70949 -22014653.27549  17763998.2704   17764004.4774
  16113122.585   -40678366.79649 -31683460.73849  16113122.2984   16113129.9734
  19957103.465    -7858444.30449  -5948449.47349  19957102.8354   19957111.2184
  19878041.559   -15190151.14149 -11816886.27449  19878042.1984   19878051.4294
  16831851.220   -36761401.25249 -28249363.05349  16831850.6724   16831858.6574
  15594893.791   -50146382.56249 -39054783.54349  15594893.5604   15594901.8084
  16439410.331   -31324447.60049 -24379467.60449  16439409.3344   16439417.6184
 96 12 10 20 27 29.9840000  0  8 19 18 29 25  4 16 14 22
  18940204.421   -12729132.12349  -9881417.03949  18940204.0904   18940214.7474
  17738175.452   -30601516.35149 -22120390.90349  17738175.1374   17738183.1734
  16102176.566   -40735888.06849 -31728282.49549  16102176.2454   16102183.8664
  19962371.826    -7830758.44749  -5926876.11349  19962372.0474   19962379.8914
  19863296.029   -15267641.61249 -11877268.44249  19863297.7454   19863304.7464
  16807660.982   -36888521.99549 -28348418.16549  16807660.5094   16807668.6524
  15587732.559   -50184014.24449 -39084106.93249  15587732.4474   15587740.4444
  16429438.004   -31376852.70649 -24420302.74249  16429437.7274   16429445.2604
 96 12 10 20 27 59.9840000  0  7 19 18 29  4 16 14 22
  18912555.608   -12874425.83149  -9994632.84549  18912554.9214   18912565.4664
  17712367.474   -30737137.99949 -22226070.08949  17712366.9934   17712374.4004
  16091270.175   -40793200.52349 -31772941.52149  16091269.6464   16091277.9584
  19848650.253   -15344607.19149 -11937241.63449  19848650.8454   19848659.7404
  16783548.197   -37015235.76449 -28447156.15249  16783547.6024   16783556.0034
  15580677.597   -50221088.56249 -39112996.00749  15580676.6224   15580685.8294
  16419588.281   -31428613.73649 -24460636.00349  16419587.8364   16419596.0904
 96 12 10 20 28 29.9840000  0  7 19 18 29  4 16 14 22
  18884938.609   -13019553.84449 -10107719.55549  18884938.5194   18884948.3864
  17686570.723   -30872701.02549 -22331703.59749  17686570.5424   17686577.6444
  16080400.600   -40850319.86449 -31817450.11049  16080400.1914   16080408.2834
  19834103.619   -15421050.92249 -11996808.18649  19834102.1574   19834111.0204
  16759512.620   -37141544.09249 -28545578.20249  16759511.8014   16759519.9404
  15573725.139   -50257622.55849 -39141464.07149  15573724.7954   15573733.8324
  16409855.762   -31479758.39249 -24500488.96649  16409854.9544   16409863.5864
 96 12 10 20 28 59.9840000  0  7 19 18 29  4 16 14 22
  18857349.657   -13164534.96549 -10220691.77749  18857349.1894   18857360.1024
  17660782.460   -31008218.97549 -22437301.98049  17660781.8554   17660790.3344
  16069565.780   -40907256.68649 -31861816.46549  16069566.3214   16069573.6094
  19819649.667   -15497005.92249 -12055993.89149  19819650.3324   19819658.2094
  16735548.620   -37267475.19849 -28643706.31749  16735547.8314   16735555.7864
  15566872.956   -50293630.82649 -39169522.47449  15566872.4084   15566881.3284
  16400235.363   -31530313.54949 -24539882.60049  16400234.7044   16400242.8444
 96 12 10 20 29 29.9840000  0  7 19 18 29  4 16 14 22
  18829790.007   -13309362.33149 -10333544.20749  18829790.2574   18829800.1794
  17635000.487   -31143703.76449 -22542874.52349  17634999.7644   17635008.6684
  16058767.473   -40964003.25549 -31906034.56249  16058767.7064   16058775.1404
  19805286.522   -15572483.55249 -12114807.63049  19805285.8964   19805295.4804
  16711655.540   -37393033.67849 -28741544.07149  16711655.0024   16711662.7974
  15560119.314   -50329121.33449 -39197177.41449  15560119.2544   15560127.9974
  16390723.431   -31580298.43149 -24578831.84549  16390722.2894   16390730.9594
 96 12 10 20 29 59.9840000  0  7 19 18 29  4 16 14 22
  18802262.007   -13454022.84149 -10446266.62049  18802260.9164   18802271.3224
  17609226.524   -31279145.92449 -22648413.85649  17609226.5764   17609233.5084
  16048007.140   -41020549.23649 -31950096.34849  16048007.0164   16048014.4104
  19791014.222   -15647484.71249 -12173250.08849  19791013.9764   19791022.2354
  16687838.332   -37518194.06249 -28839071.62549  16687837.9904   16687845.6634
  15553464.962   -50364090.20449 -39224425.86149  15553464.2514   15553473.1524
  16381319.986   -31629714.14549 -24617337.58049  16381319.2994   16381327.1604
 96 12 10 20 30 29.9840000  0  7 19 18 29  4 16 14 22
  18774762.424   -13598532.61449 -10558871.54849  18774761.7034   18774771.1894
  17583457.811   -31414561.59749 -22753932.54749  17583457.3164   17583464.8244
  16037278.586   -41076927.83949 -31994027.71549  16037278.6434   16037285.4644
  19776823.134   -15722059.27049 -12231360.14449  19776823.8404   19776831.8954
  16664091.791   -37642983.00649 -28936309.74249  16664090.8604   16664099.1084
  15546906.006   -50398557.03349 -39251283.12749  15546905.6314   15546914.0664
  16372021.774   -31678577.07449 -24655412.58749  16372021.4754   16372028.8254
 96 12 10 20 30 59.9840000  0  7 19 18 29  4 16 14 22
  18747286.912   -13742916.13549 -10671378.10349  18747286.7734   18747296.4764
  17557690.684   -31549967.95849 -22859443.97349  17557689.4354   17557697.5214
  16026573.823   -41133182.21049 -32037862.27349  16026574.3434   16026580.9504
  19762705.423   -15796248.20249 -12289169.69149  19762705.9534   19762713.9274
  16640409.793   -37767431.93349 -29033282.91849  16640408.6954   16640417.7404
  15540438.096   -50432545.79249 -39277767.88349  15540437.8794   15540445.7864
  16362823.495   -31726914.92249 -24693078.45749  16362822.8834   16362830.1934
 96 12 10 20 31 29.9840000  0  7 19 18 29  4 16 14 22
  18719835.011   -13887177.17249 -10783789.21449  18719834.8684   18719843.2924
  17531925.653   -31685363.34149 -22964946.83449  17531925.0314   17531932.9874
  16015891.902   -41189316.86949 -32081603.55849  16015891.7194   16015898.9384
  19748662.961   -15870043.26949 -12346672.34149  19748664.0644   19748672.0434
  16616794.289   -37891531.34549 -29129983.73849  16616793.6834   16616802.3494
  15534057.795   -50466074.85149 -39303894.41549  15534057.7564   15534065.4694
  16353722.719   -31774740.31549 -24730344.99349  16353721.7544   16353730.2514
 96 12 10 20 31 59.9840000  0  7 19 18 29  4 16 14 22
  18692406.779   -14031313.17249 -10896102.89649  18692406.6464   18692416.1184
  17506166.627   -31820727.47549 -23070425.34849  17506165.9344   17506174.2444
  16005233.350   -41245327.07049 -32125247.86849  16005233.1984   16005240.9704
  19734698.537   -15943428.73449 -12403855.80149  19734699.9714   19734706.3664
  16593244.871   -38015283.97249 -29226414.33249  16593244.3564   16593252.9544
  15527766.664   -50499134.95749 -39329655.54149  15527766.9414   15527774.3974
  16344723.229   -31822032.80849 -24767196.29749  16344722.3444   16344730.7554
 96 12 10 20 32 29.9830000  0  7 19 18 29  4 16 14 22
  18664999.966   -14175335.08449 -11008327.65849  18665000.1894   18665010.2884
  17480414.823   -31956053.69249 -23175874.31249  17480414.8714   17480422.1014
  15994600.611   -41301202.40649 -32168787.07849  15994600.6684   15994608.3234
  19720815.462   -16016386.22949 -12460705.78449  19720815.8034   19720823.2054
  16569759.203   -38138702.57149 -29322584.65549  16569758.7054   16569767.4534
  15521568.705   -50531706.11749 -39355035.67249  15521568.7324   15521576.7314
  16335827.689   -31868778.95749 -24803621.85949  16335826.9924   16335835.4114
 96 12 10 20 32 59.9830000  0  7 19 18 29  4 16 14 22
  18637616.484   -14319236.14449 -11120458.24249  18637617.3264   18637626.1564
  17454671.280   -32091336.76949 -23281289.66549  17454670.8234   17454678.2854
  15984002.381   -41356896.92749 -32212185.39649  15984002.4954   15984009.8404
  19707020.116   -16088879.93749 -12517194.38749  19707019.7444   19707028.0684
  16546340.494   -38261768.50649 -29418480.16149  16546340.3874   16546348.6044
  15515468.991   -50563759.91749 -39380012.67349  15515468.8544   15515476.9504
  16327040.154   -31914958.77949 -24839606.12449  16327039.2964   16327047.6204
 96 12 10 20 33 29.9830000  0  7 19 18 29  4 16 14 22
  18610262.546   -14462982.55949 -11232468.32249  18610262.8834   18610272.0594
  17428940.587   -32226552.52149 -23386652.55249  17428940.6854   17428948.3074
  15973445.947   -41412371.56149 -32255412.38349  15973446.3534   15973453.3694
  19693319.106   -16160877.46449 -12573296.34549  19693317.7904   19693326.9474
  16522996.738   -38384442.01749 -29514069.89649  16522996.8074   16523004.3954
  15509471.432   -50595277.70849 -39404571.99949  15509471.5064   15509479.5054
  16318368.757   -31960527.50349 -24875114.21849  16318367.9794   16318375.9764
 96 12 10 20 33 59.9830000  0  7 19 18 29  4 16 14 22
  18582938.052   -14606573.93149 -11344357.60749  18582936.9204   18582947.3784
  17403222.366   -32361702.63149 -23491964.29349  17403222.2404   17403230.1394
  15962932.525   -41467621.03949 -32298463.90949  15962932.7524   15962939.1514
  19679712.282   -16232379.53849 -12629012.26349  19679712.9984   19679720.6554
  16499729.720   -38506711.25249 -29609344.60949  16499728.9554   16499737.1814
  15503579.743   -50626238.85549 -39428697.58049  15503579.7154   15503587.7334
  16309817.030   -32005467.54849 -24910132.41849  16309816.0094   16309823.9994
 96 12 10 20 34 29.9830000  0  7 19 18 29  4 16 14 22
  18555644.299   -14750002.71149 -11456120.16349  18555644.0554   18555654.1864
  17377515.268   -32496794.55449 -23597230.66449  17377514.8274   17377522.7474
  15952462.138   -41522643.75249 -32341338.73749  15952461.7514   15952468.8944
  19666200.839   -16303383.61549 -12684340.08249  19666201.7724   19666209.6194
  16476544.289   -38628551.20849 -29704284.80049  16476543.7864   16476551.8114
  15497792.133   -50656653.23349 -39452397.09149  15497792.2224   15497800.0324
  16301384.689   -32049779.59049 -24944661.28549  16301383.7774   16301391.6454
 96 12 10 20 34 59.9830000  0  7 19 18 29  4 16 14 22
  18528386.455   -14893241.96849 -11567735.04549  18528385.9954   18528395.4594
  17351820.833   -32631820.11149 -23702445.33649  17351821.3844   17351828.0904
  15942032.116   -41577453.42549 -32384047.56349  15942031.8214   15942038.8504
  19652780.971   -16373905.71249 -12739292.35949  19652781.8624   19652791.1254
  16453440.738   -38749960.75149 -29798889.60949  16453440.0114   16453448.5824
  15492104.574   -50686541.88349 -39475686.94749  15492104.8594   15492112.9144
  16293068.593   -32093480.98649 -24978714.31249  16293067.8344   16293075.2634
 96 12 10 20 35 29.9830000  0  7 19 18 29  4 16 14 22
  18501167.139   -15036279.66249 -11679192.84649  18501165.1704   18501177.3274
  17326142.005   -32766763.58149 -23807596.06349  17326141.6724   17326149.6104
  15931639.600   -41632066.48749 -32426603.19249  15931639.0364   15931646.4294
  19639453.233   -16443944.39349 -12793867.96349  19639453.0004   19639461.7784
  16430419.507   -38870937.65249 -29893157.30849  16430418.8884   16430427.6934
  15486516.752   -50715906.58749 -39498568.54149  15486516.7884   15486524.7984
  16284866.316   -32136583.53949 -25012300.67949  16284864.7634   16284873.8274
 96 12 10 20 35 59.9830000  0  7 19 18 29  4 16 14 22
  18473988.335   -15179104.61249 -11790484.85349  18473988.1144   18473997.9424
  17300481.224   -32901612.31949 -23912672.94249  17300480.4574   17300488.2224
  15921286.049   -41686473.49749 -32468998.26449  15921285.5534   15921293.0374
  19626218.661   -16513492.01449 -12848060.91749  19626218.7224   19626227.6944
  16407480.694   -38991482.13749 -29987088.04649  16407480.0884   16407488.3954
  15481033.205   -50744723.02549 -39521022.91649  15481033.4344   15481041.8774
  16276775.965   -32179098.36349 -25045429.11049  16276774.7434   16276783.4194
 96 12 10 20 36 29.9830000  0  7 19 18 29  4 16 14 22
  18446855.519   -15321688.31049 -11901588.90349  18446855.8174   18446865.8584
  17274840.837   -33036353.06249 -24017665.69749  17274840.7974   17274847.8594
  15910976.277   -41740650.73449 -32511214.29549  15910976.5604   15910983.8744
  19613080.452   -16582533.27149 -12901859.30249  19613079.5384   19613089.5964
  16384626.383   -39111581.93249 -30080672.27849  16384625.3504   16384633.9494
  15475658.460   -50772968.01649 -39543032.00949  15475658.8744   15475666.6924
  16268797.457   -32221024.48649 -25078098.79149  16268796.3074   16268805.1884
 96 12 10 20 36 59.9830000  0  7 19 18 29  4 16 14 22
  18419770.347   -15464021.74049 -12012497.93349  18419770.1984   18419779.6944
  17249223.214   -33170974.45549 -24122565.46849  17249223.2614   17249230.0674
  15900716.356   -41794567.84949 -32553227.61749  15900717.0334   15900723.5764
  19600039.858   -16651061.26149 -12955257.72949  19600040.0054   19600048.3664
  16361857.716   -39231230.82149 -30173905.16049  16361856.8024   16361865.3544
  15470394.996   -50800628.24949 -39564585.43549  15470395.0584   15470403.0594
  16260931.332   -32262360.53049 -25110308.65349  16260930.0524   16260939.1954
 96 12 10 20 37 29.9830000  0  7 19 18 29  4 16 14 22
  18392730.033   -15606120.40649 -12123224.00849  18392730.1484   18392739.2794
  17223627.709   -33305479.85249 -24227374.81849  17223626.9214   17223634.6714
  15890510.287   -41848202.36449 -32595020.75349  15890510.5984   15890517.1134
  19587098.865   -16719067.75949 -13008249.79149  19587099.1634   19587108.0224
  16339178.274   -39350411.87349 -30266773.47149  16339177.8034   16339185.5464
  15465243.137   -50827701.58649 -39585681.55049  15465243.2454   15465251.2684
  16253182.314   -32303080.67049 -25142038.62749  16253181.1974   16253189.4854
 96 12 10 20 37 59.9830000  0  7 19 18 29  4 16 14 22
  18365733.523   -15747988.89549 -12233770.75049  18365733.8974   18365742.2854
  17198052.133   -33439879.69149 -24332101.94449  17198051.8664   17198059.9734
  15880358.607   -41901550.35249 -32636590.61349  15880358.4574   15880365.2724
  19574254.750   -16786564.48649 -13060844.64549  19574253.8964   19574262.5754
  16316589.623   -39469116.57649 -30359270.61949  16316588.9804   16316596.7944
  15460201.428   -50854196.00749 -39606326.55249  15460200.9164   15460209.0104
  16245551.934   -32343178.52849 -25173283.69049  16245551.0894   16245558.9084
 96 12 10 20 38 29.9830000  0  7 19 18 29  4 16 14 22
  18338779.913   -15889630.99849 -12344141.07549  18338778.5084   18338787.9254
  17172496.012   -33574178.32849 -24436750.22549  17172495.9384   17172503.4584
  15870260.229   -41954617.05749 -32677941.30149  15870260.0084   15870266.9144
  19561508.588   -16853544.63649 -13113036.98949  19561508.6994   19561518.0174
  16294093.632   -39587333.54749 -30451387.72049  16294092.7344   16294101.4844
  15455266.671   -50880127.49449 -39626532.90749  15455266.6324   15455275.1984
  16238041.614   -32382645.45149 -25204037.11949  16238041.0784   16238048.6624
 96 12 10 20 38 59.9830000  0  7 19 18 29  4 16 14 22
  18311866.487   -16031060.55049 -12454345.79549  18311865.9594   18311874.7724
  17146960.024   -33708370.94749 -24541315.88549  17146959.3474   17146966.7624
  15860210.447   -42007428.54649 -32719093.12249  15860210.6354   15860217.1454
  19548857.823   -16920024.87449 -13164839.76849  19548857.3984   19548865.9944
  16271688.985   -39705070.13149 -30543130.47749  16271688.6144   16271697.2794
  15450436.431   -50905509.70749 -39646311.26249  15450434.9964   15450444.7104
  16230652.482   -32421476.14449 -25234294.78649  16230651.7644   16230660.1014
 96 12 10 20 39 29.9830000  0  7 19 18 29  4 16 14 22
  18284992.693   -16172282.76649 -12564388.94749  18284992.4734   18285001.3934
  17121445.937   -33842448.39249 -24645791.81049  17121445.4804   17121453.5134
  15850204.757   -42060009.49149 -32760065.28449  15850204.8814   15850211.9544
  19536302.940   -16986001.34249 -13216250.01949  19536304.2784   19536310.5474
  16249375.857   -39822326.86949 -30634499.35649  16249375.6014   16249383.9124
  15445713.366   -50930327.85249 -39665650.06849  15445713.4154   15445722.3274
  16223386.832   -32459657.49449 -25264046.46149  16223386.4134   16223394.5384
 96 12 10 20 39 59.9830000  0  7 19 18 29  4 16 14 22
  18258160.771   -16313284.16849 -12674260.01549  18258160.0294   18258170.0534
  17095957.014   -33976393.57949 -24750164.64849  17095956.5864   17095964.1734
  15840243.430   -42112356.55049 -32800855.20549  15840243.1384   15840250.4684
  19523846.690   -17051458.42449 -13267255.53949  19523846.9124   19523856.0364
  16227155.945   -39939092.85149 -30725485.80649  16227155.6744   16227164.1254
  15441103.116   -50954555.32249 -39684528.62749  15441103.5964   15441112.0324
  16216244.759   -32497190.39249 -25293292.87249  16216244.1884   16216252.0834
 96 12 10 20 40 29.9830000  0  7 19 18 29  4 16 14 22
  18231371.206   -16454063.86949 -12783958.38249  18231371.3244   18231380.1354
  17070495.730   -34110193.09349 -24854423.99549  17070495.3624   17070502.8154
  15830330.435   -42164449.26749 -32841446.94249  15830330.5304   15830337.2534
  19511489.954   -17116392.95149 -13317853.90049  19511490.0964   19511500.0804
  16205028.252   -40055374.78849 -30816095.10449  16205027.8134   16205036.2824
  15436607.637   -50978179.60849 -39702937.15049  15436608.3284   15436615.7644
  16209225.824   -32534074.84549 -25322033.99949  16209225.0574   16209232.5514
 96 12 10 20 40 59.9830000  0  7 19 18 29  4 16 14 22
  18204621.883   -16594632.04949 -12893491.93049  18204621.0234   18204631.0424
  17045063.619   -34243839.93049 -24958564.35849  17045063.6984   17045069.9564
  15820466.075   -42216286.62749 -32881839.69049  15820465.9794   15820473.0114
  19499230.540   -17180816.00849 -13368053.66649  19499230.9234   19499241.0004
  16182992.857   -40171171.61649 -30906326.36949  16182992.2884   16183000.9234
  15432226.335   -51001204.28549 -39720878.44849  15432226.0824   15432234.4924
  16202326.792   -32570329.09749 -25350284.05449  16202326.8334   16202334.0794
 96 12 10 20 41 29.9830000  0  7 19 18 29  4 16 14 22
  18177911.882   -16734993.28749 -13002864.23549  18177911.9134   18177920.5984
  17019661.074   -34377330.98049 -25062583.34549  17019660.4844   17019667.8134
  15810651.920   -42267860.15149 -32922026.85649  15810652.2434   15810658.9004
  19487068.629   -17244727.20149 -13417854.60549  19487069.5424   19487078.3784
  16161051.328   -40286474.82449 -30996173.00249  16161050.7474   16161058.9544
  15427956.425   -51023642.22549 -39738362.56449  15427955.9584   15427965.0804
  16195545.113   -32605968.06649 -25378054.65849  16195544.2084   16195551.7484
 96 12 10 20 41 59.9830000  0  7 19 18 29  4 16 14 22
  18151240.787   -16875150.51949 -13112077.60649  18151239.7984   18151248.5814
  16994284.672   -34510684.06549 -25166494.82049  16994283.8624   16994292.5814
  15800889.452   -42319162.48949 -32962002.71249  15800889.7424   15800896.4844
  19474999.946   -17308149.03249 -13467274.22749  19475001.4574   19475009.7934
  16139202.846   -40401289.03449 -31085638.59549  16139201.8434   16139210.6364
  15423793.458   -51045518.84649 -39755409.28349  15423793.0404   15423801.7484
  16188873.785   -32641026.17149 -25405372.65249  16188873.2864   16188880.4584
 96 12 10 20 42 29.9830000  0  7 19 18 29  4 16 14 22
  18124606.651   -17015113.90349 -13221139.91149  18124605.3974   18124614.6044
  16968930.526   -34643920.28649 -25270315.22249  16968930.1144   16968938.0294
  15791175.649   -42370208.21249 -33001778.59249  15791175.4474   15791182.8544
  19463022.002   -17371095.01949 -13516323.08249  19463023.1294   19463031.3604
  16117444.604   -40515629.04449 -31174734.68249  16117444.1364   16117452.5764
  15419730.767   -51066868.66749 -39772045.51949  15419730.2234   15419739.4524
  16182309.857   -32675520.19049 -25432251.08949  16182309.0314   16182316.9304
 96 12 10 20 42 59.9830000  0  7 19 18 29  4 16 14 22
  18098009.835   -17154879.81049 -13330048.36249  18098008.7394   18098016.6174
  16943595.294   -34777057.86849 -25374058.77349  16943595.1934   16943602.6924
  15781506.040   -42421022.11949 -33041373.84649  15781506.7204   15781513.4284
  19451134.905   -17433563.06649 -13564999.48549  19451135.2194   19451143.3904
  16095775.812   -40629498.93049 -31263464.47549  16095775.5564   16095784.2894
  15415765.051   -51087708.80449 -39788284.60549  15415765.3184   15415773.3084
  16175853.034   -32709451.43149 -25458691.02349  16175852.4304   16175859.8184
 96 12 10 20 43 29.9830000  0  7 19 18 29  4 16 14 22
  18071456.713   -17294415.90149 -13438777.75949  18071456.7514   18071465.9334
  16918277.248   -34910105.04249 -25477731.84549  16918276.3714   16918285.1714
  15771882.971   -42471592.65749 -33080779.46249  15771883.4424   15771890.2614
  19439340.428   -17495543.51749 -13613295.94449  19439340.4554   19439349.1044
  16074194.037   -40742911.59349 -31351837.94349  16074193.3184   16074202.4594
  15411898.012   -51108030.84749 -39804119.97249  15411897.5754   15411905.9194
  16169507.500   -32742797.47949 -25484674.94949  16169506.7534   16169514.1614
 96 12 10 20 43 59.9830000  0  7 19 18 29  4 16 14 22
  18044952.071   -17433699.12449 -13547310.07749  18044952.1304   18044961.2404
  16892975.823   -35043065.16449 -25581337.11149  16892975.9564   16892983.6954
  15762309.630   -42521901.02449 -33119980.77749  15762310.2604   15762316.9044
  19427642.803   -17557014.50449 -13661195.42549  19427642.9734   19427652.4934
  16052699.598   -40855865.93849 -31439854.30049  16052698.8284   16052707.0834
  15408132.612   -51127818.03249 -39819538.57249  15408132.0324   15408139.9964
  16163276.954   -32775539.19049 -25510187.95749  16163275.7174   16163284.4524
 96 12 10 20 44 29.9830000  0  7 19 18 29  4 16 14 22
  18018494.846   -17572732.88549 -13655648.03949  18018495.2954   18018504.6694
  16867691.987   -35175932.56249 -25684870.10449  16867691.6404   16867699.8414
  15752783.309   -42571962.93549 -33158990.05649  15752783.6954   15752790.5174
  19416040.882   -17617981.93849 -13708702.52949  19416040.9154   19416049.9244
  16031290.509   -40968371.33249 -31527520.82449  16031290.1994   16031297.9244
  15404466.819   -51147080.93149 -39834548.62949  15404466.5604   15404474.6094
  16157162.846   -32807668.13849 -25535223.48849  16157161.0604   16157170.7004
 96 12 10 20 44 59.9820000  0  7 19 18 29  4 16 14 22
  17992088.819   -17711499.08449 -13763777.51249  17992089.7554   17992097.9774
  16842429.133   -35308690.06449 -25788317.46449  16842428.5194   16842436.7144
  15743307.119   -42621760.60149 -33197793.43249  15743306.8354   15743314.1934
  19404535.198   -17678445.26449 -13755816.83249  19404535.5404   19404544.7314
  16009971.262   -41080405.23349 -31614819.95749  16009971.2684   16009979.2444
  15400904.100   -51165802.87649 -39849137.17449  15400904.1864   15400911.6414
  16151166.480   -32839177.69049 -25559776.37249  16151165.2414   16151174.1034
 96 12 10 20 45 29.9820000  0  7 19 18 29  4 16 14 22
  17965735.183   -17849989.94849 -13871692.44849  17965735.5104   17965744.5434
  16817195.717   -35441292.46149 -25891643.96649  16817195.9484   16817202.2844
  15733889.541   -42671249.77849 -33236356.42349  15733889.5754   15733896.5554
  19393130.596   -17738377.60249 -13802517.38649  19393130.9254   19393139.4644
  15988750.967   -41191919.28949 -31701713.99949  15988749.5894   15988758.8914
  15397451.795   -51183945.33649 -39863274.19649  15397452.0164   15397460.0834
  16145296.485   -32870024.31749 -25583812.71149  16145295.5144   16145303.5154
 96 12 10 20 45 59.9820000  0  7 19 18 29  4 16 14 22
  17939433.432   -17988206.62849 -13979393.73049  17939433.8784   17939442.5514
  16792000.763   -35573693.27049 -25994813.39849  16792000.2504   16792007.7134
  15724534.953   -42720408.11249 -33274661.60449  15724534.8214   15724542.0744
  19381830.346   -17797760.96549 -13848790.13049  19381829.7984   19381840.1044
  15967639.609   -41302859.03949 -31788160.56049  15967638.6544   15967647.9894
  15394114.607   -51201482.74449 -39876939.72349  15394114.5464   15394122.1614
  16139556.445   -32900188.94049 -25607317.60249  16139556.1084   16139562.9284
 96 12 10 20 46 29.9820000  0  7 19 18 29  4 16 14 22
  17913177.666   -18126181.41649 -14086906.53249  17913177.7854   17913185.7604
  16766841.527   -35705905.41949 -26097835.81549  16766840.9784   16766848.7574
  15715238.771   -42769259.97249 -33312727.98449  15715239.1864   15715245.7694
  19370630.333   -17856616.69449 -13894651.78049  19370630.3024   19370639.2454
  15946637.727   -41413223.43649 -31874158.79549  15946637.2034   15946646.1064
  15390889.981   -51218428.34749 -39890144.11749  15390890.0984   15390897.7734
  16133942.694   -32929689.94949 -25630305.39749  16133942.6144   16133949.0344
 96 12 10 20 46 59.9820000  0  7 19 18 29  4 16 14 22
  17886959.737   -18263957.47349 -14194264.45549  17886959.1364   17886967.1324
  16741710.001   -35837971.41349 -26200744.34849  16741709.4364   16741717.2454
  15705994.236   -42817841.06249 -33350583.36349  15705994.7864   15706001.2384
  19359526.128   -17914969.44849 -13940121.47949  19359526.0794   19359534.9924
  15925739.229   -41523045.56149 -31959734.46149  15925738.9104   15925747.8964
  15387774.591   -51234800.80249 -39902901.88949  15387774.8354   15387782.0454
  16128449.020   -32958560.60649 -25652801.99349  16128448.1384   16128455.2604
 96 12 10 20 47 29.9820000  0  7 19 18 29  4 16 14 22
  17860777.680   -18401544.31949 -14301474.96349  17860776.1024   17860784.8714
  16716605.682   -35969894.58449 -26303541.60449  16716604.9654   16716612.4904
  15696796.457   -42866176.20849 -33388247.10449  15696796.9744   15696803.5934
  19348515.124   -17972832.41449 -13985209.54749  19348516.6514   19348525.1814
  15904940.638   -41632343.56449 -32044901.73149  15904940.2694   15904948.7564
  15384767.864   -51250601.70149 -39915214.28849  15384768.0074   15384774.5844
  16123073.290   -32986809.58549 -25674814.19549  16123071.8404   16123079.4984
 96 12 10 20 47 59.9820000  0  7 19 18 29  4 16 14 22
  17834635.987   -18538918.84449 -14408519.99249  17834635.5194   17834644.8684
  16691526.256   -36101687.26949 -26406237.17349  16691525.5574   16691533.0674
  15687646.106   -42914262.15349 -33425716.66649  15687646.2584   15687653.1044
  19337596.527   -18030210.10149 -14029919.44749  19337596.2614   19337605.1714
  15884238.824   -41741132.24449 -32129672.11849  15884238.3114   15884246.7014
  15381871.123   -51265824.64749 -39927076.33849  15381870.9024   15381878.5964
  16117811.253   -33014460.80049 -25696360.58949  16117810.4224   16117818.2014
 96 12 10 20 48 29.9820000  0  7 19 18 29  4 16 14 22
  17808537.908   -18676064.89649 -14515387.04549  17808537.0564   17808546.6604
  16666467.112   -36233374.11949 -26508850.28349  16666467.0454   16666474.6004
  15678542.656   -42962101.11249 -33462993.78449  15678542.3414   15678549.9464
  19326770.400   -18087101.65749 -14074250.53049  19326771.8344   19326780.1734
  15863628.747   -41849438.52149 -32214066.61449  15863628.8984   15863636.8914
  15379083.057   -51280476.00449 -39938493.00949  15379082.9824   15379089.8484
  16112661.204   -33041524.51549 -25717449.20549  16112660.7374   16112668.7904
 96 12 10 20 48 59.9820000  0  7 19 18 29  4 16 14 22
  17782485.439   -18812970.95449 -14622067.04549  17782485.0024   17782494.2834
  16641429.533   -36364947.69749 -26611375.11349  16641428.9484   16641436.5894
  15669485.281   -43009697.20449 -33500081.64149  15669484.8614   15669492.1824
  19316034.740   -18143517.79349 -14118211.20149  19316035.0374   19316043.5024
  15843108.748   -41957272.80349 -32298093.31149  15843108.5544   15843116.8064
  15376401.882   -51294565.47049 -39949471.81849  15376401.7594   15376408.8564
  16107620.297   -33068015.18849 -25738091.28249  16107619.2774   16107627.3704
 96 12 10 20 49 29.9820000  0  7 19 18 29  4 16 14 22
  17756479.581   -18949632.50849 -14728556.51549  17756479.4754   17756487.4544
  16616413.692   -36496407.89249 -26713811.61149  16616413.3664   16616420.7714
  15660476.322   -43057039.07249 -33536971.41649  15660475.9184   15660483.3664
  19305388.458   -18199464.27549 -14161805.87149  19305389.3774   19305398.1824
  15822678.995   -42064631.92049 -32381749.75549  15822678.5684   15822687.7714
  15373825.420   -51308104.90349 -39960022.03049  15373825.3424   15373833.1884
  16102685.356   -33093948.87049 -25758299.32849  16102684.3344   16102692.5514
 96 12 10 20 49 59.9820000  0  7 19 18 29  4 16 14 22
  17730519.364   -19086054.27349 -14834859.11849  17730518.6474   17730528.1394
  16591419.362   -36627753.89549 -26816159.13149  16591418.7104   16591426.3554
  15651518.704   -43104110.43949 -33573650.40249  15651518.7494   15651525.7134
  19294834.111   -18254929.28649 -14205025.38549  19294834.1644   19294843.8984
  15802340.739   -42171510.33749 -32465031.61949  15802340.5874   15802349.3294
  15371350.891   -51321108.59549 -39970154.77549  15371350.7954   15371358.4694
  16097855.577   -33119329.39149 -25778076.34049  16097854.5274   16097862.8014
 96 12 10 20 50 29.9820000  0  7 19 18 29  4 16 14 22
  17704601.531   -19222252.60949 -14940987.66149  17704601.5294   17704609.1874
  16566449.770   -36758969.19049 -26918404.78749  16566449.6264   16566458.0584
  15642610.227   -43150925.21549 -33610129.45449  15642610.3264   15642617.2054
  19284369.879   -18309918.93849 -14247874.47149  19284369.5794   19284380.1214
  15782097.297   -42277891.55849 -32547926.06549  15782097.0424   15782105.2774
  15368974.412   -51333596.68949 -39979885.76749  15368974.1314   15368982.5004
  16093132.942   -33144147.13349 -25797414.84949  16093131.7774   16093139.0334
 96 12 10 20 50 59.9820000  0  7 19 18 29  4 16 14 22
  17678721.729   -19358251.51449 -15046960.75649  17678721.6164   17678730.7664
  16541507.090   -36890044.88349 -27020541.67349  16541506.2644   16541514.1414
  15633748.350   -43197494.68849 -33646417.36749  15633748.0714   15633754.8094
  19273992.990   -18364449.69749 -14290365.97449  19273993.1024   19274003.2744
  15761950.814   -42383762.11649 -32630422.60049  15761950.2694   15761958.3914
  15366692.922   -51345586.45049 -39989228.44749  15366692.8604   15366700.7474
  16088516.473   -33168406.00149 -25816317.88049  16088515.4534   16088523.5244
 96 12 10 20 51 29.9820000  0  7 19 18 29  4 16 14 22
  17652876.973   -19494065.59549 -15152789.85449  17652876.0884   17652885.8214
  16516590.768   -37020980.89549 -27122569.71849  16516589.9734   16516598.0014
  15624934.494   -43243812.03249 -33682508.80749  15624934.8034   15624940.7544
  19263703.781   -18418518.31049 -14332497.37749  19263704.7654   19263714.1724
  15741901.585   -42489121.24249 -32712520.61749  15741901.1694   15741909.2834
  15364503.847   -51357090.28149 -39998192.48949  15364503.8654   15364511.8964
  16084009.107   -33192091.93349 -25834774.46749  16084007.8034   16084016.7144
 96 12 10 20 51 59.9820000  0  7 19 18 29  4 16 14 22
  17627067.324   -19629696.33849 -15258476.08249  17627066.8964   17627077.0054
  16491703.438   -37151763.86949 -27224478.51449  16491703.2114   16491711.6384
  15616166.435   -43289889.57549 -33718413.39749  15616166.4134   15616172.5434
  19253503.985   -18472118.91249 -14374264.12249  19253504.0274   19253513.6244
  15721952.903   -42593952.19749 -32794207.07849  15721951.6294   15721960.1224
  15362406.998   -51368110.39449 -40006779.60849  15362407.2974   15362415.0094
  16079613.646   -33215189.18349 -25852772.32649  16079612.2464   16079620.9884
 96 12 10 20 52 29.9820000  0  7 19 18 29  4 16 14 22
  17601293.299   -19765139.50949 -15364016.15449  17601293.1684   17601302.5074
  16466845.249   -37282394.44349 -27326268.56349  16466844.9304   16466852.5574
  15607442.509   -43335734.12249 -33754136.42449  15607442.4824   15607448.8134
  19243394.885   -18525243.29749 -14415659.76049  19243396.5844   19243403.8834
  15702105.666   -42698249.09749 -32875477.38149  15702105.0994   15702113.3814
  15360403.308   -51378640.76949 -40014985.10649  15360403.4244   15360410.5674
  16075331.716   -33237690.88749 -25870306.11749  16075331.4804   16075339.2214
 96 12 10 20 52 59.9820000  0  7 19 18 29  4 16 14 22
  17575556.057   -19900389.96649 -15469406.06349  17575556.1964   17575564.9204
  16442014.709   -37412878.88149 -27427944.73449  16442014.8304   16442021.9754
  15598764.009   -43381340.28649 -33789673.69749  15598763.9404   15598770.2084
  19233379.671   -18577874.53849 -14456671.12649  19233379.5284   19233389.6464
  15682359.261   -42802016.88649 -32956335.38649  15682358.6394   15682367.3604
  15358495.889   -51388664.28149 -40022795.64249  15358495.9354   15358503.2744
  16071161.775   -33259605.07849 -25887382.12249  16071161.1274   16071169.2054
 96 12 10 20 53 29.9820000  0  7 19 18 29  4 16 14 22
  17549856.848   -20035440.67349 -15574640.32549  17549856.8774   17549865.4814
  16417212.185   -37543217.82949 -27529507.54149  16417212.4904   16417218.5194
  15590131.659   -43426703.70149 -33825021.80949  15590131.4774   15590138.3234
  19223457.253   -18630018.12049 -14497302.49849  19223458.7964   19223466.4614
  15662711.997   -42905264.46749 -33036788.03649  15662711.6504   15662720.0434
  15356685.299   -51398179.48449 -40030210.09349  15356685.1584   15356693.0174
  16067101.215   -33280944.01449 -25904009.87749  16067100.5884   16067108.8714
 96 12 10 20 53 59.9820000  0  7 19 18 29  4 16 14 22
  17524195.313   -20170292.51649 -15679719.65949  17524194.8824   17524204.2144
  16392432.153   -37673438.47349 -27630978.15949  16392431.5864   16392438.8674
  15581543.517   -43471834.85049 -33860188.93949  15581543.4724   15581550.2024
  19213625.143   -18681688.45649 -14537565.12149  19213625.6644   19213634.7314
  15643162.710   -43007996.75649 -33116839.16349  15643162.4544   15643170.8744
  15354972.440   -51407180.64249 -40037223.98749  15354971.9644   15354980.1874
  16063145.406   -33301731.71849 -25920208.10749  16063144.9464   16063153.3994
 96 12 10 20 54 29.9820000  0  7 19 18 29  4 16 14 22
  17498572.288   -20304941.68349 -15784641.02149  17498571.9814   17498581.1144
  16367672.908   -37803548.79749 -27732362.81049  16367673.1364   16367679.8234
  15573002.115   -43516719.76949 -33895164.20149  15573001.9054   15573008.5584
  19203880.110   -18732900.06949 -14577470.28749  19203878.7814   19203889.8704
  15623707.510   -43110234.37949 -33196504.83249  15623706.6434   15623715.8814
  15353357.296   -51415667.15349 -40043836.85649  15353356.2634   15353365.7054
  16059293.048   -33321976.61549 -25935983.35449  16059292.1334   16059300.8894
 96 12 10 20 54 59.9820000  0  7 19 18 29  4 16 14 22
  17472987.210   -20439391.00649 -15889406.69749  17472986.8834   17472995.8094
  16342933.570   -37933555.34149 -27833666.59549  16342933.3934   16342940.8004
  15564509.679   -43561347.63849 -33929939.17049  15564509.3844   15564516.1234
  19194215.714   -18783683.74549 -14617042.01149  19194215.3914   19194225.7184
  15604344.665   -43211986.09449 -33275791.86749  15604344.4574   15604353.1234
  15351839.725   -51423640.53249 -40050049.90249  15351839.1034   15351848.1284
  16055542.085   -33341688.24549 -25951343.08049  16055541.5204   16055549.7324
 96 12 10 20 55 29.9820000  0  7 19 18 29  4 16 14 22
  17447442.080   -20573631.58149 -15994009.70849  17447442.1374   17447451.9654
  16318213.605   -38063459.31849 -27934890.44949  16318213.2564   16318220.7594
  15556067.565   -43605711.09749 -33964508.10749  15556067.2594   15556074.1764
  19184632.258   -18834044.21349 -14656283.95649  19184631.8064   19184642.4664
  15585075.960   -43313244.73349 -33354694.69649  15585075.2374   15585084.1314
  15350417.880   -51431112.09149 -40055871.91449  15350417.5774   15350426.8554
  16051895.705   -33360850.98049 -25966275.10849  16051895.5344   16051902.8474
 96 12 10 20 55 59.9820000  0  7 19 18 29  4 16 14 22
  17421938.105   -20707656.71849 -16098444.83749  17421938.7634   17421947.1444
  16293512.987   -38193262.08949 -28036035.44249  16293512.9064   16293520.2864
  15547674.912   -43649813.51749 -33998873.63149  15547674.5094   15547682.0634
  19175132.465   -18883963.79349 -14695182.34449  19175132.2524   19175142.2164
  15565901.369   -43414007.04549 -33433210.77849  15565900.6614   15565909.3054
  15349091.978   -51438079.72549 -40061301.24849  15349091.3254   15349100.2904
  16048355.132   -33379458.12449 -25980774.19449  16048354.5654   16048361.7754
